[[{"header":{"parameterUnit":"m.s-1","parameterCategory":1,"la1":31.0,"la2":29.5877,"lo1":-88.7671,"lo2":-86.6584,"dy":0.0162,"dx":0.0185,"nx":115,"ny":88,"refTime":"2024-07-11T00:00:00:Z","depth":0,"parameterNumber":2,"parameterNumberName":"U-component_of_WINDS"},"data":[0.0,0.0,0.0,0.0,0.0,0.0,0.0,0.0,0.0,0.0,0.0,0.0,0.0,0.0,0.0,0.0,0.0,0.0,0.0,0.0,0.0,0.0,0.0,0.0,0.0,0.0,0.0,0.0,0.0,0.0,0.0,0.0,0.0,0.0,0.0,0.0,0.0,0.0,0.0,0.0,0.0,0.0,0.0,0.0,0.0,0.0,0.0,0.0,0.0,0.0,0.0,0.0,0.0,0.0,0.0,0.0,0.0,0.0,0.0,0.0,0.0,0.0,0.0,0.0,0.0,0.0,0.0,0.0,0.0,0.0,0.0,0.0,0.0,0.0,0.0,0.0,0.0,0.0,0.0,0.0,0.0,0.0,0.0,0.0,0.0,0.0,0.0,0.0,0.0,0.0,0.0,0.0,0.0,0.0,0.0,0.0,0.0,0.0,0.0,0.0,0.0,0.0,0.0,0.0,0.0,0.0,0.0,0.0,0.0,0.0,0.0,0.0,0.0,0.0,0.0,0.0,0.0,0.0,0.0,0.0,0.0,0.0,0.0,0.0,0.0,0.0,0.0,0.0,0.0,0.0,0.0,0.0,0.0,0.0,0.0,0.0,0.0,0.0,0.0,0.0,0.0,0.0,0.0,0.0,0.0,0.0,0.0,0.0,0.0,0.0,0.0,0.0,0.0,0.0,0.0,0.0,0.0,0.0,0.0,0.0,0.0,0.0,0.0,0.0,0.0,0.0,0.0,0.0,0.0,0.0,0.0,0.0,0.0,0.0,0.0,0.0,0.0,0.0,0.0,0.0,0.0,0.0,0.0,0.0,0.0,0.0,0.0,0.0,0.0,0.0,0.0,0.0,0.0,0.0,0.0,0.0,0.0,0.0,0.0,0.0,0.0,0.0,0.0,0.0,0.0,0.0,0.0,0.0,0.0,0.0,0.0,0.0,0.0,0.0,0.0,0.0,0.0,0.0,0.0,0.0,0.0,0.0,0.0,0.0,0.0,0.0,0.0,0.0,0.0,0.0,0.0,0.0,0.0,0.0,0.0,0.0,0.0,0.0,0.0,0.0,0.0,0.0,0.0,0.0,0.0,0.0,0.0,0.0,0.0,0.0,0.0,0.0,0.0,0.0,0.0,0.0,0.0,0.0,0.0,0.0,0.0,0.0,0.0,0.0,0.0,0.0,0.0,0.0,0.0,0.0,0.0,0.0,0.0,0.0,0.0,0.0,0.0,0.0,0.0,0.0,0.0,0.0,0.0,0.0,0.0,0.0,0.0,0.0,0.0,0.0,0.0,0.0,0.0,0.0,0.0,0.0,0.0,0.0,0.0,0.0,0.0,0.0,0.0,0.0,0.0,0.0,0.0,0.0,0.0,0.0,0.0,0.0,0.0,0.0,0.0,0.0,0.0,0.0,0.0,0.0,0.0,0.0,0.0,0.0,0.0,0.0,0.0,0.0,0.0,0.0,0.0,0.0,0.0,0.0,0.0,0.0,0.0,0.0,0.0,0.0,0.0,0.0,0.0,0.0,0.0,0.0,0.0,0.0,0.0,0.0,0.0,0.0,0.0,0.0,0.0,0.0,0.0,0.0,0.0,0.0,0.0,0.0,0.0,0.0,0.0,0.0,0.0,0.0,0.0,0.0,0.0,0.0,0.0,0.0,0.0,0.0,0.0,0.0,0.0,0.0,0.0,0.0,0.0,0.0,0.0,0.0,0.0,0.0,0.0,0.0,0.0,0.0,0.0,0.0,0.0,0.0,0.0,0.0,0.0,0.0,0.0,0.0,0.0,0.0,0.0,0.0,0.0,0.0,0.0,0.0,0.0,0.0,0.0,0.0,0.0,0.0,0.0,0.0,0.0,0.0,0.0,0.0,0.0,0.0,0.0,0.0,0.0,0.0,0.0,0.0,0.0,0.0,0.0,0.0,0.0,0.0,0.0,0.0,0.0,0.0,0.0,0.0,0.0,0.0,0.0,0.0,0.0,0.0,0.0,0.0,0.0,0.0,0.0,0.0,0.0,0.0,0.0,0.0,0.0,0.0,0.0,0.0,0.0,0.0,0.0,0.0,0.0,0.0,0.0,0.0,0.0,0.0,0.0,0.0,0.0,0.0,0.0,0.0,0.0,0.0,0.0,0.0,0.0,0.0,0.0,0.0,0.0,0.0,0.0,0.0,0.0,0.0,0.0,0.0,0.0,0.0,0.0,0.0,0.0,0.0,0.0,0.0,0.0,0.0,0.0,0.0,0.0,0.0,0.0,0.0,0.0,0.0,0.0,0.0,0.0,0.0,0.0,0.0,0.0,0.0,0.0,0.0,0.0,0.0,0.0,0.0,0.0,0.0,0.0,0.0,0.0,0.0,0.0,0.0,0.0,0.0,0.0,0.0,0.0,0.0,0.0,0.0,0.0,0.0,0.0,0.0,0.0,0.0,0.0,0.0,0.0,0.0,0.0,0.0,0.0,0.0,0.0,0.0,0.0,0.0,0.0,0.0,0.0,0.0,0.0,0.0,0.0,0.0,0.0,0.0,0.0,0.0,0.0,0.0,0.0,0.0,0.0,0.0,0.0,0.0,0.0,0.0,0.0,0.0,0.0,0.0,0.0,0.0,0.0,0.0,0.0,0.0,0.0,0.0,0.0,0.0,0.0,0.0,0.0,0.0,0.0,0.0,0.0,0.0,0.0,0.0,0.0,0.0,0.0,0.0,0.0,0.0,0.0,0.0,0.0,0.0,0.0,0.0,0.0,0.0,0.0,0.0,0.0,0.0,0.0,0.0,0.0,0.0,0.0,0.0,0.0,0.0,0.0,0.0,0.0,0.0,0.0,0.0,0.0,0.0,0.0,0.0,0.0,0.0,0.0,0.0,0.0,0.0,0.0,0.0,0.0,0.0,0.0,0.0,0.0,0.0,0.0,0.0,0.0,0.0,0.0,0.0,0.0,0.0,0.0,0.0,0.0,0.0,0.0,0.0,0.0,0.0,0.0,0.0,0.0,0.0,0.0,0.0,0.0,0.0,0.0,0.0,0.0,0.0,0.0,0.0,0.0,0.0,0.0,0.0,0.0,0.0,0.0,0.0,0.0,0.0,0.0,0.0,0.0,0.0,0.0,0.0,0.0,0.0,0.0,0.0,0.0,0.0,0.0,0.0,0.0,0.0,0.0,0.0,0.0,0.0,0.0,0.0,0.0,0.0,0.0,0.0,0.0,0.0,0.0,0.0,0.0,0.0,0.0,0.0,0.0,0.0,0.0,0.0,0.0,0.0,0.0,0.0,0.0,0.0,0.0,0.0,0.0,0.0,0.0,0.0,0.0,0.0,0.0,0.0,0.0,0.0,0.0,0.0,0.0,0.0,0.0,0.0,0.0,0.0,0.0,0.0,0.0,0.0,0.0,0.0,0.0,0.0,0.0,0.0,0.0,0.0,0.0,0.0,0.0,0.0,0.0,0.0,0.0,0.0,0.0,0.0,0.0,0.0,0.0,0.0,0.0,0.0,0.0,0.0,0.0,0.0,0.0,0.0,0.0,0.0,0.0,0.0,0.0,0.0,0.0,0.0,0.0,0.0,0.0,0.0,0.0,0.0,0.0,0.0,0.0,0.0,0.0,0.0,0.0,0.0,0.0,0.0,0.0,0.0,0.0,0.0,0.0,0.0,0.0,0.0,0.0,0.0,0.0,0.0,0.0,0.0,0.0,0.0,0.0,0.0,0.0,0.0,0.0,0.0,0.0,0.0,0.0,0.0,0.0,0.0,0.0,0.0,0.0,0.0,0.0,0.0,0.0,0.0,0.0,0.0,0.0,0.0,0.0,0.0,0.0,0.0,0.0,0.0,0.0,0.0,0.0,0.0,0.0,0.0,0.0,0.0,0.0,0.0,0.0,0.0,0.0,0.0,0.0,0.0,0.0,0.0,0.0,0.0,0.0,0.0,0.0,0.0,0.0,0.0,0.0,0.0,0.0,0.0,0.0,0.0,0.0,0.0,0.0,0.0,0.0,0.0,0.0,0.0,0.0,0.0,0.0,0.0,0.0,0.0,0.0,0.0,0.0,0.0,0.0,0.0,0.0,0.0,0.0,0.0,0.0,0.0,0.0,0.0,0.0,0.0,0.0,0.0,0.0,0.0,0.0,0.0,0.0,0.0,0.0,0.0,0.0,0.0,0.0,0.0,0.0,0.0,0.0,0.0,0.0,0.0,0.0,0.0,0.0,0.0,0.0,0.0,0.0,0.0,0.0,0.0,0.0,0.0,0.0,0.0,0.0,0.0,0.0,0.0,0.0,0.0,-1.6557,0.0,0.0,0.0,0.0,0.0,0.0,0.0,0.0,0.0,0.0,0.0,0.0,0.0,0.0,0.0,0.0,0.0,0.0,0.0,0.0,0.0,0.0,0.0,0.0,0.0,0.0,0.0,0.0,0.0,0.0,0.0,0.0,0.0,0.0,0.0,0.0,0.0,0.0,0.0,0.0,0.0,0.0,0.0,0.0,0.0,0.0,0.0,0.0,0.0,0.0,0.0,0.0,0.0,0.0,0.0,0.0,0.0,0.0,0.0,0.0,0.0,0.0,0.0,0.0,0.0,0.0,0.0,0.0,0.0,0.0,0.0,0.0,0.0,0.0,0.0,0.0,0.0,0.0,0.0,0.0,0.0,0.0,0.0,0.0,0.0,0.0,0.0,0.0,0.0,0.0,0.0,0.0,0.0,0.0,0.0,0.0,0.0,0.0,0.0,0.0,0.0,0.0,0.0,0.0,0.0,0.0,0.0,0.0,0.0,0.0,-1.9033,-1.8292,-1.8936,-1.8847,-1.7819,0.0,0.0,0.0,0.0,0.0,0.0,0.0,0.0,0.0,0.0,0.0,0.0,0.0,0.0,0.0,0.0,0.0,0.0,0.0,0.0,0.0,0.0,0.0,0.0,0.0,0.0,0.0,0.0,0.0,0.0,0.0,0.0,0.0,0.0,0.0,0.0,0.0,0.0,0.0,0.0,0.0,0.0,0.0,0.0,0.0,0.0,0.0,0.0,0.0,0.0,0.0,0.0,0.0,0.0,0.0,0.0,0.0,0.0,0.0,0.0,0.0,0.0,0.0,0.0,0.0,0.0,0.0,0.0,0.0,0.0,0.0,0.0,0.0,0.0,0.0,0.0,0.0,0.0,0.0,0.0,0.0,0.0,0.0,0.0,0.0,0.0,0.0,0.0,0.0,0.0,0.0,0.0,0.0,0.0,0.0,0.0,0.0,0.0,0.0,0.0,0.0,0.0,0.0,0.0,0.0,0.0,0.0,0.0,0.0,0.0,0.0,0.0,-2.0464,-2.0102,-1.8398,0.0,0.0,0.0,0.0,0.0,0.0,0.0,0.0,0.0,0.0,0.0,0.0,0.0,0.0,0.0,0.0,0.0,0.0,0.0,0.0,0.0,0.0,0.0,0.0,0.0,0.0,0.0,0.0,0.0,0.0,0.0,0.0,0.0,0.0,0.0,0.0,0.0,0.0,0.0,0.0,0.0,0.0,0.0,0.0,0.0,0.0,0.0,0.0,0.0,0.0,0.0,0.0,0.0,0.0,0.0,0.0,0.0,0.0,0.0,0.0,0.0,0.0,0.0,0.0,0.0,0.0,0.0,0.0,0.0,0.0,0.0,0.0,0.0,0.0,0.0,0.0,0.0,0.0,0.0,0.0,0.0,0.0,0.0,0.0,0.0,0.0,0.0,0.0,0.0,0.0,0.0,0.0,0.0,0.0,0.0,0.0,0.0,0.0,0.0,0.0,0.0,0.0,0.0,0.0,0.0,0.0,0.0,0.0,0.0,0.0,-2.1769,-2.1711,-2.1795,0.0,-1.7331,0.0,0.0,0.0,0.0,0.0,0.0,0.0,0.0,0.0,0.0,0.0,0.0,0.0,0.0,0.0,0.0,0.0,0.0,0.0,0.0,0.0,0.0,0.0,0.0,0.0,0.0,0.0,0.0,0.0,0.0,0.0,0.0,0.0,0.0,0.0,0.0,0.0,0.0,0.0,0.0,0.0,0.0,0.0,0.0,0.0,0.0,0.0,0.0,0.0,0.0,0.0,0.0,0.0,0.0,0.0,0.0,0.0,0.0,0.0,0.0,0.0,0.0,0.0,0.0,0.0,0.0,0.0,0.0,0.0,0.0,0.0,0.0,0.0,0.0,0.0,0.0,0.0,0.0,0.0,0.0,0.0,0.0,0.0,0.0,0.0,0.0,0.0,0.0,0.0,0.0,0.0,0.0,0.0,0.0,0.0,0.0,0.0,0.0,0.0,0.0,0.0,0.0,0.0,0.0,0.0,0.0,0.0,0.0,0.0,0.0,-2.3134,-2.2932,-2.2231,-2.0726,0.0,0.0,0.0,0.0,0.0,0.0,0.0,0.0,0.0,0.0,0.0,0.0,0.0,0.0,0.0,0.0,0.0,0.0,0.0,0.0,0.0,0.0,0.0,0.0,0.0,0.0,0.0,0.0,0.0,0.0,0.0,0.0,0.0,0.0,0.0,0.0,0.0,0.0,0.0,0.0,0.0,0.0,0.0,0.0,0.0,0.0,0.0,0.0,0.0,0.0,0.0,0.0,0.0,0.0,0.0,0.0,0.0,0.0,0.0,0.0,0.0,0.0,0.0,0.0,0.0,0.0,0.0,0.0,0.0,0.0,0.0,0.0,0.0,0.0,0.0,0.0,0.0,0.0,0.0,0.0,0.0,0.0,0.0,0.0,0.0,0.0,0.0,0.0,0.0,0.0,0.0,0.0,0.0,0.0,0.0,0.0,0.0,0.0,0.0,0.0,0.0,0.0,0.0,0.0,0.0,0.0,0.0,0.0,0.0,0.0,-2.447,0.0,-2.4185,-2.3241,-2.1711,-1.9482,0.0,0.0,0.0,0.0,0.0,0.0,0.0,0.0,0.0,0.0,0.0,0.0,0.0,0.0,0.0,0.0,0.0,0.0,0.0,0.0,0.0,0.0,0.0,0.0,0.0,0.0,0.0,0.0,0.0,0.0,0.0,0.0,0.0,0.0,0.0,0.0,0.0,0.0,0.0,0.0,0.0,0.0,0.0,0.0,0.0,0.0,0.0,0.0,0.0,0.0,0.0,0.0,0.0,0.0,0.0,0.0,0.0,0.0,0.0,0.0,0.0,0.0,0.0,0.0,0.0,0.0,0.0,0.0,0.0,0.0,0.0,0.0,0.0,0.0,0.0,0.0,0.0,0.0,0.0,0.0,0.0,0.0,0.0,0.0,0.0,0.0,0.0,0.0,0.0,0.0,0.0,0.0,0.0,0.0,0.0,0.0,0.0,0.0,0.0,0.0,0.0,0.0,0.0,0.0,0.0,0.0,0.0,0.0,0.0,-2.5841,-2.5791,-2.5691,-2.5382,-2.3437,0.0,0.0,0.0,0.0,0.0,0.0,0.0,0.0,0.0,0.0,0.0,0.0,0.0,0.0,0.0,0.0,0.0,0.0,0.0,0.0,0.0,0.0,0.0,0.0,0.0,0.0,0.0,0.0,0.0,0.0,0.0,0.0,0.0,0.0,0.0,0.0,0.0,0.0,0.0,0.0,0.0,0.0,0.0,0.0,0.0,0.0,0.0,0.0,0.0,0.0,0.0,0.0,0.0,0.0,0.0,0.0,0.0,0.0,0.0,0.0,0.0,0.0,0.0,0.0,0.0,0.0,0.0,0.0,0.0,0.0,0.0,0.0,0.0,0.0,0.0,0.0,0.0,0.0,0.0,0.0,0.0,0.0,0.0,0.0,0.0,0.0,0.0,0.0,0.0,0.0,0.0,0.0,0.0,0.0,0.0,0.0,0.0,0.0,0.0,0.0,0.0,0.0,0.0,0.0,0.0,0.0,0.0,0.0,0.0,-2.5729,-2.6477,-2.6861,-2.6869,-2.5609,-2.3631,0.0,0.0,0.0,0.0,0.0,0.0,0.0,0.0,0.0,0.0,0.0,0.0,0.0,0.0,0.0,0.0,0.0,0.0,0.0,0.0,0.0,0.0,0.0,0.0,0.0,0.0,0.0,0.0,0.0,0.0,0.0,0.0,0.0,0.0,0.0,0.0,0.0,0.0,0.0,0.0,0.0,0.0,0.0,0.0,0.0,0.0,0.0,0.0,0.0,0.0,0.0,0.0,0.0,0.0,0.0,0.0,0.0,0.0,0.0,0.0,0.0,0.0,0.0,0.0,0.0,0.0,0.0,0.0,0.0,0.0,0.0,0.0,0.0,0.0,0.0,0.0,0.0,0.0,0.0,0.0,0.0,0.0,0.0,0.0,0.0,0.0,0.0,0.0,0.0,0.0,0.0,0.0,0.0,0.0,0.0,0.0,0.0,0.0,0.0,0.0,0.0,0.0,0.0,0.0,0.0,0.0,0.0,0.0,0.0,-2.6005,0.0,-2.7784,0.0,-2.6039,-2.4201,0.0,0.0,0.0,0.0,0.0,0.0,0.0,0.0,0.0,0.0,0.0,0.0,0.0,0.0,0.0,0.0,0.0,0.0,0.0,0.0,0.0,0.0,0.0,0.0,0.0,0.0,0.0,0.0,0.0,0.0,0.0,0.0,0.0,0.0,0.0,0.0,0.0,0.0,0.0,0.0,0.0,0.0,0.0,0.0,0.0,0.0,0.0,0.0,0.0,0.0,0.0,0.0,0.0,0.0,0.0,0.0,0.0,0.0,0.0,0.0,0.0,0.0,0.0,0.0,0.0,0.0,0.0,0.0,0.0,0.0,0.0,0.0,0.0,0.0,0.0,0.0,0.0,0.0,0.0,0.0,0.0,0.0,0.0,0.0,0.0,0.0,0.0,0.0,0.0,0.0,0.0,0.0,0.0,0.0,0.0,0.0,0.0,0.0,0.0,0.0,0.0,0.0,0.0,0.0,0.0,0.0,0.0,0.0,-2.5371,-2.6878,-2.8389,-2.8521,-2.7187,-2.689,-2.5227,0.0,0.0,0.0,0.0,0.0,0.0,0.0,0.0,0.0,0.0,0.0,0.0,0.0,0.0,0.0,0.0,0.0,0.0,0.0,0.0,0.0,0.0,0.0,0.0,0.0,0.0,0.0,0.0,0.0,0.0,0.0,0.0,0.0,0.0,0.0,0.0,0.0,0.0,0.0,0.0,0.0,0.0,0.0,0.0,0.0,0.0,0.0,0.0,0.0,0.0,0.0,0.0,0.0,0.0,0.0,0.0,0.0,0.0,0.0,0.0,0.0,0.0,0.0,0.0,0.0,0.0,0.0,0.0,0.0,0.0,0.0,0.0,0.0,0.0,0.0,0.0,0.0,0.0,0.0,0.0,0.0,0.0,0.0,0.0,0.0,0.0,0.0,0.0,0.0,0.0,0.0,0.0,0.0,0.0,0.0,0.0,0.0,0.0,0.0,0.0,0.0,0.0,0.0,0.0,0.0,0.0,0.0,0.0,0.0,-2.7751,-2.9007,-2.9057,-2.7781,-2.7423,-2.587,0.0,0.0,0.0,0.0,0.0,0.0,0.0,0.0,0.0,0.0,0.0,0.0,0.0,0.0,0.0,0.0,0.0,0.0,0.0,0.0,0.0,0.0,0.0,0.0,0.0,0.0,0.0,0.0,0.0,0.0,0.0,0.0,0.0,0.0,0.0,0.0,0.0,0.0,0.0,0.0,0.0,0.0,0.0,0.0,0.0,0.0,0.0,0.0,0.0,0.0,0.0,0.0,0.0,0.0,0.0,0.0,0.0,0.0,0.0,0.0,0.0,0.0,0.0,0.0,0.0,0.0,0.0,0.0,0.0,0.0,0.0,0.0,0.0,0.0,0.0,0.0,0.0,0.0,0.0,0.0,0.0,0.0,0.0,0.0,0.0,0.0,0.0,0.0,0.0,0.0,0.0,0.0,0.0,0.0,0.0,0.0,0.0,0.0,0.0,0.0,0.0,0.0,0.0,0.0,0.0,0.0,0.0,0.0,0.0,-3.0408,-3.0913,-3.0776,-2.9883,-2.885,-2.6971,-2.4152,0.0,0.0,0.0,0.0,0.0,0.0,0.0,0.0,0.0,0.0,0.0,0.0,0.0,0.0,0.0,0.0,0.0,0.0,0.0,0.0,0.0,0.0,0.0,0.0,0.0,0.0,0.0,0.0,0.0,0.0,0.0,0.0,0.0,0.0,0.0,0.0,0.0,0.0,0.0,0.0,0.0,0.0,0.0,0.0,0.0,0.0,0.0,0.0,0.0,0.0,0.0,0.0,0.0,0.0,0.0,0.0,0.0,0.0,0.0,0.0,0.0,0.0,0.0,0.0,0.0,0.0,0.0,0.0,0.0,0.0,0.0,0.0,0.0,0.0,0.0,0.0,0.0,0.0,0.0,0.0,0.0,0.0,0.0,0.0,0.0,0.0,0.0,0.0,0.0,0.0,0.0,0.0,0.0,0.0,0.0,0.0,0.0,0.0,0.0,0.0,0.0,0.0,0.0,0.0,0.0,0.0,0.0,0.0,-3.4253,-3.3936,-3.349,-3.2983,-3.0923,-2.8506,0.0,0.0,0.0,0.0,0.0,0.0,0.0,0.0,0.0,0.0,0.0,0.0,0.0,0.0,0.0,0.0,0.0,0.0,0.0,0.0,0.0,0.0,0.0,0.0,0.0,0.0,0.0,0.0,0.0,0.0,0.0,0.0,0.0,0.0,0.0,0.0,0.0,0.0,0.0,0.0,0.0,0.0,0.0,0.0,0.0,0.0,0.0,0.0,0.0,0.0,0.0,0.0,0.0,0.0,0.0,0.0,0.0,0.0,0.0,0.0,0.0,0.0,0.0,0.0,0.0,0.0,0.0,0.0,0.0,0.0,0.0,0.0,0.0,0.0,0.0,0.0,0.0,0.0,0.0,0.0,0.0,0.0,0.0,0.0,0.0,0.0,0.0,0.0,0.0,0.0,0.0,0.0,0.0,0.0,0.0,0.0,0.0,0.0,0.0,0.0,0.0,0.0,0.0,0.0,0.0,0.0,0.0,0.0,0.0,-3.525,-3.6971,-3.6544,-3.3784,-3.1952,-2.9773,0.0,0.0,0.0,0.0,0.0,0.0,0.0,0.0,0.0,0.0,0.0,0.0,0.0,0.0,0.0,0.0,0.0,0.0,0.0,0.0,0.0,0.0,0.0,0.0,0.0,0.0,0.0,0.0,0.0,0.0,0.0,0.0,0.0,0.0,0.0,0.0,0.0,0.0,0.0,0.0,0.0,0.0,0.0,0.0,0.0,0.0,0.0,0.0,0.0,0.0,0.0,0.0,0.0,0.0,0.0,0.0,0.0,0.0,0.0,0.0,0.0,0.0,0.0,0.0,0.0,0.0,0.0,0.0,0.0,0.0,0.0,0.0,0.0,0.0,0.0,0.0,0.0,0.0,0.0,0.0,0.0,0.0,0.0,0.0,0.0,0.0,0.0,0.0,0.0,0.0,0.0,0.0,0.0,0.0,0.0,0.0,0.0,0.0,0.0,0.0,0.0,0.0,0.0,0.0,0.0,0.0,0.0,0.0,-3.551,-3.6233,-3.814,-3.7864,-3.5296,-3.3314,-3.0942,0.0,0.0,0.0,0.0,0.0,0.0,0.0,0.0,0.0,0.0,0.0,0.0,0.0,0.0,0.0,0.0,0.0,0.0,0.0,0.0,0.0,0.0,0.0,0.0,0.0,0.0,0.0,0.0,0.0,0.0,0.0,0.0,0.0,0.0,0.0,0.0,0.0,0.0,0.0,0.0,0.0,0.0,0.0,0.0,0.0,0.0,0.0,0.0,0.0,0.0,0.0,0.0,0.0,0.0,0.0,0.0,0.0,0.0,0.0,0.0,0.0,0.0,0.0,0.0,0.0,0.0,0.0,0.0,0.0,0.0,0.0,0.0,0.0,0.0,0.0,0.0,0.0,0.0,0.0,0.0,0.0,0.0,0.0,0.0,0.0,0.0,0.0,0.0,0.0,0.0,0.0,0.0,0.0,0.0,0.0,0.0,0.0,0.0,0.0,0.0,0.0,0.0,0.0,0.0,0.0,0.0,0.0,0.0,-3.6467,-3.7085,-3.8061,-3.8036,-3.6976,-3.4526,-3.1852,0.0,0.0,0.0,0.0,0.0,0.0,0.0,0.0,0.0,0.0,0.0,0.0,0.0,0.0,0.0,0.0,0.0,0.0,0.0,0.0,0.0,0.0,0.0,0.0,0.0,0.0,0.0,0.0,0.0,0.0,0.0,0.0,0.0,0.0,0.0,0.0,0.0,0.0,0.0,0.0,0.0,0.0,0.0,0.0,0.0,0.0,0.0,0.0,0.0,0.0,0.0,0.0,0.0,0.0,0.0,0.0,0.0,0.0,0.0,0.0,0.0,0.0,0.0,0.0,0.0,0.0,0.0,0.0,0.0,0.0,0.0,0.0,0.0,0.0,0.0,0.0,0.0,0.0,0.0,0.0,0.0,0.0,0.0,0.0,0.0,0.0,0.0,0.0,0.0,0.0,0.0,0.0,0.0,0.0,0.0,0.0,0.0,0.0,0.0,0.0,0.0,0.0,0.0,0.0,0.0,0.0,0.0,0.0,-3.6486,-3.7085,-3.7763,-3.7488,-3.6178,-3.3963,-3.1769,0.0,0.0,0.0,0.0,0.0,0.0,0.0,0.0,0.0,0.0,0.0,0.0,0.0,0.0,0.0,0.0,0.0,0.0,0.0,0.0,0.0,0.0,0.0,0.0,0.0,0.0,0.0,0.0,0.0,0.0,0.0,0.0,0.0,0.0,0.0,0.0,0.0,0.0,0.0,0.0,0.0,0.0,0.0,0.0,0.0,0.0,0.0,0.0,-2.2031,0.0,0.0,0.0,0.0,0.0,0.0,0.0,0.0,0.0,0.0,0.0,0.0,0.0,0.0,0.0,0.0,0.0,0.0,0.0,0.0,0.0,0.0,0.0,0.0,0.0,0.0,0.0,0.0,0.0,0.0,0.0,0.0,0.0,0.0,0.0,0.0,0.0,0.0,0.0,0.0,0.0,0.0,0.0,0.0,0.0,0.0,0.0,0.0,0.0,0.0,0.0,0.0,0.0,0.0,0.0,0.0,0.0,0.0,0.0,-3.6309,-3.7248,-3.6736,-3.6078,-3.5179,-3.3529,-3.172,0.0,0.0,0.0,0.0,0.0,0.0,0.0,0.0,0.0,0.0,0.0,0.0,0.0,0.0,0.0,0.0,0.0,0.0,0.0,0.0,0.0,0.0,0.0,0.0,0.0,0.0,0.0,0.0,0.0,0.0,0.0,0.0,0.0,0.0,0.0,0.0,0.0,0.0,0.0,0.0,0.0,0.0,0.0,0.0,0.0,0.0,0.0,0.0,0.0,0.0,0.0,0.0,0.0,0.0,0.0,0.0,0.0,0.0,0.0,0.0,0.0,0.0,0.0,0.0,0.0,0.0,0.0,0.0,0.0,0.0,0.0,0.0,0.0,0.0,0.0,0.0,0.0,0.0,0.0,0.0,0.0,0.0,0.0,0.0,0.0,0.0,0.0,0.0,0.0,0.0,0.0,0.0,0.0,0.0,0.0,0.0,0.0,0.0,0.0,0.0,0.0,0.0,0.0,0.0,0.0,0.0,0.0,-3.4738,-3.6145,-3.7642,-3.5788,-3.4561,-3.4335,-3.3119,-3.1545,-2.971,0.0,0.0,0.0,0.0,0.0,0.0,0.0,0.0,0.0,0.0,0.0,0.0,0.0,0.0,0.0,0.0,0.0,0.0,0.0,0.0,0.0,0.0,0.0,0.0,0.0,0.0,0.0,0.0,0.0,0.0,0.0,0.0,0.0,0.0,0.0,0.0,0.0,0.0,-2.0683,-2.297,0.0,0.0,0.0,0.0,0.0,0.0,0.0,0.0,-2.328,0.0,0.0,0.0,0.0,0.0,0.0,0.0,0.0,0.0,0.0,0.0,0.0,0.0,0.0,0.0,0.0,0.0,0.0,0.0,0.0,0.0,0.0,0.0,0.0,0.0,0.0,0.0,0.0,0.0,0.0,0.0,0.0,0.0,0.0,0.0,0.0,0.0,0.0,0.0,0.0,0.0,0.0,0.0,0.0,0.0,0.0,0.0,0.0,0.0,0.0,0.0,0.0,0.0,0.0,0.0,0.0,-3.5998,-3.5044,-3.6022,-3.9071,-3.6262,-3.4541,-3.4108,-3.2561,-3.0798,-2.8967,0.0,0.0,0.0,0.0,0.0,0.0,0.0,0.0,0.0,0.0,0.0,0.0,0.0,0.0,0.0,0.0,0.0,0.0,0.0,0.0,0.0,0.0,0.0,0.0,0.0,0.0,0.0,0.0,0.0,0.0,0.0,0.0,0.0,0.0,0.0,0.0,0.0,0.0,0.0,-2.5303,-2.6726,0.0,0.0,0.0,0.0,0.0,0.0,0.0,0.0,-2.5052,0.0,0.0,0.0,0.0,0.0,0.0,0.0,0.0,0.0,0.0,0.0,0.0,0.0,0.0,0.0,0.0,0.0,0.0,0.0,0.0,0.0,0.0,0.0,0.0,0.0,0.0,0.0,0.0,0.0,0.0,0.0,0.0,0.0,0.0,0.0,0.0,0.0,0.0,0.0,0.0,0.0,0.0,0.0,0.0,0.0,0.0,0.0,0.0,0.0,0.0,0.0,0.0,0.0,0.0,0.0,-3.5103,-3.5359,-3.6364,-3.8196,-3.5942,-3.4294,-3.3515,-3.2179,-3.0611,0.0,0.0,0.0,0.0,0.0,0.0,0.0,0.0,0.0,0.0,0.0,0.0,0.0,0.0,0.0,0.0,0.0,0.0,0.0,0.0,0.0,0.0,0.0,0.0,0.0,0.0,0.0,0.0,0.0,0.0,0.0,0.0,0.0,0.0,0.0,0.0,0.0,0.0,0.0,0.0,-2.8121,-2.958,-2.9948,0.0,0.0,0.0,0.0,0.0,0.0,-2.6377,-2.5537,0.0,0.0,0.0,0.0,0.0,0.0,0.0,0.0,0.0,0.0,0.0,0.0,0.0,0.0,0.0,0.0,0.0,0.0,0.0,0.0,0.0,0.0,0.0,0.0,0.0,0.0,0.0,0.0,0.0,0.0,0.0,0.0,0.0,0.0,0.0,0.0,0.0,0.0,0.0,0.0,0.0,0.0,0.0,0.0,0.0,0.0,0.0,0.0,0.0,0.0,0.0,0.0,0.0,0.0,0.0,-3.4002,-3.5293,-3.6327,-3.702,-3.534,-3.3958,-3.3093,-3.1709,-3.0336,0.0,0.0,0.0,0.0,0.0,0.0,0.0,0.0,0.0,0.0,0.0,0.0,0.0,0.0,0.0,0.0,0.0,0.0,0.0,0.0,0.0,0.0,0.0,0.0,0.0,0.0,0.0,0.0,0.0,0.0,0.0,0.0,0.0,0.0,0.0,0.0,0.0,0.0,0.0,0.0,0.0,-3.2063,-3.2037,-3.1663,0.0,0.0,0.0,0.0,-2.7385,-2.6738,0.0,0.0,0.0,0.0,0.0,0.0,0.0,0.0,0.0,0.0,0.0,0.0,0.0,0.0,0.0,0.0,0.0,0.0,0.0,0.0,0.0,0.0,0.0,0.0,0.0,0.0,0.0,0.0,0.0,0.0,0.0,0.0,0.0,0.0,0.0,0.0,0.0,0.0,0.0,0.0,0.0,0.0,0.0,0.0,0.0,0.0,0.0,0.0,0.0,0.0,0.0,0.0,0.0,0.0,0.0,0.0,-3.3931,-3.4155,-3.5084,-3.6698,-3.4606,-3.3453,-3.3556,-3.0802,-2.9411,0.0,0.0,0.0,0.0,0.0,0.0,0.0,0.0,0.0,0.0,0.0,0.0,0.0,0.0,0.0,0.0,0.0,0.0,0.0,0.0,0.0,0.0,0.0,0.0,0.0,0.0,0.0,0.0,0.0,0.0,0.0,0.0,0.0,0.0,0.0,0.0,0.0,0.0,0.0,0.0,0.0,-3.2579,-3.2203,-3.1715,-3.1145,0.0,0.0,-2.9553,-2.876,-2.8746,0.0,0.0,0.0,0.0,0.0,0.0,0.0,0.0,0.0,0.0,0.0,0.0,0.0,0.0,0.0,0.0,0.0,0.0,0.0,0.0,0.0,0.0,0.0,0.0,0.0,0.0,0.0,0.0,0.0,0.0,0.0,0.0,0.0,0.0,0.0,0.0,0.0,0.0,0.0,0.0,0.0,0.0,0.0,0.0,0.0,0.0,0.0,0.0,0.0,0.0,0.0,0.0,0.0,0.0,0.0,-3.0761,-3.328,-3.4394,-3.5148,-3.5461,-3.4349,-3.3529,-3.3089,-3.0815,-2.9458,0.0,0.0,0.0,0.0,0.0,0.0,0.0,0.0,0.0,0.0,0.0,0.0,0.0,0.0,0.0,0.0,0.0,0.0,0.0,0.0,0.0,0.0,0.0,0.0,0.0,0.0,0.0,0.0,0.0,0.0,0.0,0.0,0.0,0.0,0.0,0.0,0.0,0.0,0.0,0.0,0.0,0.0,-3.308,-3.2919,0.0,0.0,0.0,-3.0249,-2.8754,0.0,0.0,0.0,0.0,0.0,0.0,0.0,0.0,0.0,0.0,0.0,0.0,0.0,0.0,0.0,0.0,0.0,0.0,0.0,0.0,0.0,0.0,0.0,0.0,0.0,0.0,0.0,0.0,0.0,0.0,0.0,0.0,0.0,0.0,0.0,0.0,0.0,0.0,0.0,0.0,0.0,0.0,0.0,0.0,0.0,0.0,0.0,0.0,0.0,0.0,0.0,0.0,0.0,0.0,0.0,0.0,0.0,-3.2453,-3.4639,-3.5416,-3.4683,-3.4302,-3.3744,-3.2884,-3.1201,0.0,0.0,0.0,0.0,0.0,0.0,0.0,0.0,0.0,0.0,0.0,0.0,0.0,0.0,0.0,0.0,0.0,0.0,0.0,0.0,0.0,0.0,0.0,0.0,0.0,0.0,0.0,-2.0274,0.0,0.0,0.0,0.0,0.0,0.0,0.0,0.0,0.0,0.0,0.0,0.0,0.0,0.0,-3.307,-3.3339,-3.3466,-3.3322,0.0,0.0,-3.0452,-2.8816,-2.9309,-2.8992,0.0,0.0,0.0,0.0,0.0,0.0,0.0,0.0,0.0,0.0,0.0,0.0,0.0,0.0,0.0,0.0,0.0,0.0,0.0,0.0,0.0,0.0,0.0,0.0,0.0,0.0,0.0,0.0,0.0,0.0,0.0,0.0,0.0,0.0,0.0,0.0,0.0,0.0,0.0,0.0,0.0,0.0,0.0,0.0,0.0,0.0,0.0,0.0,0.0,0.0,0.0,0.0,0.0,0.0,0.0,-3.1529,-3.4284,-3.5601,-3.5397,-3.4461,-3.3825,-3.3618,-3.1844,-3.0157,0.0,0.0,0.0,0.0,0.0,0.0,0.0,0.0,0.0,0.0,0.0,0.0,0.0,0.0,0.0,0.0,0.0,0.0,0.0,0.0,0.0,0.0,0.0,0.0,0.0,0.0,0.0,0.0,0.0,0.0,0.0,0.0,0.0,0.0,0.0,0.0,0.0,0.0,0.0,0.0,0.0,-3.2924,-3.2305,-3.2279,-3.2608,0.0,0.0,-3.0058,-2.9294,-2.9963,-2.9499,-2.6306,0.0,0.0,0.0,0.0,0.0,0.0,0.0,0.0,0.0,0.0,0.0,0.0,0.0,0.0,0.0,0.0,0.0,0.0,0.0,0.0,0.0,0.0,0.0,0.0,0.0,0.0,0.0,0.0,0.0,0.0,0.0,0.0,0.0,0.0,0.0,0.0,0.0,0.0,0.0,0.0,0.0,0.0,0.0,0.0,0.0,0.0,0.0,0.0,0.0,0.0,0.0,0.0,0.0,-3.0163,-3.1388,-3.3301,-3.4638,-3.537,-3.4358,-3.3943,-3.4295,-3.2083,-3.0289,0.0,0.0,0.0,0.0,0.0,0.0,0.0,0.0,0.0,0.0,0.0,0.0,0.0,0.0,0.0,0.0,0.0,0.0,0.0,0.0,0.0,0.0,0.0,0.0,0.0,0.0,0.0,0.0,-2.2724,-2.2782,-2.3099,0.0,0.0,0.0,0.0,0.0,0.0,0.0,0.0,0.0,0.0,-3.3014,-3.2996,-3.3246,0.0,0.0,-3.2154,-3.1084,-3.0106,-3.0073,-2.9384,-2.7046,-2.6632,0.0,0.0,0.0,0.0,0.0,0.0,0.0,0.0,0.0,0.0,0.0,0.0,0.0,0.0,0.0,0.0,0.0,0.0,0.0,0.0,0.0,0.0,0.0,0.0,0.0,0.0,0.0,0.0,0.0,0.0,0.0,0.0,0.0,0.0,0.0,0.0,0.0,0.0,0.0,0.0,0.0,0.0,0.0,0.0,0.0,0.0,0.0,0.0,0.0,0.0,0.0,0.0,-2.9589,-3.0621,-3.2599,-3.397,-3.4627,-3.4054,-3.3734,-3.3693,-3.1775,-2.9963,0.0,0.0,0.0,0.0,0.0,0.0,0.0,0.0,0.0,0.0,0.0,0.0,0.0,0.0,0.0,0.0,0.0,0.0,0.0,0.0,0.0,0.0,0.0,0.0,0.0,0.0,0.0,0.0,-2.3223,-2.2973,-2.3406,0.0,0.0,0.0,0.0,0.0,0.0,0.0,0.0,0.0,0.0,-3.2955,-3.2765,-3.3059,-3.2934,-3.1895,-3.1581,-3.1088,-3.0242,-2.9833,-2.9146,-2.7731,0.0,0.0,0.0,0.0,0.0,0.0,0.0,0.0,0.0,0.0,0.0,0.0,0.0,0.0,0.0,0.0,0.0,0.0,0.0,0.0,0.0,0.0,0.0,0.0,0.0,0.0,0.0,0.0,0.0,0.0,-2.4303,0.0,0.0,0.0,0.0,0.0,0.0,0.0,0.0,0.0,0.0,0.0,0.0,0.0,0.0,0.0,0.0,0.0,0.0,0.0,0.0,0.0,0.0,-2.8806,-2.8907,-3.2315,-3.3744,-3.3007,-3.3448,-3.3008,-3.1748,-3.079,-2.9016,-2.6236,0.0,0.0,0.0,0.0,0.0,0.0,0.0,0.0,0.0,0.0,0.0,0.0,0.0,0.0,0.0,0.0,0.0,0.0,0.0,0.0,0.0,0.0,0.0,0.0,0.0,0.0,-2.2638,-2.2556,-2.3072,0.0,0.0,0.0,0.0,0.0,0.0,0.0,0.0,0.0,0.0,-3.2049,-3.2746,-3.1051,-3.1225,-3.1216,-3.0065,-2.9754,-2.9603,-2.9536,-2.9242,-2.8826,0.0,0.0,0.0,0.0,0.0,0.0,0.0,0.0,0.0,0.0,0.0,0.0,0.0,0.0,0.0,0.0,0.0,0.0,0.0,0.0,0.0,0.0,0.0,0.0,0.0,0.0,0.0,-2.6738,-2.5189,0.0,0.0,0.0,0.0,0.0,0.0,0.0,0.0,0.0,0.0,0.0,-2.9825,-2.9626,0.0,0.0,0.0,0.0,0.0,0.0,0.0,0.0,0.0,0.0,0.0,0.0,-2.8325,-2.8872,-3.0924,-3.2033,-3.2087,-3.173,-3.1292,-3.0775,-2.9486,-2.7308,-2.4222,0.0,0.0,0.0,0.0,0.0,0.0,0.0,0.0,0.0,0.0,0.0,0.0,0.0,0.0,0.0,0.0,0.0,0.0,0.0,0.0,0.0,0.0,0.0,0.0,0.0,-2.5025,0.0,0.0,0.0,0.0,0.0,0.0,0.0,0.0,0.0,0.0,0.0,-3.0942,-3.1076,-3.1366,-3.1343,-3.0658,-3.0876,-3.1033,0.0,0.0,0.0,0.0,0.0,0.0,0.0,0.0,0.0,0.0,0.0,0.0,0.0,0.0,-2.6653,-2.5536,-2.5649,-2.5904,-2.5848,0.0,0.0,0.0,0.0,0.0,0.0,0.0,0.0,0.0,0.0,0.0,0.0,0.0,0.0,-2.8166,0.0,-2.4699,0.0,0.0,0.0,0.0,0.0,0.0,0.0,0.0,-3.0286,-3.0973,-3.1044,-3.0871,-3.0791,0.0,-2.9567,-2.8682,0.0,0.0,0.0,0.0,0.0,0.0,0.0,0.0,-2.7921,-2.8363,-2.9782,-3.045,-3.025,-2.9898,-2.9527,-2.9095,-2.7618,-2.5711,-2.333,-2.2757,-2.2017,0.0,0.0,0.0,0.0,0.0,0.0,0.0,0.0,0.0,0.0,0.0,0.0,0.0,0.0,0.0,0.0,0.0,0.0,0.0,0.0,0.0,0.0,0.0,-2.5863,0.0,0.0,0.0,0.0,0.0,0.0,0.0,0.0,0.0,-3.0097,-3.1013,-3.1585,-3.1368,-3.1419,-3.1228,-3.0437,0.0,0.0,0.0,0.0,0.0,0.0,0.0,-2.804,-2.7868,-2.7812,-2.7858,-2.8001,-2.8273,-2.8426,-2.8426,0.0,0.0,-2.6703,-2.6779,-2.71,-2.724,-2.7322,-2.7367,-2.7618,-2.77,-2.7713,0.0,0.0,0.0,0.0,0.0,0.0,0.0,0.0,-2.9449,-2.9083,0.0,-2.6425,0.0,0.0,0.0,0.0,0.0,-2.8362,0.0,0.0,-3.1741,-3.2317,-3.1896,-3.186,-3.1875,-3.1783,-3.1731,-3.1351,-3.0611,-2.8637,0.0,0.0,0.0,0.0,0.0,0.0,-2.7657,-2.75,-2.8999,-2.9093,-2.7557,-2.8068,-2.7823,-2.6694,-2.5302,-2.4238,-2.3509,-2.2872,-2.2389,-2.2204,-2.0962,0.0,0.0,0.0,0.0,0.0,0.0,0.0,0.0,0.0,0.0,0.0,0.0,0.0,0.0,0.0,0.0,0.0,0.0,0.0,0.0,-2.6613,0.0,0.0,0.0,0.0,0.0,0.0,0.0,0.0,0.0,0.0,-2.9459,-3.114,-3.2109,-3.1065,0.0,0.0,0.0,0.0,-3.0333,-2.8923,-2.8525,-2.8381,-2.8421,-2.8558,-2.8897,-2.9368,0.0,0.0,-2.9497,-2.888,-2.8515,-2.8489,-2.8711,-2.8787,-2.8247,-2.8147,-2.8233,-2.8404,-2.8404,-2.8464,-2.8643,-2.863,-2.863,-3.4019,0.0,0.0,0.0,0.0,-3.0101,-3.0119,-3.026,-3.0064,-2.9516,-2.8718,-2.9362,0.0,0.0,0.0,0.0,0.0,0.0,-3.012,-3.056,-3.1284,-3.1689,-3.1819,-3.1819,-3.1837,-3.18,-3.18,-3.1642,-3.1328,-3.0745,-2.9282,-2.7095,0.0,0.0,0.0,0.0,-2.7408,-2.7692,-2.8219,-2.7745,-2.625,-2.6414,-2.6079,-2.5201,-2.4359,-2.3717,-2.3378,-2.3186,-2.2745,-2.2105,-2.1684,0.0,0.0,0.0,0.0,0.0,0.0,0.0,0.0,0.0,0.0,0.0,0.0,0.0,0.0,0.0,0.0,0.0,0.0,0.0,-2.745,-2.7653,-2.7343,0.0,0.0,0.0,0.0,0.0,0.0,0.0,0.0,0.0,-3.0178,-3.0888,-3.1199,0.0,0.0,-2.9839,-2.8768,-2.9374,-2.9901,-2.9889,-2.9591,0.0,0.0,-2.9535,-2.9162,-2.9319,-2.9455,-2.9523,-2.9287,-2.9365,-2.9391,-2.9378,-2.9517,-2.949,-2.9365,-2.9302,-2.9302,-2.9391,-2.9391,-2.9467,-2.9668,-2.9656,-2.9656,-3.6079,-3.3852,-3.2412,-3.1613,-3.1275,-3.0737,-3.058,-3.073,-3.0803,-3.0387,-2.9748,-3.0907,-3.0041,-2.7776,-2.7503,0.0,0.0,0.0,-3.0491,-3.1035,-3.1219,-3.1443,-3.1671,-3.1688,-3.1688,-3.1688,-3.1688,-3.1634,-3.1542,-3.1268,-3.0276,-2.8629,0.0,0.0,-2.7878,-2.7677,-2.7514,-2.7414,-2.7552,-2.6888,-2.5416,-2.5098,-2.4744,-2.4313,-2.3824,-2.3494,-2.3304,-2.3246,-2.2937,-2.2381,-2.212,-2.1772,0.0,0.0,0.0,0.0,0.0,0.0,0.0,0.0,0.0,0.0,0.0,-2.1987,-2.0975,0.0,0.0,0.0,-2.5538,-2.7122,-2.7846,-2.7819,0.0,0.0,0.0,0.0,0.0,0.0,0.0,-2.8326,-2.9482,-3.0322,-3.0336,-3.0712,-3.094,-3.0777,-3.0438,-2.989,-2.909,0.0,-3.0119,-3.0227,-2.9963,-2.9804,-3.0148,-2.9908,-2.9621,-2.9697,-2.9494,-2.9287,-2.915,-2.9126,-2.9126,-2.9151,-2.9302,-2.944,-2.944,-2.9616,-2.9779,-2.9779,-2.9779,-2.9869,-2.9934,-2.9998,-3.0011,-3.7153,-3.6624,-3.4375,-3.3136,-3.2654,-3.1427,-3.1129,-3.15,-3.147,-3.147,-3.1445,-3.1268,-3.0514,-2.9312,-2.8647,0.0,-2.9397,-3.0114,-3.0868,-3.15,-3.15,-3.15,-3.15,-3.15,-3.15,-3.15,-3.15,-3.1517,-3.1445,-3.0796,-3.0438,-3.0296,-2.9849,-2.9254,-2.8531,-2.8288,-2.7731,-2.6863,-2.691,-2.6271,-2.4871,-2.4147,-2.3797,-2.3797,-2.3581,-2.3451,-2.3334,-2.3157,-2.3037,-2.2873,-2.2381,-2.2309,-2.2773,0.0,0.0,0.0,0.0,0.0,0.0,0.0,0.0,0.0,0.0,0.0,0.0,0.0,0.0,0.0,-2.7332,0.0,-2.8473,-2.7564,0.0,0.0,0.0,-2.8177,-2.8666,-2.9323,-2.9707,-2.9588,0.0,0.0,-3.0083,-3.0565,-3.113,-3.1736,-3.1764,-3.1364,-3.0555,-3.0726,-3.0801,-3.0277,-2.9874,-2.9605,-2.9755,-2.9804,-2.9952,-2.9995,-2.9642,-2.9062,-2.8875,-2.8486,-2.816,-2.8185,-2.8536,-2.8863,-2.8863,-2.9264,-2.9654,-2.9591,-2.9704,-2.9792,-2.9779,-2.9792,-2.9767,-3.7744,-3.7017,-3.5772,-3.4429,-3.3001,-3.1746,-3.1278,-3.1351,-3.1291,-3.1252,-3.1269,-3.1223,-3.1036,-3.0726,-3.0598,-3.0653,-3.0823,-3.1121,-3.1346,-3.15,-3.15,-3.15,-3.15,-3.15,-3.15,-3.15,-3.15,-3.1462,-3.1334,-3.1181,-3.0615,-2.9727,-2.9255,-2.8843,-2.8574,-2.7486,-2.7013,-2.7112,-2.6204,-2.5261,-2.4405,-2.4009,-2.3797,-2.3797,-2.3581,-2.3422,-2.3319,-2.3157,-2.3037,-2.2888,-2.2847,-2.2703,-2.2367,-2.1613,0.0,0.0,0.0,0.0,0.0,0.0,0.0,0.0,0.0,-2.3336,-2.2309,0.0,-2.559,0.0,-2.7209,-2.866,-2.9377,-2.9139,0.0,0.0,-2.9114,-2.9218,-2.9007,-3.0129,-3.0639,-2.9621,-3.0392,-3.1005,-3.1005,-3.0988,-3.1229,-3.1784,-3.1178,-3.0637,-3.0432,-3.078,-3.0962,-3.077,-3.0751,-3.0692,-3.0158,-2.964,-2.9235,-2.8902,-2.874,-2.8505,-2.8298,-2.8197,-2.8109,-2.8109,-2.8197,-2.8298,-2.831,-2.8423,-2.8511,-2.8574,-2.9189,-2.9779,-2.9779,-2.9767,-2.9654,-3.8081,-3.758,-3.6363,-3.4883,-3.328,-3.2265,-3.1409,-3.0794,-3.115,-3.1116,-3.0751,-3.1055,-3.119,-3.1173,-3.1252,-3.1235,-3.1235,-3.1308,-3.1363,-3.1363,-3.1363,-3.1346,-3.1346,-3.1346,-3.1363,-3.1346,-3.1363,-3.1346,-3.1235,-3.1235,-3.0819,-2.9938,-2.9466,-2.8923,-2.8274,-2.7076,-2.6432,-2.6291,-2.5195,-2.4569,-2.4438,-2.3947,-2.3561,-2.3233,-2.3063,-2.2743,-2.2392,-2.2249,-2.212,-2.2077,-2.244,-2.263,-2.2498,-2.2098,-2.1798,0.0,0.0,0.0,0.0,0.0,0.0,0.0,0.0,0.0,0.0,0.0,-2.6704,-2.6699,-2.7755,-2.8674,-2.9183,-2.8928,-2.8769,-2.8893,-2.9341,-2.9624,-2.9597,-3.091,-3.1502,-3.0786,-3.1273,-3.1694,-3.155,-3.1249,-3.111,-3.1374,-3.0694,-3.0387,-3.0774,-3.0646,-3.0481,-3.0677,-3.0553,-3.0256,-2.983,-2.9256,-2.8749,-2.8435,-2.81,-2.7864,-2.7733,-2.7532,-2.7381,-2.7394,-2.757,-2.7733,-2.7745,-2.7886,-2.7938,-2.8025,-2.8363,-2.8837,-2.8963,-2.9038,-2.8925,-3.8252,-3.7972,-3.6612,-3.515,-3.3653,-3.2999,-3.1669,-3.0006,-3.0815,-3.0815,-3.0298,-3.0818,-3.1106,-3.119,-3.119,-3.119,-3.119,-3.119,-3.119,-3.119,-3.119,-3.119,-3.119,-3.119,-3.119,-3.119,-3.1151,-3.1095,-3.1072,-3.1015,-3.0707,-3.0161,-2.9735,-2.8898,-2.7668,-2.6793,-2.5952,-2.519,-2.4349,-2.4173,-2.4626,-2.3803,-2.3001,-2.2396,-2.2226,-2.1877,-2.1237,-2.1172,-2.1133,-2.1148,-2.19,-2.2542,-2.3006,-2.2658,-2.2687,0.0,-2.276,0.0,0.0,0.0,0.0,0.0,0.0,0.0,0.0,-2.7016,-2.8273,-2.8471,-2.8502,-2.8541,-2.8555,-2.8092,-2.7963,-2.8483,-2.9077,-2.9659,-3.0282,-3.1257,-3.1951,-3.1951,-3.1951,-3.1807,-3.1653,-3.1178,-3.0713,-3.053,-3.005,-3.0037,-3.091,-3.0321,-2.9839,-3.0243,-2.9679,-2.9138,-2.8847,-2.8569,-2.8336,-2.8083,-2.7612,-2.718,-2.7168,-2.6816,-2.6477,-2.6527,-2.6822,-2.7097,-2.711,-2.7341,-2.7543,-2.7505,-2.7397,-2.7495,-2.7902,-2.805,-2.7925,-3.7845,-3.725,-3.722,-3.613,-3.4443,-3.3938,-3.1983,-2.9194,-2.9384,-3.0051,-3.0925,-3.0484,-3.0649,-3.1173,-3.119,-3.119,-3.119,-3.119,-3.119,-3.119,-3.119,-3.119,-3.119,-3.119,-3.119,-3.119,-3.0838,-3.0559,-3.0493,-3.0081,-2.9339,-2.8265,-2.8131,-2.7531,-2.6413,0.0,0.0,0.0,-2.4744,-2.44,-2.3963,-2.2596,-2.1832,-2.1713,-2.1521,0.0,-2.1237,-2.1609,-2.1815,-2.183,-2.2513,0.0,0.0,0.0,0.0,0.0,0.0,0.0,0.0,0.0,0.0,0.0,-2.4501,-2.4955,-2.5149,-2.6913,-2.8267,-2.8828,-2.8898,-2.8933,-2.8926,-2.8782,-2.8807,-2.8917,-2.9,-2.9389,-3.0035,-3.0317,-3.0438,-3.0674,-3.0535,-3.0368,-3.0478,-3.0107,-2.9857,-2.9746,-2.9131,-2.8996,-2.9639,-2.9592,-2.957,-2.9663,-2.8908,-2.8221,-2.7915,-2.7418,-2.7145,-2.688,-2.6785,-2.6697,-2.6628,-2.6578,-2.6465,-2.627,-2.6357,-2.6375,-2.6223,-2.6214,-2.635,-2.6288,-2.623,-2.6451,-2.7434,-2.7619,-2.7495,-3.7359,0.0,-3.631,-3.5295,0.0,-3.3024,-3.1198,-2.8918,-2.8955,-2.9336,-2.9945,-3.0342,-3.0718,-3.1055,-3.0723,-3.0555,-3.0538,-3.0184,-3.0217,-3.0555,-3.0533,-3.0679,-3.1072,-3.1072,-3.0935,-3.0642,-3.0096,-2.9847,-2.9816,-2.9274,-2.8761,-2.8217,-2.8217,-2.7736,-2.6907,-2.6796,-2.6512,-2.5879,-2.5093,-2.4657,-2.4537,-2.324,-2.228,-2.1875,0.0,0.0,0.0,0.0,0.0,0.0,0.0,0.0,0.0,0.0,0.0,-2.4028,-2.3814,-2.3596,-2.343,-2.3523,-2.3622,-2.3905,-2.4797,-2.5684,-2.6438,-2.7411,-2.826,-2.8923,-2.8761,-2.8538,-2.857,-2.8532,-2.8552,-2.8559,-2.8852,-2.9159,-2.9495,-2.9789,-2.9963,-3.0115,-3.0046,-2.9894,-2.9824,-2.9406,-2.9065,-2.8874,-2.8265,-2.7962,-2.8179,-2.8425,-2.8536,-2.8481,-2.7997,-2.7434,-2.7189,-2.6929,-2.6645,-2.6521,-2.6521,-2.6452,-2.6408,-2.6327,-2.627,-2.6131,-2.6062,-2.598,-2.591,-2.584,-2.5758,-2.5758,-2.5676,-2.5727,-2.6299,-2.6541,-2.6623,-3.6761,-3.6642,-3.5297,-3.4216,-3.3318,-3.2008,-3.0615,-2.9194,0.0,0.0,0.0,-3.0269,-3.0818,-3.0861,-3.0337,-3.009,-3.0056,-2.9429,-2.9479,-3.0051,-3.0007,-3.0302,-3.0912,-3.0912,-3.0567,-2.991,-2.9263,-2.8962,-2.8857,-2.8271,-2.8021,-2.814,-2.8139,-2.7917,-2.7379,-2.723,-2.6961,-2.6504,-2.5255,-2.4744,-2.5127,-2.3807,-2.2743,-2.2015,-2.2469,-2.244,-2.1859,-2.2497,-2.2888,-2.2917,-2.3751,-2.4203,-2.4239,-2.4718,-2.4776,-2.432,-2.4679,-2.4476,-2.354,-2.4015,-2.4189,-2.3878,-2.4896,-2.6113,-2.7429,-2.7734,-2.8165,-2.8657,-2.83,-2.8013,-2.8013,-2.8013,-2.8013,-2.8027,-2.8439,-2.8718,-2.8812,-2.9198,-2.9451,-2.9587,-2.9451,-2.9435,-2.9174,-2.8736,-2.8337,-2.7984,-2.7537,-2.7227,-2.7211,-2.7411,-2.752,-2.7317,-2.7169,-2.6901,-2.6739,-2.6602,-2.6589,-2.6452,-2.6383,-2.6327,-2.6201,-2.6131,-2.6062,-2.5898,-2.5828,-2.5828,-2.5828,-2.5676,-2.5535,-2.5535,-2.5382,-2.5312,-2.5312,-2.5548,-2.5795,-3.5983,-3.5915,-3.5341,-3.4516,-3.3441,-3.2824,-3.1844,-3.0599,-2.9357,-2.9501,-3.0649,-3.0096,-3.0252,-3.0895,-3.0811,-3.0744,-3.0744,-3.0644,-3.066,0.0,-3.0744,-3.0811,-3.0912,-3.0912,-3.0325,-2.9272,-2.8725,-2.7965,-2.6923,-2.6427,-2.6091,-2.6057,-2.601,-2.5978,-2.5726,-2.566,-2.5568,-2.5512,-2.4862,-2.4459,-2.4336,-2.2496,-2.1501,-2.1372,-2.1362,-2.1249,-2.1162,-2.2323,-2.2888,-2.2917,-2.408,-2.495,-2.5473,-2.5089,-2.5103,-2.5516,-2.4745,-2.4231,-2.416,-2.38,-2.3569,-2.3667,-2.4278,-2.5091,-2.6034,-2.6972,-2.763,-2.7709,-2.7656,-2.7603,-2.7603,-2.759,-2.7603,-2.759,-2.7655,-2.7788,-2.7947,-2.796,-2.8065,-2.8346,-2.8053,-2.7878,-2.7863,-2.7704,-2.7449,-2.7207,-2.7101,-2.7024,-2.7037,-2.713,-2.713,-2.6875,-2.6782,-2.6658,-2.6533,-2.6396,-2.6258,-2.627,-2.6119,-2.6037,-2.598,-2.598,-2.5898,-2.5676,-2.5676,-2.5606,-2.5453,-2.537,-2.5312,-2.53,-2.5241,-2.5241,-2.5241,-2.5312,-2.5382,-3.5168,-3.5015,-3.4064,-3.353,-3.3263,-3.2154,-3.1415,-3.0878,-3.0185,-3.0185,-3.0667,-3.0379,-3.0416,-3.0642,-3.0332,-3.0206,-3.0189,-2.9788,-2.9822,-3.0189,-3.0132,-3.0186,-3.026,-2.993,-2.9202,-2.8128,-2.7182,-2.6492,-2.6001,-2.5409,-2.5287,-2.5585,-2.5521,-2.5411,-2.5331,-2.5346,-2.525,-2.5188,-2.4663,-2.4323,-2.4141,-2.2878,-2.2221,-2.212,-2.2425,-2.2511,-2.2392,-2.3238,-2.3693,-2.3569,-2.4238,-2.4797,-2.507,-2.4963,-2.4892,-2.486,-2.4393,-2.3943,-2.3649,-2.3509,-2.3403,-2.3522,-2.4154,-2.4625,-2.5068,-2.6142,-2.6945,-2.7175,-2.7214,-2.7268,-2.7403,-2.7403,-2.7403,-2.7469,-2.7469,-2.7536,-2.7523,-2.7469,-2.7403,-2.7482,-2.7348,-2.7214,-2.7214,-2.7214,-2.7079,-2.6863,-2.6807,-2.6752,-2.6739,-2.6752,-2.6752,-2.6658,-2.6533,-2.6408,-2.6339,-2.6201,-2.6062,-2.6062,-2.598,-2.584,-2.5758,-2.5758,-2.5606,-2.5465,-2.5453,-2.5382,-2.5312,-2.5312,-2.5241,-2.5052,-2.5052,-2.4981,-2.4754,-2.4683,-2.4826,-3.4256,-3.4122,-3.2851,-3.2458,-3.2634,-3.1291,-3.0733,-3.0814,-3.0761,-3.0563,-3.0318,-3.0525,-3.0601,-3.046,-3.0011,-2.9795,-2.9696,-2.9237,-2.9287,-2.9746,-2.9722,-2.9617,-2.9513,-2.9026,-2.8136,-2.6916,-2.5839,-2.5255,-2.5061,-2.4566,-2.4566,-2.5029,-2.4966,-2.484,-2.4808,-2.4761,-2.4714,-2.459,-2.4229,-2.3992,-2.4017,-2.3418,-2.2992,-2.2872,-2.3351,-2.3533,-2.3264,-2.3912,-2.4141,-2.3928,-2.412,-2.4269,-2.4269,-2.4253,-2.4081,-2.3767,-2.3673,-2.3533,-2.3185,-2.3271,-2.333,-2.3343,-2.3844,-2.4323,-2.463,-2.5333,-2.6151,-2.6729,-2.6934,-2.7079,-2.7214,-2.7214,-2.7281,-2.7403,-2.739,-2.7335,-2.7268,-2.7201,-2.7146,-2.7024,-2.7024,-2.7011,-2.6943,-2.6943,-2.6807,-2.6589,-2.6452,-2.6383,-2.6383,-2.6383,-2.6371,-2.6452,-2.6339,-2.6201,-2.6144,-2.598,-2.5828,-2.5828,-2.5758,-2.5688,-2.5606,-2.5535,-2.5407,-2.5253,-2.5182,-2.5111,-2.5111,-2.5028,-2.4897,-2.4706,-2.4634,-2.4562,-2.4334,-2.4261,-2.4334,-3.3242,-3.3163,-3.259,-3.1929,-3.1426,-3.0888,-3.0651,-3.0568,-3.0535,-3.0153,-2.9689,-3.0216,-3.0475,-3.0493,-3.0394,-3.0344,-3.0361,-3.0344,-3.0328,-3.0377,-3.041,-2.9889,-2.8929,-2.8799,-2.7668,-2.5803,-2.5262,-2.4665,-2.3807,-2.3585,-2.3467,-2.3496,-2.3392,-2.3361,-2.3346,-2.3256,-2.3136,-2.3107,-2.3064,-2.331,-2.3818,-2.3281,-2.2843,-2.2615,-2.2855,-2.2793,-2.2489,-2.316,-2.3501,-2.3224,-2.3414,-2.3589,-2.3499,-2.2751,-2.247,-2.285,-2.2533,-2.2493,-2.3027,-2.3125,-2.3163,-2.3138,-2.3251,-2.3703,-2.4594,-2.491,-2.5329,-2.6085,-2.6662,-2.6998,-2.7024,-2.7011,-2.7011,-2.7079,-2.7079,-2.7024,-2.7011,-2.7024,-2.7011,-2.7024,-2.6956,-2.6943,-2.6739,-2.6726,-2.6589,-2.6339,-2.6188,-2.6107,-2.6037,-2.5943,-2.5931,-2.6037,-2.6062,-2.6131,-2.5992,-2.5758,-2.5618,-2.5606,-2.5453,-2.5312,-2.5241,-2.5241,-2.5241,-2.4921,-2.4861,-2.4706,-2.4478,-2.4334,-2.4334,-2.4273,-2.4261,-2.4189,-2.4189,-2.4116,-2.4189,-3.255,-3.2912,-3.2488,-3.1858,-3.123,-3.0992,-3.0733,-3.051,-3.0501,-3.0294,-2.9996,-2.9509,-2.9261,-2.9284,-2.9682,-2.984,-2.9807,-3.0178,-3.0274,-3.0189,-3.0113,-2.9378,-2.812,-2.7632,-2.6505,-2.4806,-2.4312,-2.3835,-2.3466,-2.3319,-2.329,-2.3157,-2.3127,-2.3097,-2.2992,-2.2947,-2.2843,-2.2692,-2.2706,-2.279,-2.2883,-2.2896,-2.2999,-2.3145,-2.3202,-2.3197,-2.3069,-2.3384,-2.3308,-2.2821,-2.2688,-2.2555,-2.2283,-2.1706,-2.1617,-2.2137,-2.2389,-2.2701,-2.3306,-2.3331,-2.3468,-2.3689,-2.3726,-2.3949,-2.4422,-2.4781,-2.5145,-2.5515,-2.6274,-2.6739,-2.6807,-2.6807,-2.6863,-2.6943,-2.7024,-2.6943,-2.6807,-2.6807,-2.6739,-2.6546,-2.6546,-2.6477,-2.6258,-2.6245,-2.6176,-2.6062,-2.598,-2.598,-2.591,-2.5816,-2.5804,-2.5746,-2.5828,-2.5828,-2.5688,-2.5535,-2.5394,-2.5194,-2.5064,-2.4981,-2.4754,-2.4683,-2.455,-2.4406,-2.4418,-2.4418,-2.4261,-2.4189,-2.4189,-2.397,-2.3604,-2.3519,-2.3519,-2.3519,-2.3446,-3.2299,-3.2734,-3.2352,-3.1875,-3.1346,-3.1015,-3.0773,-3.0551,-3.0517,-3.0352,-3.0046,-2.9214,-2.8662,-2.8444,-2.922,-2.9568,-2.9543,-2.9917,-3.006,-2.9897,-2.9675,-2.8766,-2.7404,-2.6748,-2.5628,-2.4283,-2.3644,-2.3319,-2.3187,-2.3187,-2.3112,-2.2978,-2.2933,-2.2902,-2.2752,-2.2692,-2.2646,-2.2509,-2.2463,-2.2356,-2.2292,-2.2509,-2.2798,-2.3036,-2.3126,-2.3119,-2.3032,-2.2961,-2.2771,-2.2322,-2.1904,-2.1551,-2.1377,-2.1056,-2.1146,-2.1725,-2.229,-2.2788,-2.3243,-2.3268,-2.3501,-2.3968,-2.3977,-2.4112,-2.4497,-2.4865,-2.516,-2.5357,-2.5952,-2.6396,-2.6452,-2.6521,-2.6602,-2.6752,-2.682,-2.6807,-2.6645,-2.6589,-2.6465,-2.627,-2.6201,-2.6062,-2.591,-2.591,-2.591,-2.584,-2.5853,-2.5783,-2.563,-2.5548,-2.5465,-2.5253,-2.5182,-2.5253,-2.5324,-2.5265,-2.4981,-2.4778,-2.4657,-2.4609,-2.4273,-2.4189,-2.3967,-2.3853,-2.3929,-2.3868,-2.3525,-2.3548,-2.3813,-2.3457,-2.3161,-2.2938,-2.2948,-2.2863,-2.2852,-3.2734,-3.2521,-3.2055,-3.1783,-3.1709,-3.1055,-3.0692,-3.0626,-3.0558,-3.0028,-2.9411,-2.9824,-2.9329,-2.8223,-2.9517,-3.0081,-2.9935,-2.9848,-2.981,-2.9745,-2.9162,-2.8255,-2.711,-2.6356,-2.5233,-2.3876,-2.3583,-2.3304,-2.2933,-2.2947,-2.2812,-2.2661,-2.2615,-2.2509,-2.2324,-2.2278,-2.2217,-2.2231,-2.2231,-2.2184,-2.2184,-2.2184,-2.2105,-2.1938,-2.2161,-2.2208,-2.1845,-2.1506,-2.1531,-2.1831,-2.1087,-2.0727,-2.1132,-2.0836,-2.0964,-2.1545,-2.2104,-2.2494,-2.2702,-2.2751,-2.2972,-2.3426,-2.357,-2.3928,-2.4743,-2.4976,-2.5232,-2.5742,-2.5791,-2.5898,-2.5968,-2.6119,-2.627,-2.627,-2.6408,-2.6465,-2.6452,-2.6327,-2.6201,-2.6131,-2.5992,-2.584,-2.5853,-2.5923,-2.57,-2.5618,-2.563,-2.5477,-2.4909,-2.4696,-2.4506,-2.4362,-2.4325,-2.4406,-2.4694,-2.4849,-2.4634,-2.4325,-2.423,-2.4334,-2.4189,-2.3952,-2.3523,-2.3161,-2.3212,-2.3078,-2.2655,-2.2692,-2.2966,-2.2916,-2.2713,-2.2574,-2.2639,-2.2488,-2.2478,-3.2031,-3.2353,-3.2232,-3.1875,-3.1334,-3.114,-3.0855,-3.0359,-3.0323,-3.0149,-2.9845,-2.9953,-2.9747,-2.931,-2.9702,-2.9643,-2.927,-2.9588,-2.9649,-2.939,-2.8602,-2.7655,-2.6629,-2.5582,-2.44,-2.3363,-2.3038,-2.2873,-2.2752,-2.2706,-2.2569,-2.237,-2.2324,-2.2263,-2.2217,-2.217,-2.2137,-2.1949,-2.1935,-2.1855,-2.1602,-2.1554,-2.1313,-2.0858,-2.1923,-2.2401,-2.2221,-2.2141,-2.2073,-2.2015,-2.1344,-2.1082,-2.1253,-2.0985,-2.0807,-2.085,-2.1319,-2.1804,-2.215,-2.2197,-2.2421,-2.2928,-2.3329,-2.3656,-2.4036,-2.4484,-2.4862,-2.5111,-2.5218,-2.5277,-2.5548,-2.584,-2.5992,-2.5992,-2.605,-2.6119,-2.6119,-2.605,-2.598,-2.584,-2.5618,-2.5477,-2.5253,-2.5206,-2.5064,-2.4766,-2.4885,-2.466,-2.4131,-2.3686,-2.3406,-2.3328,-2.3547,-2.3592,-2.3107,-2.3927,-2.4276,-2.3807,-2.3527,-2.312,-2.2898,-2.2688,-2.2231,-2.198,-2.2106,-2.2099,-2.1793,-2.1937,-2.2187,-2.2595,-2.2392,-2.2221,-2.2381,-2.2285,-2.2295,-3.1653,-3.1882,-3.2179,-3.1948,-3.1355,-3.1201,-3.0861,-3.0384,-3.0189,-3.0119,-3.0087,-2.9978,-2.9935,-2.993,-2.977,-2.9456,-2.9038,-2.9339,-2.9284,-2.8878,-2.8018,-2.7149,-2.6156,-2.4954,-2.397,-2.3171,-2.2632,-2.2463,-2.2477,-2.2463,-2.2324,-2.2091,-2.2091,-2.2044,-2.1949,-2.1949,-2.1841,-2.1712,-2.165,-2.1506,-2.1215,-2.1033,-2.0723,-2.0385,-2.1178,-2.164,-2.1578,-2.1437,-2.1378,-2.1247,-2.0815,-2.0692,-2.0985,-2.1052,-2.0888,-2.0749,-2.0974,-2.136,-2.1583,-2.164,-2.1924,-2.2407,-2.289,-2.3248,-2.3329,-2.3943,-2.4281,-2.4424,-2.4576,-2.4706,-2.4909,-2.5194,-2.5477,-2.5688,-2.584,-2.5923,-2.5923,-2.584,-2.57,-2.5407,-2.5111,-2.4767,-2.4495,-2.4389,-2.413,-2.3801,-2.3895,-2.3733,-2.3212,-2.2612,-2.2107,-2.1998,-2.2103,-2.2017,-2.1675,-2.2023,-2.2766,-2.2506,-2.2428,-2.2006,-2.1701,-2.1393,-2.1145,-2.0909,-2.0849,-2.0935,-2.1083,-2.1214,-2.1605,-2.2061,-2.1999,-2.1733,-2.1849,-2.1996,-2.2006,-3.1793,-3.1218,-3.1812,-3.1827,-3.1487,-3.097,-3.0737,-3.0558,-3.0113,-2.9918,-2.9962,-2.9902,-2.9902,-2.9858,-2.9726,-2.9515,-2.9271,-2.9118,-2.8711,-2.8158,-2.7371,-2.6635,-2.5848,-2.4618,-2.3786,-2.3334,-2.2586,-2.2231,-2.2184,-2.2184,-2.2044,-2.1855,-2.1807,-2.165,-2.141,-2.1458,-2.1423,-2.1423,-2.141,-2.1326,-2.1118,-2.0673,-2.0308,-2.0093,-1.9772,-1.9548,-1.9574,-1.9156,-1.9309,-1.968,-1.931,-1.9448,-2.0335,-2.083,-2.1101,-2.1026,-2.1146,-2.1169,-2.1181,-2.1152,-2.1305,-2.1747,-2.2163,-2.2384,-2.2594,-2.3167,-2.3582,-2.3663,-2.3867,-2.4215,-2.425,-2.4345,-2.4694,-2.5407,-2.5618,-2.57,-2.5783,-2.57,-2.5407,-2.4921,-2.4515,-2.4031,-2.3663,-2.3513,-2.3282,-2.2891,-2.2708,-2.2616,-2.2067,-2.1385,-2.0834,-2.0456,-2.0579,-2.0628,-2.0246,-2.0022,-2.0613,-2.0966,-2.1096,-2.093,-2.0791,-2.0605,-2.0387,-2.0165,-2.0318,-2.0403,-2.0625,-2.0744,-2.0871,-2.1248,-2.1074,-2.1104,-2.1166,-2.129,-2.159,-3.0468,-3.016,-3.0385,-3.0249,-2.9962,-3.0032,-2.9955,-2.9716,-2.9831,-2.9918,-2.9918,-2.9918,-2.9918,-2.983,-2.9653,-2.9441,-2.9257,-2.8632,-2.8088,-2.7606,-2.6561,-2.5749,-2.5035,-2.3879,-2.2979,-2.2434,-2.2063,-2.1902,-2.1949,-2.1902,-2.1807,-2.1568,-2.141,-2.1361,-2.1277,-2.1166,-2.1131,-2.1131,-2.1144,-2.1095,-2.0961,-2.0422,-1.9901,-1.9384,-1.8792,-1.8348,-1.8057,-1.8445,-1.8799,-1.9149,-1.8988,-1.9286,-1.9939,-2.0217,-2.0351,-2.042,-2.0464,-2.0453,-2.0464,-2.0464,-2.052,-2.0632,-2.0787,-2.1029,-2.1407,-2.1749,-2.231,-2.2883,-2.3225,-2.3489,-2.4036,-2.4189,-2.4288,-2.4611,-2.4694,-2.4861,-2.498,-2.4932,-2.4765,-2.4455,-2.4045,-2.3544,-2.3115,-2.2829,-2.2351,-2.1815,-2.1578,-2.1283,-2.0838,-1.9996,-1.9356,-1.9578,-1.9527,-1.9493,-1.9373,-1.9393,-1.9733,-2.0101,-2.017,-2.0149,-2.0023,-1.986,-1.9635,-1.9594,-1.9745,-1.987,-2.008,-2.0216,-2.024,-2.0398,-2.0494,-2.0442,-2.0317,-2.0457,-2.0761,-2.9619,-2.9311,-2.9605,-2.9574,-2.9244,-2.9685,-2.9605,-2.9337,-2.9707,-2.9786,-2.9637,-2.9592,-2.9592,-2.9483,-2.9096,-2.8833,-2.857,-2.7541,-2.6925,-2.6727,-2.6057,-2.5265,-2.4646,-2.3526,-2.248,-2.1793,-2.165,-2.1616,-2.1568,-2.1554,-2.1458,-2.1264,-2.118,-2.1131,-2.1131,-2.1046,-2.0997,-2.0997,-2.0997,-2.0848,-2.0498,-2.0016,-1.9371,-1.8709,-1.8116,-1.7645,-1.7379,-1.7897,-1.8199,-1.8318,-1.8442,-1.8764,-1.9083,-1.9437,-1.9613,-1.9684,-1.9781,-1.9944,-1.9944,-1.9944,-1.9944,-1.9976,-2.0072,-2.0212,-2.0508,-2.0766,-2.1337,-2.1809,-2.211,-2.2479,-2.3034,-2.3039,-2.3133,-2.3397,-2.394,-2.42,-2.4342,-2.423,-2.3936,-2.3492,-2.3044,-2.2577,-2.2059,-2.1699,-2.13,-2.0758,-2.0435,-2.0281,-1.9881,-1.9318,-1.9142,-1.8993,-1.8751,-1.8791,-1.8785,-1.8836,-1.8947,-1.925,-1.9406,-1.9385,-1.9323,-1.9157,-1.8998,-1.9018,-1.908,-1.911,-1.9284,-1.9295,-1.9377,-1.9604,-1.9758,-1.9667,-1.9493,-1.9604,-1.9797,-2.9186,-2.857,-2.9226,-2.9453,-2.9386,-2.961,-2.9465,-2.9343,-2.9636,-2.946,-2.9053,-2.8788,-2.8837,-2.8774,-2.8192,-2.7837,-2.7437,-2.6324,-2.5608,-2.5546,-2.5354,-2.5087,-2.4342,-2.3348,-2.242,-2.1616,-2.1458,-2.1361,-2.1229,-2.1229,-2.1144,-2.1033,-2.1046,-2.0997,-2.101,-2.0983,-2.0934,-2.0947,-2.0947,-2.0623,-2.0042,-1.9423,-1.8845,-1.8147,-1.7579,-1.7267,-1.7267,-1.7323,-1.7323,-1.74,-1.7761,-1.7944,-1.8056,-1.8639,-1.9016,-1.8976,-1.934,-1.9511,-1.9585,-1.9619,-1.9748,-1.9933,-2.0053,-2.0042,-2.0074,-2.0376,-2.0611,-2.0614,-2.0893,-2.1289,-2.1589,-2.1493,-2.1521,-2.2049,-2.3178,-2.3861,-2.3722,-2.3356,-2.2871,-2.2313,-2.1873,-2.1317,-2.0668,-2.0439,-2.0094,-1.9783,-1.9533,-1.9389,-1.9168,-1.8724,-1.8664,-1.8337,-1.792,-1.7969,-1.7988,-1.8502,-1.8612,-1.8738,-1.8785,-1.86,-1.8761,-1.8674,-1.8596,-1.8607,-1.8402,-1.8442,-1.8462,-1.8502,-1.8492,-1.8486,-1.8587,-1.8656,-1.8453,-1.8228,-1.8373,-2.7861,-2.7641,-2.7831,-2.8228,-2.8594,-2.8243,-2.8298,-2.8733,-2.9108,-2.8753,-2.7874,-2.7229,-2.7328,-2.7557,-2.7328,-2.7086,-2.6676,-2.592,-2.5404,-2.5198,-2.4752,-2.428,-2.364,-2.2965,-2.2282,-2.1759,-2.1602,-2.1471,-2.1082,-2.1046,-2.1046,-2.0997,-2.0911,-2.0924,-2.0924,-2.0812,-2.0762,-2.0762,-2.0649,-2.0334,-1.9683,-1.9044,-1.8417,-1.7831,-1.7245,-1.6976,-1.6931,-1.6931,-1.7043,-1.7278,-1.7253,-1.7513,-1.7839,-1.8094,-1.8337,-1.8617,-1.883,-1.9068,-1.9338,-1.9414,-1.9629,-1.9966,-1.9966,-2.002,-1.9933,-2.0041,-2.0167,-2.0279,-2.0456,-2.0679,-2.1041,-2.1041,-2.1133,-2.1392,-2.2406,-2.2868,-2.2204,-2.1521,-2.1211,-2.1218,-2.0892,-2.0466,-2.0123,-1.975,-1.9452,-1.9173,-1.871,-1.8355,-1.8297,-1.7541,-1.7198,-1.706,-1.6821,-1.7079,-1.7423,-1.7988,-1.8289,-1.8367,-1.8212,-1.7852,-1.8104,-1.8307,-1.8395,-1.8482,-1.7898,-1.7725,-1.7792,-1.7868,-1.7762,-1.7341,-1.7013,-1.6871,-1.6249,-1.5939,-1.6422,-2.733,-2.7299,-2.7299,-2.754,-2.7889,-2.7742,-2.7777,-2.8073,-2.846,-2.814,-2.7089,-2.592,-2.597,-2.667,-2.6364,-2.6122,-2.5957,-2.5195,-2.4744,-2.4612,-2.4149,-2.3596,-2.3024,-2.2618,-2.2142,-2.152,-2.1458,-2.1277,-2.0997,-2.0898,-2.0835,-2.0749,-2.0662,-2.0612,-2.0562,-2.0562,-2.0498,-2.0498,-2.0398,-2.0016,-1.915,-1.8727,-1.8093,-1.7457,-1.6976,-1.6761,-1.6818,-1.6818,-1.6874,-1.7043,-1.6987,-1.7105,-1.7384,-1.7541,-1.7696,-1.7974,-1.8144,-1.8411,-1.8603,-1.8689,-1.8976,-1.934,-1.9523,-1.9576,-1.9617,-1.9681,-1.9719,-1.9744,-1.9807,-2.0039,-2.0376,-2.0561,-2.0466,-2.0387,-2.095,-2.1224,-2.0885,-2.0165,-1.9728,-1.9717,-1.9544,-1.929,-1.9148,-1.8728,-1.8694,-1.8586,-1.8162,-1.7959,-1.7901,-1.6724,-1.5983,-1.6139,-1.6564,-1.7045,-1.7036,-1.7387,-1.7271,-1.7417,-1.6927,-1.6624,-1.6893,-1.7301,-1.7466,-1.735,-1.7149,-1.7054,-1.7082,-1.694,-1.6318,-1.5869,-1.5443,-1.506,-1.4613,-1.4206,-1.4709,-2.7282,-2.7299,-2.7299,-2.7333,-2.7476,-2.7742,-2.7636,-2.7494,-2.766,-2.7345,-2.6408,-2.4954,-2.4999,-2.6028,-2.5382,-2.5111,-2.5037,-2.4374,-2.4018,-2.3915,-2.3696,-2.329,-2.2694,-2.2618,-2.2002,-2.1229,-2.1033,-2.0898,-2.0762,-2.0636,-2.0536,-2.0498,-2.0296,-2.0233,-2.0283,-2.0233,-2.0233,-2.0182,-2.008,-1.954,-1.8727,-1.8309,-1.7722,-1.6965,-1.6818,-1.6705,-1.6705,-1.6705,-1.6751,-1.6761,-1.6761,-1.6772,-1.6722,-1.7069,-1.7168,-1.7124,-1.7444,-1.7624,-1.7708,-1.7852,-1.804,-1.8554,-1.8723,-1.8753,-1.9059,-1.9112,-1.9044,-1.9048,-1.9003,-1.923,-1.9582,-1.9765,-1.963,-1.9391,-1.9178,-1.9373,-1.9807,-1.9241,-1.8395,-1.801,-1.7963,-1.7764,-1.7486,-1.7345,-1.7482,-1.7609,-1.7101,-1.6693,-1.6501,-1.5809,-1.5618,-1.6029,-1.656,-1.7205,-1.6992,-1.6779,-1.6433,-1.6174,-1.5384,-1.5078,-1.5121,-1.547,-1.5824,-1.5981,-1.6312,-1.6383,-1.63,-1.5812,-1.5145,-1.4647,-1.4413,-1.3966,-1.3497,-1.3196,-1.3336,-2.7233,-2.7152,-2.7135,-2.7463,-2.7759,-2.7114,-2.6916,-2.7048,-2.66,-2.595,-2.4973,-2.4292,-2.4283,-2.4539,-2.4432,-2.4253,-2.4298,-2.4016,-2.3897,-2.3797,-2.3653,-2.3231,-2.274,-2.2618,-2.2035,-2.1237,-2.1006,-2.0772,-2.0435,-2.0347,-2.0283,-2.0233,-2.0246,-2.0169,-2.0182,-2.0169,-2.022,-2.0118,-1.9708,-1.9121,-1.8405,-1.7809,-1.7279,-1.6534,-1.6488,-1.6488,-1.6488,-1.6488,-1.6488,-1.6488,-1.6581,-1.6637,-1.6726,-1.6753,-1.677,-1.6812,-1.6911,-1.7122,-1.7434,-1.7501,-1.7719,-1.8142,-1.8237,-1.833,-1.8228,-1.8323,-1.829,-1.8294,-1.8342,-1.8471,-1.8694,-1.8805,-1.8714,-1.8516,-1.8133,-1.7959,-1.8497,-1.8507,-1.7779,-1.7176,-1.7149,-1.7292,-1.6585,-1.6314,-1.6392,-1.6419,-1.5983,-1.5286,-1.5022,-1.4828,-1.501,-1.5382,-1.5566,-1.5887,-1.5735,-1.5475,-1.5137,-1.4731,-1.4009,-1.3632,-1.3674,-1.4036,-1.4537,-1.5172,-1.5788,-1.5623,-1.5083,-1.4979,-1.4283,-1.3816,-1.3322,-1.2875,-1.2445,-1.2102,-1.202,-2.7233,-2.7103,-2.7103,-2.7278,-2.7419,-2.6723,-2.6476,-2.6521,-2.5976,-2.5243,-2.4549,-2.4039,-2.3888,-2.3982,-2.3925,-2.3897,-2.3882,-2.3812,-2.3726,-2.3625,-2.3523,-2.3113,-2.2603,-2.242,-2.1988,-2.1077,-2.0709,-2.0472,-2.0283,-2.0144,-2.0093,-2.008,-2.008,-2.0016,-2.0016,-1.9965,-1.9926,-1.9862,-1.95,-1.891,-1.8093,-1.7644,-1.6989,-1.641,-1.6249,-1.6249,-1.6249,-1.6202,-1.6144,-1.6202,-1.6249,-1.6363,-1.6534,-1.6467,-1.64,-1.6457,-1.642,-1.6446,-1.6663,-1.6794,-1.6912,-1.7397,-1.7438,-1.7584,-1.7636,-1.7657,-1.7688,-1.7683,-1.7711,-1.7748,-1.7765,-1.773,-1.774,-1.7639,-1.7388,-1.7062,-1.681,-1.6766,-1.6669,-1.607,-1.6026,-1.5765,-1.5418,-1.5228,-1.5317,-1.5342,-1.4942,-1.4323,-1.4613,-1.4362,-1.4053,-1.418,-1.4189,-1.4305,-1.4222,-1.3973,-1.3688,-1.3215,-1.2632,-1.2407,-1.2448,-1.2905,-1.3493,-1.3941,-1.4313,-1.3884,-1.3445,-1.3404,-1.3375,-1.2757,-1.2196,-1.1782,-1.1495,-1.136,-1.1393,-2.7201,-2.707,-2.7103,-2.7038,-2.6892,-2.6538,-2.633,-2.6187,-2.5729,-2.5234,-2.4679,-2.3932,-2.3728,-2.3852,-2.3839,-2.3782,-2.3711,-2.3581,-2.3509,-2.3451,-2.3334,-2.2994,-2.2572,-2.2282,-2.1908,-2.1091,-2.061,-2.0321,-2.0271,-2.008,-1.9978,-1.9926,-1.9875,-1.9811,-1.9759,-1.9668,-1.9617,-1.9565,-1.9133,-1.8643,-1.7765,-1.7446,-1.6786,-1.6285,-1.6066,-1.6066,-1.6077,-1.5961,-1.5914,-1.5914,-1.5914,-1.6029,-1.6144,-1.6192,-1.6056,-1.6056,-1.6019,-1.606,-1.609,-1.6032,-1.6105,-1.6437,-1.6447,-1.6598,-1.6859,-1.69,-1.6837,-1.677,-1.6733,-1.6694,-1.6719,-1.6498,-1.6478,-1.6498,-1.6617,-1.5939,-1.5061,-1.4698,-1.4681,-1.5067,-1.4836,-1.4611,-1.418,-1.387,-1.4109,-1.4181,-1.3733,-1.3478,-1.3695,-1.3639,-1.3212,-1.2899,-1.2871,-1.271,-1.2638,-1.2523,-1.2248,-1.1992,-1.1386,-1.1389,-1.1343,-1.16,-1.2052,-1.2341,-1.2482,-1.236,-1.2462,-1.2641,-1.2373,-1.1694,-1.1472,-1.1496,-1.1163,-1.0701,-1.0806,-2.7186,-2.7007,-2.7007,-2.6925,-2.6742,-2.6657,-2.6401,-2.6087,-2.5656,-2.5166,-2.4552,-2.3928,-2.3598,-2.3651,-2.3653,-2.3625,-2.3509,-2.3319,-2.3275,-2.3231,-2.3157,-2.2888,-2.2737,-2.2217,-2.1841,-2.1506,-2.0908,-2.051,-2.0359,-2.0105,-1.9811,-1.9811,-1.972,-1.9604,-1.9617,-1.9512,-1.942,-1.9251,-1.8655,-1.805,-1.7501,-1.6729,-1.6239,-1.5914,-1.5846,-1.5904,-1.5914,-1.5914,-1.5914,-1.5914,-1.5914,-1.5856,-1.5856,-1.5856,-1.5914,-1.5904,-1.5846,-1.5798,-1.5798,-1.574,-1.576,-1.582,-1.5752,-1.5674,-1.5723,-1.5762,-1.5778,-1.5529,-1.5278,-1.5092,-1.5551,-1.5222,-1.5109,-1.5154,-1.4698,-1.4106,-1.399,-1.3504,-1.2976,-1.3371,-1.3509,-1.3561,-1.3087,-1.2779,-1.2811,-1.2933,-1.2689,-1.2336,-1.2305,-1.218,-1.1869,-1.166,-1.1495,-1.1234,-1.1044,-1.0944,-1.0792,-1.084,-1.0555,-1.0555,-1.0458,-1.0296,-1.0507,-1.1205,-1.1717,-1.1902,-1.1968,-1.1934,-1.174,-1.1268,-1.1262,-1.134,-1.0876,-1.0504,-1.0604,-2.7087,-2.6959,-2.6959,-2.6876,-2.6657,-2.6418,-2.612,-2.5721,-2.5551,-2.4949,-2.4184,-2.3613,-2.3473,-2.345,-2.3436,-2.3348,-2.3172,-2.2904,-2.2873,-2.2828,-2.2692,-2.2661,-2.2661,-2.2184,-2.1902,-2.1554,-2.1055,-2.0523,-2.0271,-1.9811,-1.9604,-1.9565,-1.9512,-1.9512,-1.946,-1.9368,-1.9223,-1.8946,-1.8452,-1.7776,-1.7112,-1.6066,-1.5624,-1.5566,-1.5566,-1.5508,-1.5508,-1.5449,-1.5439,-1.5439,-1.5439,-1.5381,-1.5391,-1.5391,-1.5449,-1.5508,-1.5508,-1.5449,-1.5449,-1.5391,-1.5332,-1.5332,-1.5264,-1.5196,-1.5196,-1.5185,-1.5056,-1.4865,-1.4732,-1.4604,-1.4958,-1.4193,-1.405,-1.4021,-1.3421,-1.2941,-1.2732,-1.2327,-1.2102,-1.2016,-1.2249,-1.2348,-1.2176,-1.19,-1.1661,-1.1591,-1.1542,-1.1314,-1.1074,-1.1033,-1.0999,-1.0803,-1.0694,-1.0631,-1.0434,-1.0308,-1.0117,-0.9989,-0.9926,-0.9926,-0.9989,-0.9989,-1.0142,-1.0604,-1.1015,-1.1291,-1.1148,-1.0951,-1.09,-1.0903,-1.0857,-1.0755,-1.05,-1.034,-1.0489,-2.699,-2.6842,-2.6842,-2.6759,-2.6607,-2.6173,-2.5775,-2.547,-2.5425,-2.4797,-2.3767,-2.3387,-2.3214,-2.3187,-2.3142,-2.3008,-2.2768,-2.2495,-2.2417,-2.2417,-2.231,-2.2231,-2.2184,-2.2091,-2.1902,-2.1444,-2.0908,-2.0459,-2.0118,-1.9668,-1.9473,-1.9368,-1.9368,-1.9263,-1.921,-1.9011,-1.8851,-1.8691,-1.841,-1.7611,-1.6503,-1.5604,-1.5156,-1.5156,-1.5156,-1.5156,-1.5215,-1.5147,-1.5098,-1.5098,-1.5039,-1.5029,-1.4961,-1.4961,-1.497,-1.5029,-1.497,-1.5039,-1.5039,-1.497,-1.497,-1.4961,-1.4921,-1.4911,-1.4725,-1.4538,-1.43,-1.4419,-1.3769,-1.3554,-1.3475,-1.3094,-1.2744,-1.2731,-1.2342,-1.1911,-1.1523,-1.1279,-1.1169,-1.1175,-1.1256,-1.1296,-1.1249,-1.108,-1.092,-1.0887,-1.084,-1.0762,-1.0604,-1.0514,-1.0424,-1.0283,-1.0117,-1.011,-1.0047,-1.0053,-0.9926,-0.9798,-0.9798,-0.9798,-0.9798,-0.9862,-1.0021,-1.0104,-1.0226,-1.05,-1.0219,-1.0245,-1.0386,-1.0469,-1.0347,-1.0269,-1.0174,-1.0136,-1.02,-2.6825,-2.6708,-2.6674,-2.6572,-2.6468,-2.603,-2.5742,-2.5556,-2.5329,-2.4804,-2.3891,-2.3278,-2.2936,-2.2876,-2.2632,-2.2495,-2.2402,-2.2278,-2.2137,-2.2137,-2.2077,-2.203,-2.2077,-2.1935,-2.1431,-2.093,-2.0446,-2.0308,-1.9901,-1.946,-1.9316,-1.9263,-1.9011,-1.8851,-1.8798,-1.8583,-1.8247,-1.8084,-1.7689,-1.6899,-1.5951,-1.5323,-1.5088,-1.5039,-1.498,-1.497,-1.497,-1.497,-1.498,-1.498,-1.498,-1.4911,-1.4775,-1.4715,-1.4666,-1.4675,-1.4803,-1.5039,-1.4911,-1.4843,-1.4715,-1.4725,-1.4616,-1.4565,-1.4318,-1.3571,-1.3009,-1.2581,-1.171,-1.1524,-1.1943,-1.1094,-1.0905,-1.0975,-1.0968,-1.0641,-1.029,-1.0523,-1.0398,-1.0386,-1.0443,-1.0507,-1.0548,-1.0302,-1.0149,-1.0123,-1.011,-1.011,-1.011,-1.0117,-1.0053,-0.9926,-0.9862,-0.9862,-0.9792,-0.9798,-0.9734,-0.967,-0.967,-0.967,-0.967,-0.967,-0.9606,-0.9682,-0.9804,-0.9862,-0.9829,-0.9906,-1.0021,-1.0053,-1.0058,-1.0026,-1.0072,-1.0021,-0.9988,-2.6674,-2.6623,-2.6589,-2.6468,-2.6329,-2.601,-2.5684,-2.5323,-2.4997,-2.4457,-2.3749,-2.2907,-2.2494,-2.2452,-2.2184,-2.2077,-2.2044,-2.1855,-2.1759,-2.1712,-2.165,-2.1506,-2.1126,-2.093,-2.0584,-2.0004,-1.9503,-1.915,-1.9056,-1.9028,-1.8893,-1.8679,-1.8518,-1.841,-1.841,-1.8193,-1.8041,-1.7767,-1.72,-1.6513,-1.5884,-1.5362,-1.4961,-1.4743,-1.4743,-1.4684,-1.4743,-1.4743,-1.4743,-1.4743,-1.4743,-1.4684,-1.4616,-1.4556,-1.4556,-1.4506,-1.4625,-1.4684,-1.4684,-1.4616,-1.4547,-1.4488,-1.4318,-1.413,-1.3821,-1.3329,-1.2887,-1.3017,-1.2212,-1.171,-1.1524,-1.1024,-1.078,-1.0591,-1.0098,-0.9913,-0.9734,-0.974,-0.979,-0.9688,-0.9682,-0.9857,-1.0003,-0.991,-0.9874,-0.9989,-0.9919,-0.9919,-0.9862,-0.9798,-0.9734,-0.967,-0.9676,-0.967,-0.9606,-0.9606,-0.9612,-0.9548,-0.9548,-0.9548,-0.9542,-0.9478,-0.9414,-0.942,-0.9612,-0.9606,-0.9536,-0.9606,-0.981,-0.9746,-0.974,-0.967,-0.967,-0.9759,-0.9768,-2.6468,-2.6537,-2.645,-2.631,-2.6099,-2.5901,-2.5513,-2.5029,-2.4688,-2.4158,-2.3348,-2.255,-2.209,-2.2002,-2.1807,-2.1616,-2.1568,-2.1375,-2.1326,-2.1277,-2.118,-2.097,-2.0746,-2.0383,-1.9812,-1.8886,-1.8927,-1.8578,-1.8278,-1.8247,-1.8302,-1.8084,-1.8084,-1.7975,-1.792,-1.781,-1.7645,-1.7479,-1.674,-1.6161,-1.5816,-1.5294,-1.4902,-1.4625,-1.4446,-1.4446,-1.4515,-1.4387,-1.4387,-1.4515,-1.4515,-1.4515,-1.4515,-1.4387,-1.4318,-1.4318,-1.4318,-1.4198,-1.4258,-1.4258,-1.4327,-1.4139,-1.389,-1.3511,-1.3321,-1.3139,-1.2826,-1.2512,-1.1896,-1.1717,-1.1779,-1.0843,-1.0534,-1.0098,-0.9786,-0.9536,-0.935,-0.935,-0.9414,-0.9414,-0.9414,-0.9414,-0.9526,-0.9572,-0.9612,-0.9798,-0.9798,-0.9664,-0.9542,-0.9414,-0.9285,-0.9221,-0.935,-0.935,-0.935,-0.935,-0.9356,-0.9356,-0.9356,-0.9291,-0.9227,-0.9157,-0.9092,-0.9157,-0.9291,-0.9157,-0.9022,-0.928,-0.9542,-0.9285,-0.9157,-0.9221,-0.9227,-0.9315,-0.9587,-2.633,-2.6295,-2.6222,-2.6096,-2.5881,-2.5438,-2.5114,-2.4806,-2.4518,-2.3865,-2.292,-2.2282,-2.1766,-2.1602,-2.141,-2.1229,-2.1095,-2.1033,-2.1033,-2.1046,-2.0997,-2.0885,-2.056,-2.0194,-1.9773,-1.9226,-1.8738,-1.8159,-1.7854,-1.7755,-1.792,-1.803,-1.7755,-1.7645,-1.7523,-1.7357,-1.7245,-1.6965,-1.6332,-1.5931,-1.5652,-1.5128,-1.4556,-1.4437,-1.4189,-1.413,-1.4455,-1.4198,-1.4198,-1.4387,-1.4387,-1.4396,-1.4327,-1.4139,-1.4061,-1.401,-1.3821,-1.3761,-1.37,-1.389,-1.383,-1.3571,-1.3199,-1.2895,-1.2642,-1.164,-1.1142,-1.1205,-1.0905,-1.0288,-1.004,-0.9606,-0.9664,-0.9536,-0.928,-0.9151,-0.9028,-0.9028,-0.9028,-0.9087,-0.9151,-0.9092,-0.9087,-0.9157,-0.9221,-0.935,-0.928,-0.9151,-0.8964,-0.8835,-0.877,-0.877,-0.8958,-0.9022,-0.9087,-0.9087,-0.9092,-0.9092,-0.9028,-0.8905,-0.8711,-0.8711,-0.877,-0.877,-0.884,-0.8641,-0.8576,-0.8765,-0.8894,-0.8705,-0.8646,-0.877,-0.8933,-0.9032,-0.9441,-2.6382,-2.6312,-2.6115,-2.5897,-2.5675,-2.5378,-2.5084,-2.4845,-2.4725,-2.354,-2.1848,-2.1677,-2.1506,-2.1277,-2.1193,-2.1033,-2.0983,-2.0997,-2.0997,-2.0997,-2.0961,-2.0549,-2.0118,-1.9592,-1.9016,-1.8387,-1.7952,-1.7678,-1.7357,-1.7312,-1.7256,-1.7312,-1.7423,-1.7368,-1.719,-1.6965,-1.6853,-1.674,-1.6285,-1.5999,-1.5536,-1.5069,-1.4488,-1.4189,-1.3881,-1.3752,-1.3821,-1.3761,-1.3881,-1.407,-1.401,-1.407,-1.4139,-1.3881,-1.37,-1.37,-1.3511,-1.339,-1.3277,-1.3459,-1.3398,-1.285,-1.2544,-1.229,-1.1903,-1.1156,-1.0975,-1.073,-1.0098,-0.9536,-0.9658,-0.9215,-0.8899,-0.8835,-0.8765,-0.8705,-0.87,-0.87,-0.87,-0.8765,-0.877,-0.877,-0.8705,-0.87,-0.877,-0.8835,-0.877,-0.8641,-0.8447,-0.8382,-0.8382,-0.8382,-0.8571,-0.8635,-0.87,-0.8765,-0.8835,-0.877,-0.8705,-0.8511,-0.8382,-0.8517,-0.8576,-0.8511,-0.8382,-0.8317,-0.8247,-0.8306,-0.8312,-0.8317,-0.8382,-0.8582,-0.8685,-0.8668,-0.8914,-2.6452,-2.6189,-2.5917,-2.5733,-2.5562,-2.5371,-2.51,-2.4836,-2.4829,-2.3449,-2.1062,-2.1293,-2.1277,-2.1059,-2.0961,-2.0961,-2.0898,-2.0898,-2.0898,-2.0911,-2.0762,-2.0195,-1.9552,-1.8963,-1.8536,-1.7579,-1.7155,-1.7099,-1.6965,-1.6965,-1.6965,-1.6976,-1.7043,-1.7032,-1.6909,-1.6751,-1.6637,-1.64,-1.6285,-1.5758,-1.5235,-1.4824,-1.435,-1.3881,-1.3519,-1.345,-1.345,-1.345,-1.3519,-1.37,-1.3692,-1.37,-1.364,-1.3571,-1.339,-1.3329,-1.3208,-1.3025,-1.2981,-1.2981,-1.2972,-1.2613,-1.2182,-1.167,-1.1101,-1.0661,-1.0345,-1.0034,-0.9588,-0.9396,-0.9402,-0.8899,-0.8576,-0.8641,-0.8447,-0.8317,-0.8376,-0.8376,-0.8376,-0.8382,-0.8382,-0.8511,-0.8312,-0.8247,-0.8312,-0.8376,-0.8376,-0.8247,-0.8047,-0.8052,-0.8052,-0.8117,-0.8252,-0.8312,-0.8382,-0.8511,-0.8576,-0.8441,-0.8312,-0.8247,-0.8182,-0.8182,-0.8182,-0.8052,-0.7987,-0.7987,-0.7852,-0.7782,-0.7917,-0.8117,-0.8117,-0.7987,-0.7862,-0.7841,-0.7935,-2.6487,-2.6026,-2.5717,-2.5605,-2.5546,-2.5371,-2.51,-2.4748,-2.4567,-2.3178,-2.1156,-2.1077,-2.1059,-2.0924,-2.0875,-2.0812,-2.0712,-2.0712,-2.0712,-2.0649,-2.0599,-2.022,-1.9579,-1.8951,-1.8363,-1.7722,-1.72,-1.6874,-1.6807,-1.6807,-1.6807,-1.6751,-1.6751,-1.674,-1.6627,-1.6477,-1.6171,-1.5796,-1.5874,-1.5284,-1.4697,-1.446,-1.3923,-1.3571,-1.3164,-1.3094,-1.3155,-1.3094,-1.3155,-1.3398,-1.339,-1.339,-1.345,-1.3216,-1.3042,-1.2981,-1.2613,-1.249,-1.256,-1.2621,-1.256,-1.2367,-1.1864,-1.1163,-1.0521,-0.9958,-0.946,-0.921,-0.8765,-0.8641,-0.8582,-0.8452,-0.8382,-0.8317,-0.8052,-0.7987,-0.7987,-0.8047,-0.7987,-0.7987,-0.8252,-0.8317,-0.8052,-0.7852,-0.7852,-0.7917,-0.7982,-0.7917,-0.7722,-0.7722,-0.7787,-0.7852,-0.7922,-0.7792,-0.7922,-0.8187,-0.8252,-0.8117,-0.7857,-0.7591,-0.7461,-0.7391,-0.7396,-0.7461,-0.7396,-0.7199,-0.7134,-0.7129,-0.7265,-0.733,-0.7265,-0.7134,-0.7068,-0.7082,-0.7291,-2.6556,-2.628,-2.5663,-2.541,-2.5355,-2.5217,-2.4926,-2.462,-2.396,-2.268,-2.1186,-2.1178,-2.1131,-2.0861,-2.0675,-2.0612,-2.0562,-2.0398,-2.0385,-2.0385,-2.0385,-1.9978,-1.9436,-1.8845,-1.8255,-1.7689,-1.7155,-1.6705,-1.6694,-1.6637,-1.6591,-1.6545,-1.6467,-1.6457,-1.6524,-1.6477,-1.6249,-1.6066,-1.5652,-1.5001,-1.4588,-1.3932,-1.3459,-1.3164,-1.2797,-1.2674,-1.2797,-1.2674,-1.2797,-1.3033,-1.3033,-1.3033,-1.3094,-1.2858,-1.2683,-1.2613,-1.2305,-1.2305,-1.2313,-1.2251,-1.2127,-1.1872,-1.1351,-1.0654,-0.9894,-0.9204,-0.877,-0.8511,-0.8252,-0.8187,-0.8182,-0.7917,-0.7852,-0.7787,-0.7657,-0.7657,-0.7657,-0.7657,-0.7657,-0.7657,-0.7787,-0.7857,-0.7657,-0.7591,-0.7591,-0.7526,-0.7657,-0.7722,-0.7587,-0.7591,-0.7591,-0.7591,-0.7591,-0.7396,-0.7396,-0.7591,-0.7466,-0.7138,-0.6806,-0.6482,-0.6412,-0.6671,-0.6539,-0.6605,-0.6478,-0.6412,-0.6342,-0.6342,-0.6346,-0.6412,-0.6474,-0.6539,-0.6605,-0.6605,-0.6692,-2.6539,-2.6245,-2.5551,-2.5201,-2.51,-2.4982,-2.4773,-2.4467,-2.3668,-2.2491,-2.1464,-2.15,-2.1229,-2.0799,-2.0562,-2.0524,-2.0461,-2.0283,-2.022,-2.022,-2.022,-1.9695,-1.9069,-1.8578,-1.7941,-1.7423,-1.6931,-1.6591,-1.641,-1.641,-1.6363,-1.6202,-1.6077,-1.6124,-1.6192,-1.6202,-1.5904,-1.5604,-1.5118,-1.4883,-1.4172,-1.364,-1.3338,-1.292,-1.2621,-1.2428,-1.2428,-1.2428,-1.249,-1.2621,-1.2683,-1.2683,-1.2744,-1.2683,-1.256,-1.2428,-1.2305,-1.2243,-1.2058,-1.2127,-1.2003,-1.1685,-1.0968,-1.0332,-0.9646,-0.9011,-0.8501,-0.8182,-0.7987,-0.7857,-0.7787,-0.7521,-0.7521,-0.7461,-0.7461,-0.7461,-0.7526,-0.7521,-0.7521,-0.7526,-0.7461,-0.7456,-0.7396,-0.7396,-0.7396,-0.733,-0.7265,-0.733,-0.7391,-0.7391,-0.7326,-0.7326,-0.726,-0.7129,-0.6999,-0.6937,-0.6741,-0.6218,-0.5954,-0.569,-0.6152,-0.6478,-0.6083,-0.5686,-0.5749,-0.5745,-0.555,-0.5484,-0.5418,-0.5613,-0.5877,-0.6009,-0.6141,-0.6079,-0.5947,-2.6488,-2.5957,-2.5323,-2.495,-2.4822,-2.4782,-2.4694,-2.449,-2.3656,-2.2814,-2.2033,-2.1589,-2.1229,-2.0749,-2.0562,-2.0461,-2.041,-2.0233,-2.0131,-2.0131,-2.008,-1.9331,-1.8727,-1.8298,-1.7667,-1.6853,-1.6363,-1.6306,-1.6114,-1.6124,-1.6019,-1.5914,-1.5856,-1.5788,-1.5798,-1.5682,-1.5371,-1.5186,-1.505,-1.451,-1.3623,-1.3571,-1.3216,-1.2797,-1.2436,-1.2436,-1.2436,-1.2498,-1.2498,-1.256,-1.256,-1.2621,-1.2621,-1.2621,-1.2621,-1.2498,-1.2375,-1.2058,-1.1864,-1.1934,-1.1685,-1.1303,-1.0843,-1.0401,-0.9703,-0.8877,-0.8301,-0.7852,-0.7657,-0.7591,-0.7456,-0.7461,-0.7461,-0.7396,-0.7396,-0.7396,-0.7456,-0.7456,-0.7456,-0.7456,-0.7456,-0.7391,-0.7199,-0.7199,-0.7199,-0.7138,-0.7068,-0.7003,-0.6999,-0.6994,-0.6994,-0.7064,-0.6999,-0.6868,-0.6605,-0.6141,-0.5745,-0.5219,-0.5422,-0.5355,-0.5818,-0.5818,-0.5219,-0.4888,-0.508,-0.5014,-0.4686,-0.4486,-0.435,-0.4616,-0.4882,-0.5216,-0.5286,-0.509,-0.4957,-2.6352,-2.6142,-2.5137,-2.4726,-2.4645,-2.4508,-2.4446,-2.4425,-2.394,-2.3143,-2.1927,-2.1913,-2.141,-2.0712,-2.0398,-2.0283,-2.0182,-2.0016,-1.9862,-1.9823,-1.9823,-1.9174,-1.8578,-1.8027,-1.7379,-1.6786,-1.6296,-1.6019,-1.5961,-1.5904,-1.5778,-1.573,-1.5498,-1.5381,-1.5323,-1.5274,-1.5137,-1.5001,-1.4923,-1.4204,-1.3373,-1.3199,-1.285,-1.2428,-1.2189,-1.2182,-1.2251,-1.2251,-1.2313,-1.2375,-1.2498,-1.256,-1.2621,-1.256,-1.256,-1.2243,-1.2058,-1.1872,-1.1685,-1.156,-1.1303,-1.0724,-1.0078,-0.9703,-0.9198,-0.8683,-0.7972,-0.7652,-0.7396,-0.7396,-0.733,-0.7265,-0.7269,-0.7204,-0.7204,-0.7204,-0.7265,-0.7265,-0.733,-0.7396,-0.733,-0.7199,-0.7073,-0.7007,-0.7007,-0.6942,-0.6876,-0.6741,-0.6671,-0.6666,-0.6465,-0.6465,-0.6203,-0.6005,-0.5408,-0.4948,-0.4619,-0.4289,-0.4492,-0.4558,-0.4492,-0.4356,-0.4023,-0.3956,-0.4084,-0.3954,-0.3692,-0.3556,-0.3487,-0.3489,-0.3756,-0.4159,-0.4425,-0.4295,-0.4295,-2.6351,-2.6071,-2.5176,-2.467,-2.4441,-2.4276,-2.425,-2.4265,-2.4046,-2.3172,-2.2038,-2.1866,-2.1375,-2.0649,-2.0296,-2.0144,-2.008,-1.9914,-1.9759,-1.9668,-1.9552,-1.8898,-1.8363,-1.782,-1.7168,-1.6616,-1.6124,-1.5914,-1.5798,-1.5556,-1.5439,-1.5186,-1.4961,-1.4793,-1.4675,-1.4606,-1.4606,-1.4597,-1.4519,-1.4094,-1.3494,-1.2948,-1.2712,-1.212,-1.1934,-1.1996,-1.2058,-1.2065,-1.2189,-1.2243,-1.2428,-1.2498,-1.256,-1.2621,-1.2436,-1.2182,-1.2058,-1.1872,-1.1622,-1.1435,-1.0919,-1.0275,-0.9633,-0.9122,-0.8549,-0.7972,-0.7587,-0.7265,-0.7204,-0.7204,-0.7138,-0.7073,-0.7007,-0.6946,-0.6946,-0.6946,-0.7012,-0.7073,-0.7138,-0.7204,-0.7138,-0.7007,-0.6946,-0.6811,-0.6745,-0.6679,-0.6679,-0.6613,-0.6474,-0.6338,-0.5939,-0.5606,-0.5276,-0.4948,-0.4417,-0.4084,-0.402,-0.3823,-0.3758,-0.3758,-0.336,-0.336,-0.3424,-0.3224,-0.2956,-0.2891,-0.2958,-0.2824,-0.2824,-0.2824,-0.2891,-0.3157,-0.3489,-0.3692,-0.3761,-2.6401,-2.5924,-2.5269,-2.4686,-2.4208,-2.4024,-2.3982,-2.3927,-2.3866,-2.3227,-2.2193,-2.1602,-2.1109,-2.0562,-2.0207,-2.0042,-1.9978,-1.9862,-1.9708,-1.9552,-1.9344,-1.8738,-1.7984,-1.7556,-1.6775,-1.6181,-1.5798,-1.5672,-1.5566,-1.5264,-1.4902,-1.4469,-1.441,-1.4231,-1.4001,-1.4001,-1.4001,-1.4001,-1.4291,-1.4213,-1.3243,-1.3061,-1.3243,-1.2174,-1.1934,-1.1941,-1.1996,-1.2058,-1.2127,-1.2243,-1.2305,-1.2436,-1.256,-1.256,-1.2367,-1.2182,-1.2058,-1.1872,-1.1622,-1.1373,-1.0787,-1.0275,-0.9767,-0.893,-0.8096,-0.7712,-0.7391,-0.7138,-0.7073,-0.7007,-0.6942,-0.6942,-0.6876,-0.6749,-0.6749,-0.6815,-0.6876,-0.6937,-0.7007,-0.7007,-0.6937,-0.6811,-0.6346,-0.6276,-0.6009,-0.6148,-0.6218,-0.6218,-0.5947,-0.5741,-0.5477,-0.4878,-0.4215,-0.3885,-0.3751,-0.3551,-0.3685,-0.3553,-0.3357,-0.3224,-0.309,-0.3023,-0.2956,-0.2757,-0.2555,-0.2421,-0.2354,-0.2356,-0.2421,-0.2421,-0.2421,-0.2285,-0.2487,-0.2956,-0.3291,-2.6245,-2.5684,-2.4791,-2.4193,-2.3925,-2.3882,-2.3739,-2.3553,-2.3639,-2.3109,-2.2278,-2.1616,-2.1073,-2.0461,-2.0144,-1.999,-1.9926,-1.9823,-1.9656,-1.9344,-1.9133,-1.8471,-1.7424,-1.7045,-1.6322,-1.5758,-1.5488,-1.5488,-1.5323,-1.4961,-1.4538,-1.424,-1.4052,-1.3692,-1.3511,-1.3511,-1.3519,-1.3268,-1.3571,-1.3364,-1.2266,-1.16,-1.1296,-1.1122,-1.1185,-1.1435,-1.156,-1.1747,-1.1996,-1.2182,-1.2297,-1.2428,-1.256,-1.2428,-1.2305,-1.2127,-1.1996,-1.1809,-1.1622,-1.131,-1.0724,-0.9958,-0.932,-0.8484,-0.7842,-0.7647,-0.7326,-0.7073,-0.6876,-0.6811,-0.6745,-0.6745,-0.6679,-0.6618,-0.6552,-0.6613,-0.6741,-0.6741,-0.6811,-0.6811,-0.6741,-0.6408,-0.6009,-0.5679,-0.5345,-0.5286,-0.5292,-0.5229,-0.4821,-0.4553,-0.4815,-0.4217,-0.322,-0.282,-0.282,-0.2952,-0.3088,-0.3088,-0.2891,-0.2755,-0.2753,-0.2688,-0.2622,-0.2421,-0.2288,-0.2221,-0.2221,-0.2221,-0.2221,-0.2221,-0.2221,-0.222,-0.2218,-0.2554,-0.2889,-2.5313,-2.4612,-2.3878,-2.3485,-2.3405,-2.3603,-2.361,-2.3481,-2.347,-2.2932,-2.2024,-2.1256,-2.0625,-2.0246,-2.0029,-1.9926,-1.9862,-1.9772,-1.9617,-1.9303,-1.8869,-1.8201,-1.7424,-1.681,-1.6197,-1.5633,-1.5362,-1.5254,-1.5088,-1.4843,-1.4478,-1.413,-1.37,-1.3329,-1.3147,-1.3033,-1.2903,-1.2466,-1.272,-1.2151,-1.1344,-1.1163,-1.0989,-1.0989,-1.0807,-1.0996,-1.1122,-1.1373,-1.1685,-1.1934,-1.212,-1.2243,-1.2313,-1.2243,-1.2127,-1.1996,-1.1872,-1.1747,-1.156,-1.1178,-1.0598,-0.9767,-0.9,-0.8231,-0.7129,-0.6872,-0.6872,-0.6613,-0.6613,-0.6613,-0.6544,-0.6478,-0.6482,-0.6416,-0.642,-0.6486,-0.6548,-0.6548,-0.6613,-0.6548,-0.6548,-0.6482,-0.6083,-0.5675,-0.5345,-0.5077,-0.502,-0.4558,-0.409,-0.3556,-0.382,-0.3754,-0.2753,-0.2287,-0.242,-0.2487,-0.2488,-0.2488,-0.2488,-0.2488,-0.2488,-0.2354,-0.2221,-0.2221,-0.2221,-0.2221,-0.2221,-0.2221,-0.2221,-0.2221,-0.2221,-0.2221,-0.222,-0.2218,-0.2488,-2.4178,-2.3272,-2.2847,-2.2701,-2.2836,-2.3221,-2.3448,-2.3437,-2.3337,-2.272,-2.1664,-2.0636,-2.0144,-1.999,-1.9862,-1.9798,-1.9759,-1.9668,-1.9525,-1.9316,-1.9105,-1.8321,-1.7644,-1.7034,-1.6197,-1.5642,-1.5313,-1.5079,-1.4911,-1.4666,-1.4359,-1.4001,-1.3571,-1.3147,-1.2674,-1.2375,-1.2305,-1.1794,-1.1608,-1.1045,-1.0975,-1.1219,-1.0982,-1.0737,-1.0618,-1.0681,-1.0807,-1.0996,-1.131,-1.156,-1.1872,-1.1996,-1.2058,-1.2058,-1.1996,-1.1864,-1.1802,-1.1685,-1.1498,-1.1122,-1.0281,-0.9442,-0.8807,-0.7907,-0.6872,-0.6482,-0.6482,-0.6416,-0.6416,-0.635,-0.628,-0.628,-0.628,-0.6284,-0.6354,-0.642,-0.642,-0.6416,-0.6416,-0.635,-0.635,-0.6354,-0.6017,-0.5613,-0.5213,-0.4945,-0.4544,-0.4148,-0.3618,-0.3153,-0.2952,-0.2952,-0.2485,-0.222,-0.2153,-0.2221,-0.2221,-0.2288,-0.2287,-0.2221,-0.2221,-0.2221,-0.2221,-0.2221,-0.2221,-0.2221,-0.2221,-0.2221,-0.2221,-0.2221,-0.2221,-0.2221,-0.2221,-0.222,-0.222,-2.3587,-2.2561,-2.2163,-2.2169,-2.2524,-2.2661,-2.289,-2.3186,-2.3235,-2.2621,-2.1444,-2.0463,-1.9876,-1.999,-1.9862,-1.9747,-1.9656,-1.9617,-1.942,-1.9223,-1.8893,-1.8375,-1.7699,-1.6978,-1.6093,-1.5536,-1.5196,-1.502,-1.4843,-1.4488,-1.4189,-1.3941,-1.3631,-1.3208,-1.285,-1.2552,-1.2182,-1.1677,-1.1303,-1.0926,-1.0611,-1.0611,-1.0174,-0.9989,-0.9996,-1.018,-1.0371,-1.0624,-1.087,-1.1178,-1.1553,-1.1747,-1.1809,-1.1802,-1.1747,-1.174,-1.1677,-1.1622,-1.1373,-1.0926,-1.0085,-0.9506,-0.8807,-0.7777,-0.7003,-0.6548,-0.6482,-0.628,-0.628,-0.6214,-0.6145,-0.6214,-0.6148,-0.6218,-0.635,-0.6354,-0.642,-0.635,-0.628,-0.628,-0.6284,-0.6017,-0.5547,-0.508,-0.4553,-0.4084,-0.3215,-0.2818,-0.2751,-0.2418,-0.2217,-0.215,-0.2084,-0.2153,-0.2153,-0.2153,-0.2154,-0.2154,-0.2154,-0.2153,-0.2153,-0.2221,-0.2221,-0.2221,-0.2221,-0.2221,-0.2221,-0.2221,-0.2221,-0.2221,-0.2221,-0.2221,-0.2153,-0.2018,-0.1816]},{"header":{"parameterUnit":"m.s-1","parameterCategory":1,"la1":31.0,"la2":29.5877,"lo1":-88.7671,"lo2":-86.6584,"dy":0.0162,"dx":0.0185,"nx":115,"ny":88,"refTime":"2024-07-11T00:00:00:Z","depth":0,"parameterNumber":3,"parameterNumberName":"V-component_of_WINDS"},"data":[0.0,0.0,0.0,0.0,0.0,0.0,0.0,0.0,0.0,0.0,0.0,0.0,0.0,0.0,0.0,0.0,0.0,0.0,0.0,0.0,0.0,0.0,0.0,0.0,0.0,0.0,0.0,0.0,0.0,0.0,0.0,0.0,0.0,0.0,0.0,0.0,0.0,0.0,0.0,0.0,0.0,0.0,0.0,0.0,0.0,0.0,0.0,0.0,0.0,0.0,0.0,0.0,0.0,0.0,0.0,0.0,0.0,0.0,0.0,0.0,0.0,0.0,0.0,0.0,0.0,0.0,0.0,0.0,0.0,0.0,0.0,0.0,0.0,0.0,0.0,0.0,0.0,0.0,0.0,0.0,0.0,0.0,0.0,0.0,0.0,0.0,0.0,0.0,0.0,0.0,0.0,0.0,0.0,0.0,0.0,0.0,0.0,0.0,0.0,0.0,0.0,0.0,0.0,0.0,0.0,0.0,0.0,0.0,0.0,0.0,0.0,0.0,0.0,0.0,0.0,0.0,0.0,0.0,0.0,0.0,0.0,0.0,0.0,0.0,0.0,0.0,0.0,0.0,0.0,0.0,0.0,0.0,0.0,0.0,0.0,0.0,0.0,0.0,0.0,0.0,0.0,0.0,0.0,0.0,0.0,0.0,0.0,0.0,0.0,0.0,0.0,0.0,0.0,0.0,0.0,0.0,0.0,0.0,0.0,0.0,0.0,0.0,0.0,0.0,0.0,0.0,0.0,0.0,0.0,0.0,0.0,0.0,0.0,0.0,0.0,0.0,0.0,0.0,0.0,0.0,0.0,0.0,0.0,0.0,0.0,0.0,0.0,0.0,0.0,0.0,0.0,0.0,0.0,0.0,0.0,0.0,0.0,0.0,0.0,0.0,0.0,0.0,0.0,0.0,0.0,0.0,0.0,0.0,0.0,0.0,0.0,0.0,0.0,0.0,0.0,0.0,0.0,0.0,0.0,0.0,0.0,0.0,0.0,0.0,0.0,0.0,0.0,0.0,0.0,0.0,0.0,0.0,0.0,0.0,0.0,0.0,0.0,0.0,0.0,0.0,0.0,0.0,0.0,0.0,0.0,0.0,0.0,0.0,0.0,0.0,0.0,0.0,0.0,0.0,0.0,0.0,0.0,0.0,0.0,0.0,0.0,0.0,0.0,0.0,0.0,0.0,0.0,0.0,0.0,0.0,0.0,0.0,0.0,0.0,0.0,0.0,0.0,0.0,0.0,0.0,0.0,0.0,0.0,0.0,0.0,0.0,0.0,0.0,0.0,0.0,0.0,0.0,0.0,0.0,0.0,0.0,0.0,0.0,0.0,0.0,0.0,0.0,0.0,0.0,0.0,0.0,0.0,0.0,0.0,0.0,0.0,0.0,0.0,0.0,0.0,0.0,0.0,0.0,0.0,0.0,0.0,0.0,0.0,0.0,0.0,0.0,0.0,0.0,0.0,0.0,0.0,0.0,0.0,0.0,0.0,0.0,0.0,0.0,0.0,0.0,0.0,0.0,0.0,0.0,0.0,0.0,0.0,0.0,0.0,0.0,0.0,0.0,0.0,0.0,0.0,0.0,0.0,0.0,0.0,0.0,0.0,0.0,0.0,0.0,0.0,0.0,0.0,0.0,0.0,0.0,0.0,0.0,0.0,0.0,0.0,0.0,0.0,0.0,0.0,0.0,0.0,0.0,0.0,0.0,0.0,0.0,0.0,0.0,0.0,0.0,0.0,0.0,0.0,0.0,0.0,0.0,0.0,0.0,0.0,0.0,0.0,0.0,0.0,0.0,0.0,0.0,0.0,0.0,0.0,0.0,0.0,0.0,0.0,0.0,0.0,0.0,0.0,0.0,0.0,0.0,0.0,0.0,0.0,0.0,0.0,0.0,0.0,0.0,0.0,0.0,0.0,0.0,0.0,0.0,0.0,0.0,0.0,0.0,0.0,0.0,0.0,0.0,0.0,0.0,0.0,0.0,0.0,0.0,0.0,0.0,0.0,0.0,0.0,0.0,0.0,0.0,0.0,0.0,0.0,0.0,0.0,0.0,0.0,0.0,0.0,0.0,0.0,0.0,0.0,0.0,0.0,0.0,0.0,0.0,0.0,0.0,0.0,0.0,0.0,0.0,0.0,0.0,0.0,0.0,0.0,0.0,0.0,0.0,0.0,0.0,0.0,0.0,0.0,0.0,0.0,0.0,0.0,0.0,0.0,0.0,0.0,0.0,0.0,0.0,0.0,0.0,0.0,0.0,0.0,0.0,0.0,0.0,0.0,0.0,0.0,0.0,0.0,0.0,0.0,0.0,0.0,0.0,0.0,0.0,0.0,0.0,0.0,0.0,0.0,0.0,0.0,0.0,0.0,0.0,0.0,0.0,0.0,0.0,0.0,0.0,0.0,0.0,0.0,0.0,0.0,0.0,0.0,0.0,0.0,0.0,0.0,0.0,0.0,0.0,0.0,0.0,0.0,0.0,0.0,0.0,0.0,0.0,0.0,0.0,0.0,0.0,0.0,0.0,0.0,0.0,0.0,0.0,0.0,0.0,0.0,0.0,0.0,0.0,0.0,0.0,0.0,0.0,0.0,0.0,0.0,0.0,0.0,0.0,0.0,0.0,0.0,0.0,0.0,0.0,0.0,0.0,0.0,0.0,0.0,0.0,0.0,0.0,0.0,0.0,0.0,0.0,0.0,0.0,0.0,0.0,0.0,0.0,0.0,0.0,0.0,0.0,0.0,0.0,0.0,0.0,0.0,0.0,0.0,0.0,0.0,0.0,0.0,0.0,0.0,0.0,0.0,0.0,0.0,0.0,0.0,0.0,0.0,0.0,0.0,0.0,0.0,0.0,0.0,0.0,0.0,0.0,0.0,0.0,0.0,0.0,0.0,0.0,0.0,0.0,0.0,0.0,0.0,0.0,0.0,0.0,0.0,0.0,0.0,0.0,0.0,0.0,0.0,0.0,0.0,0.0,0.0,0.0,0.0,0.0,0.0,0.0,0.0,0.0,0.0,0.0,0.0,0.0,0.0,0.0,0.0,0.0,0.0,0.0,0.0,0.0,0.0,0.0,0.0,0.0,0.0,0.0,0.0,0.0,0.0,0.0,0.0,0.0,0.0,0.0,0.0,0.0,0.0,0.0,0.0,0.0,0.0,0.0,0.0,0.0,0.0,0.0,0.0,0.0,0.0,0.0,0.0,0.0,0.0,0.0,0.0,0.0,0.0,0.0,0.0,0.0,0.0,0.0,0.0,0.0,0.0,0.0,0.0,0.0,0.0,0.0,0.0,0.0,0.0,0.0,0.0,0.0,0.0,0.0,0.0,0.0,0.0,0.0,0.0,0.0,0.0,0.0,0.0,0.0,0.0,0.0,0.0,0.0,0.0,0.0,0.0,0.0,0.0,0.0,0.0,0.0,0.0,0.0,0.0,0.0,0.0,0.0,0.0,0.0,0.0,0.0,0.0,0.0,0.0,0.0,0.0,0.0,0.0,0.0,0.0,0.0,0.0,0.0,0.0,0.0,0.0,0.0,0.0,0.0,0.0,0.0,0.0,0.0,0.0,0.0,0.0,0.0,0.0,0.0,0.0,0.0,0.0,0.0,0.0,0.0,0.0,0.0,0.0,0.0,0.0,0.0,0.0,0.0,0.0,0.0,0.0,0.0,0.0,0.0,0.0,0.0,0.0,0.0,0.0,0.0,0.0,0.0,0.0,0.0,0.0,0.0,0.0,0.0,0.0,0.0,0.0,0.0,0.0,0.0,0.0,0.0,0.0,0.0,0.0,0.0,0.0,0.0,0.0,0.0,0.0,0.0,0.0,0.0,0.0,0.0,0.0,0.0,0.0,0.0,0.0,0.0,0.0,0.0,0.0,0.0,0.0,0.0,0.0,0.0,0.0,0.0,0.0,0.0,0.0,0.0,0.0,0.0,0.0,0.0,0.0,0.0,0.0,0.0,0.0,0.0,0.0,0.0,0.0,0.0,0.0,0.0,0.0,0.0,0.0,0.0,0.0,0.0,0.0,0.0,0.0,0.0,0.0,0.0,0.0,0.0,0.0,0.0,0.0,0.0,0.0,0.0,0.0,0.0,0.0,0.0,0.0,0.0,0.0,0.0,0.0,0.0,0.0,0.0,0.0,0.0,0.0,0.0,0.0,0.0,0.0,0.0,0.0,0.0,0.0,0.0,0.0,0.0,0.0,0.0,0.0,0.0,0.0,0.0,0.0,0.0,0.0,0.0,0.0,0.0,0.0,0.0,0.0,0.0,0.0,0.0,0.0,0.0,-1.4266,0.0,0.0,0.0,0.0,0.0,0.0,0.0,0.0,0.0,0.0,0.0,0.0,0.0,0.0,0.0,0.0,0.0,0.0,0.0,0.0,0.0,0.0,0.0,0.0,0.0,0.0,0.0,0.0,0.0,0.0,0.0,0.0,0.0,0.0,0.0,0.0,0.0,0.0,0.0,0.0,0.0,0.0,0.0,0.0,0.0,0.0,0.0,0.0,0.0,0.0,0.0,0.0,0.0,0.0,0.0,0.0,0.0,0.0,0.0,0.0,0.0,0.0,0.0,0.0,0.0,0.0,0.0,0.0,0.0,0.0,0.0,0.0,0.0,0.0,0.0,0.0,0.0,0.0,0.0,0.0,0.0,0.0,0.0,0.0,0.0,0.0,0.0,0.0,0.0,0.0,0.0,0.0,0.0,0.0,0.0,0.0,0.0,0.0,0.0,0.0,0.0,0.0,0.0,0.0,0.0,0.0,0.0,0.0,0.0,0.0,-1.2717,-1.3168,-1.4399,-1.4991,-1.4952,0.0,0.0,0.0,0.0,0.0,0.0,0.0,0.0,0.0,0.0,0.0,0.0,0.0,0.0,0.0,0.0,0.0,0.0,0.0,0.0,0.0,0.0,0.0,0.0,0.0,0.0,0.0,0.0,0.0,0.0,0.0,0.0,0.0,0.0,0.0,0.0,0.0,0.0,0.0,0.0,0.0,0.0,0.0,0.0,0.0,0.0,0.0,0.0,0.0,0.0,0.0,0.0,0.0,0.0,0.0,0.0,0.0,0.0,0.0,0.0,0.0,0.0,0.0,0.0,0.0,0.0,0.0,0.0,0.0,0.0,0.0,0.0,0.0,0.0,0.0,0.0,0.0,0.0,0.0,0.0,0.0,0.0,0.0,0.0,0.0,0.0,0.0,0.0,0.0,0.0,0.0,0.0,0.0,0.0,0.0,0.0,0.0,0.0,0.0,0.0,0.0,0.0,0.0,0.0,0.0,0.0,0.0,0.0,0.0,0.0,0.0,0.0,-1.4597,-1.5286,-1.5234,0.0,0.0,0.0,0.0,0.0,0.0,0.0,0.0,0.0,0.0,0.0,0.0,0.0,0.0,0.0,0.0,0.0,0.0,0.0,0.0,0.0,0.0,0.0,0.0,0.0,0.0,0.0,0.0,0.0,0.0,0.0,0.0,0.0,0.0,0.0,0.0,0.0,0.0,0.0,0.0,0.0,0.0,0.0,0.0,0.0,0.0,0.0,0.0,0.0,0.0,0.0,0.0,0.0,0.0,0.0,0.0,0.0,0.0,0.0,0.0,0.0,0.0,0.0,0.0,0.0,0.0,0.0,0.0,0.0,0.0,0.0,0.0,0.0,0.0,0.0,0.0,0.0,0.0,0.0,0.0,0.0,0.0,0.0,0.0,0.0,0.0,0.0,0.0,0.0,0.0,0.0,0.0,0.0,0.0,0.0,0.0,0.0,0.0,0.0,0.0,0.0,0.0,0.0,0.0,0.0,0.0,0.0,0.0,0.0,0.0,-1.3145,-1.324,-1.4701,0.0,-1.4287,0.0,0.0,0.0,0.0,0.0,0.0,0.0,0.0,0.0,0.0,0.0,0.0,0.0,0.0,0.0,0.0,0.0,0.0,0.0,0.0,0.0,0.0,0.0,0.0,0.0,0.0,0.0,0.0,0.0,0.0,0.0,0.0,0.0,0.0,0.0,0.0,0.0,0.0,0.0,0.0,0.0,0.0,0.0,0.0,0.0,0.0,0.0,0.0,0.0,0.0,0.0,0.0,0.0,0.0,0.0,0.0,0.0,0.0,0.0,0.0,0.0,0.0,0.0,0.0,0.0,0.0,0.0,0.0,0.0,0.0,0.0,0.0,0.0,0.0,0.0,0.0,0.0,0.0,0.0,0.0,0.0,0.0,0.0,0.0,0.0,0.0,0.0,0.0,0.0,0.0,0.0,0.0,0.0,0.0,0.0,0.0,0.0,0.0,0.0,0.0,0.0,0.0,0.0,0.0,0.0,0.0,0.0,0.0,0.0,0.0,-1.2692,-1.2974,-1.4715,-1.5267,0.0,0.0,0.0,0.0,0.0,0.0,0.0,0.0,0.0,0.0,0.0,0.0,0.0,0.0,0.0,0.0,0.0,0.0,0.0,0.0,0.0,0.0,0.0,0.0,0.0,0.0,0.0,0.0,0.0,0.0,0.0,0.0,0.0,0.0,0.0,0.0,0.0,0.0,0.0,0.0,0.0,0.0,0.0,0.0,0.0,0.0,0.0,0.0,0.0,0.0,0.0,0.0,0.0,0.0,0.0,0.0,0.0,0.0,0.0,0.0,0.0,0.0,0.0,0.0,0.0,0.0,0.0,0.0,0.0,0.0,0.0,0.0,0.0,0.0,0.0,0.0,0.0,0.0,0.0,0.0,0.0,0.0,0.0,0.0,0.0,0.0,0.0,0.0,0.0,0.0,0.0,0.0,0.0,0.0,0.0,0.0,0.0,0.0,0.0,0.0,0.0,0.0,0.0,0.0,0.0,0.0,0.0,0.0,0.0,0.0,-1.1346,0.0,-1.3131,-1.4664,-1.5202,-1.4681,0.0,0.0,0.0,0.0,0.0,0.0,0.0,0.0,0.0,0.0,0.0,0.0,0.0,0.0,0.0,0.0,0.0,0.0,0.0,0.0,0.0,0.0,0.0,0.0,0.0,0.0,0.0,0.0,0.0,0.0,0.0,0.0,0.0,0.0,0.0,0.0,0.0,0.0,0.0,0.0,0.0,0.0,0.0,0.0,0.0,0.0,0.0,0.0,0.0,0.0,0.0,0.0,0.0,0.0,0.0,0.0,0.0,0.0,0.0,0.0,0.0,0.0,0.0,0.0,0.0,0.0,0.0,0.0,0.0,0.0,0.0,0.0,0.0,0.0,0.0,0.0,0.0,0.0,0.0,0.0,0.0,0.0,0.0,0.0,0.0,0.0,0.0,0.0,0.0,0.0,0.0,0.0,0.0,0.0,0.0,0.0,0.0,0.0,0.0,0.0,0.0,0.0,0.0,0.0,0.0,0.0,0.0,0.0,0.0,-1.1102,-1.2164,-1.3877,-1.4434,-1.4645,0.0,0.0,0.0,0.0,0.0,0.0,0.0,0.0,0.0,0.0,0.0,0.0,0.0,0.0,0.0,0.0,0.0,0.0,0.0,0.0,0.0,0.0,0.0,0.0,0.0,0.0,0.0,0.0,0.0,0.0,0.0,0.0,0.0,0.0,0.0,0.0,0.0,0.0,0.0,0.0,0.0,0.0,0.0,0.0,0.0,0.0,0.0,0.0,0.0,0.0,0.0,0.0,0.0,0.0,0.0,0.0,0.0,0.0,0.0,0.0,0.0,0.0,0.0,0.0,0.0,0.0,0.0,0.0,0.0,0.0,0.0,0.0,0.0,0.0,0.0,0.0,0.0,0.0,0.0,0.0,0.0,0.0,0.0,0.0,0.0,0.0,0.0,0.0,0.0,0.0,0.0,0.0,0.0,0.0,0.0,0.0,0.0,0.0,0.0,0.0,0.0,0.0,0.0,0.0,0.0,0.0,0.0,0.0,0.0,-0.9428,-1.043,-1.1889,-1.3691,-1.3905,-1.3989,0.0,0.0,0.0,0.0,0.0,0.0,0.0,0.0,0.0,0.0,0.0,0.0,0.0,0.0,0.0,0.0,0.0,0.0,0.0,0.0,0.0,0.0,0.0,0.0,0.0,0.0,0.0,0.0,0.0,0.0,0.0,0.0,0.0,0.0,0.0,0.0,0.0,0.0,0.0,0.0,0.0,0.0,0.0,0.0,0.0,0.0,0.0,0.0,0.0,0.0,0.0,0.0,0.0,0.0,0.0,0.0,0.0,0.0,0.0,0.0,0.0,0.0,0.0,0.0,0.0,0.0,0.0,0.0,0.0,0.0,0.0,0.0,0.0,0.0,0.0,0.0,0.0,0.0,0.0,0.0,0.0,0.0,0.0,0.0,0.0,0.0,0.0,0.0,0.0,0.0,0.0,0.0,0.0,0.0,0.0,0.0,0.0,0.0,0.0,0.0,0.0,0.0,0.0,0.0,0.0,0.0,0.0,0.0,0.0,-0.8701,0.0,-1.1367,0.0,-1.3125,-1.3346,0.0,0.0,0.0,0.0,0.0,0.0,0.0,0.0,0.0,0.0,0.0,0.0,0.0,0.0,0.0,0.0,0.0,0.0,0.0,0.0,0.0,0.0,0.0,0.0,0.0,0.0,0.0,0.0,0.0,0.0,0.0,0.0,0.0,0.0,0.0,0.0,0.0,0.0,0.0,0.0,0.0,0.0,0.0,0.0,0.0,0.0,0.0,0.0,0.0,0.0,0.0,0.0,0.0,0.0,0.0,0.0,0.0,0.0,0.0,0.0,0.0,0.0,0.0,0.0,0.0,0.0,0.0,0.0,0.0,0.0,0.0,0.0,0.0,0.0,0.0,0.0,0.0,0.0,0.0,0.0,0.0,0.0,0.0,0.0,0.0,0.0,0.0,0.0,0.0,0.0,0.0,0.0,0.0,0.0,0.0,0.0,0.0,0.0,0.0,0.0,0.0,0.0,0.0,0.0,0.0,0.0,0.0,0.0,-0.806,-0.8798,-0.9637,-1.0664,-1.168,-1.2254,-1.2784,0.0,0.0,0.0,0.0,0.0,0.0,0.0,0.0,0.0,0.0,0.0,0.0,0.0,0.0,0.0,0.0,0.0,0.0,0.0,0.0,0.0,0.0,0.0,0.0,0.0,0.0,0.0,0.0,0.0,0.0,0.0,0.0,0.0,0.0,0.0,0.0,0.0,0.0,0.0,0.0,0.0,0.0,0.0,0.0,0.0,0.0,0.0,0.0,0.0,0.0,0.0,0.0,0.0,0.0,0.0,0.0,0.0,0.0,0.0,0.0,0.0,0.0,0.0,0.0,0.0,0.0,0.0,0.0,0.0,0.0,0.0,0.0,0.0,0.0,0.0,0.0,0.0,0.0,0.0,0.0,0.0,0.0,0.0,0.0,0.0,0.0,0.0,0.0,0.0,0.0,0.0,0.0,0.0,0.0,0.0,0.0,0.0,0.0,0.0,0.0,0.0,0.0,0.0,0.0,0.0,0.0,0.0,0.0,0.0,-0.9017,-1.0415,-1.1446,-1.2224,-1.3007,-1.3539,0.0,0.0,0.0,0.0,0.0,0.0,0.0,0.0,0.0,0.0,0.0,0.0,0.0,0.0,0.0,0.0,0.0,0.0,0.0,0.0,0.0,0.0,0.0,0.0,0.0,0.0,0.0,0.0,0.0,0.0,0.0,0.0,0.0,0.0,0.0,0.0,0.0,0.0,0.0,0.0,0.0,0.0,0.0,0.0,0.0,0.0,0.0,0.0,0.0,0.0,0.0,0.0,0.0,0.0,0.0,0.0,0.0,0.0,0.0,0.0,0.0,0.0,0.0,0.0,0.0,0.0,0.0,0.0,0.0,0.0,0.0,0.0,0.0,0.0,0.0,0.0,0.0,0.0,0.0,0.0,0.0,0.0,0.0,0.0,0.0,0.0,0.0,0.0,0.0,0.0,0.0,0.0,0.0,0.0,0.0,0.0,0.0,0.0,0.0,0.0,0.0,0.0,0.0,0.0,0.0,0.0,0.0,0.0,0.0,-0.988,-1.1404,-1.2513,-1.3071,-1.3916,-1.4341,-1.4297,0.0,0.0,0.0,0.0,0.0,0.0,0.0,0.0,0.0,0.0,0.0,0.0,0.0,0.0,0.0,0.0,0.0,0.0,0.0,0.0,0.0,0.0,0.0,0.0,0.0,0.0,0.0,0.0,0.0,0.0,0.0,0.0,0.0,0.0,0.0,0.0,0.0,0.0,0.0,0.0,0.0,0.0,0.0,0.0,0.0,0.0,0.0,0.0,0.0,0.0,0.0,0.0,0.0,0.0,0.0,0.0,0.0,0.0,0.0,0.0,0.0,0.0,0.0,0.0,0.0,0.0,0.0,0.0,0.0,0.0,0.0,0.0,0.0,0.0,0.0,0.0,0.0,0.0,0.0,0.0,0.0,0.0,0.0,0.0,0.0,0.0,0.0,0.0,0.0,0.0,0.0,0.0,0.0,0.0,0.0,0.0,0.0,0.0,0.0,0.0,0.0,0.0,0.0,0.0,0.0,0.0,0.0,0.0,-1.1129,-1.252,-1.3616,-1.4171,-1.4833,-1.5157,0.0,0.0,0.0,0.0,0.0,0.0,0.0,0.0,0.0,0.0,0.0,0.0,0.0,0.0,0.0,0.0,0.0,0.0,0.0,0.0,0.0,0.0,0.0,0.0,0.0,0.0,0.0,0.0,0.0,0.0,0.0,0.0,0.0,0.0,0.0,0.0,0.0,0.0,0.0,0.0,0.0,0.0,0.0,0.0,0.0,0.0,0.0,0.0,0.0,0.0,0.0,0.0,0.0,0.0,0.0,0.0,0.0,0.0,0.0,0.0,0.0,0.0,0.0,0.0,0.0,0.0,0.0,0.0,0.0,0.0,0.0,0.0,0.0,0.0,0.0,0.0,0.0,0.0,0.0,0.0,0.0,0.0,0.0,0.0,0.0,0.0,0.0,0.0,0.0,0.0,0.0,0.0,0.0,0.0,0.0,0.0,0.0,0.0,0.0,0.0,0.0,0.0,0.0,0.0,0.0,0.0,0.0,0.0,0.0,-1.1284,-1.3548,-1.4765,-1.4778,-1.6105,-1.6588,0.0,0.0,0.0,0.0,0.0,0.0,0.0,0.0,0.0,0.0,0.0,0.0,0.0,0.0,0.0,0.0,0.0,0.0,0.0,0.0,0.0,0.0,0.0,0.0,0.0,0.0,0.0,0.0,0.0,0.0,0.0,0.0,0.0,0.0,0.0,0.0,0.0,0.0,0.0,0.0,0.0,0.0,0.0,0.0,0.0,0.0,0.0,0.0,0.0,0.0,0.0,0.0,0.0,0.0,0.0,0.0,0.0,0.0,0.0,0.0,0.0,0.0,0.0,0.0,0.0,0.0,0.0,0.0,0.0,0.0,0.0,0.0,0.0,0.0,0.0,0.0,0.0,0.0,0.0,0.0,0.0,0.0,0.0,0.0,0.0,0.0,0.0,0.0,0.0,0.0,0.0,0.0,0.0,0.0,0.0,0.0,0.0,0.0,0.0,0.0,0.0,0.0,0.0,0.0,0.0,0.0,0.0,0.0,-1.2054,-1.2653,-1.4928,-1.617,-1.5992,-1.6701,-1.6975,0.0,0.0,0.0,0.0,0.0,0.0,0.0,0.0,0.0,0.0,0.0,0.0,0.0,0.0,0.0,0.0,0.0,0.0,0.0,0.0,0.0,0.0,0.0,0.0,0.0,0.0,0.0,0.0,0.0,0.0,0.0,0.0,0.0,0.0,0.0,0.0,0.0,0.0,0.0,0.0,0.0,0.0,0.0,0.0,0.0,0.0,0.0,0.0,0.0,0.0,0.0,0.0,0.0,0.0,0.0,0.0,0.0,0.0,0.0,0.0,0.0,0.0,0.0,0.0,0.0,0.0,0.0,0.0,0.0,0.0,0.0,0.0,0.0,0.0,0.0,0.0,0.0,0.0,0.0,0.0,0.0,0.0,0.0,0.0,0.0,0.0,0.0,0.0,0.0,0.0,0.0,0.0,0.0,0.0,0.0,0.0,0.0,0.0,0.0,0.0,0.0,0.0,0.0,0.0,0.0,0.0,0.0,0.0,-1.3725,-1.4515,-1.6254,-1.7234,-1.734,-1.7026,-1.6936,0.0,0.0,0.0,0.0,0.0,0.0,0.0,0.0,0.0,0.0,0.0,0.0,0.0,0.0,0.0,0.0,0.0,0.0,0.0,0.0,0.0,0.0,0.0,0.0,0.0,0.0,0.0,0.0,0.0,0.0,0.0,0.0,0.0,0.0,0.0,0.0,0.0,0.0,0.0,0.0,0.0,0.0,0.0,0.0,0.0,0.0,0.0,0.0,0.0,0.0,0.0,0.0,0.0,0.0,0.0,0.0,0.0,0.0,0.0,0.0,0.0,0.0,0.0,0.0,0.0,0.0,0.0,0.0,0.0,0.0,0.0,0.0,0.0,0.0,0.0,0.0,0.0,0.0,0.0,0.0,0.0,0.0,0.0,0.0,0.0,0.0,0.0,0.0,0.0,0.0,0.0,0.0,0.0,0.0,0.0,0.0,0.0,0.0,0.0,0.0,0.0,0.0,0.0,0.0,0.0,0.0,0.0,0.0,-1.3732,-1.4515,-1.5449,-1.63,-1.7063,-1.7492,-1.77,0.0,0.0,0.0,0.0,0.0,0.0,0.0,0.0,0.0,0.0,0.0,0.0,0.0,0.0,0.0,0.0,0.0,0.0,0.0,0.0,0.0,0.0,0.0,0.0,0.0,0.0,0.0,0.0,0.0,0.0,0.0,0.0,0.0,0.0,0.0,0.0,0.0,0.0,0.0,0.0,0.0,0.0,0.0,0.0,0.0,0.0,0.0,0.0,-2.6489,0.0,0.0,0.0,0.0,0.0,0.0,0.0,0.0,0.0,0.0,0.0,0.0,0.0,0.0,0.0,0.0,0.0,0.0,0.0,0.0,0.0,0.0,0.0,0.0,0.0,0.0,0.0,0.0,0.0,0.0,0.0,0.0,0.0,0.0,0.0,0.0,0.0,0.0,0.0,0.0,0.0,0.0,0.0,0.0,0.0,0.0,0.0,0.0,0.0,0.0,0.0,0.0,0.0,0.0,0.0,0.0,0.0,0.0,0.0,-1.467,-1.5619,-1.5973,-1.6442,-1.7158,-1.7734,-1.7946,0.0,0.0,0.0,0.0,0.0,0.0,0.0,0.0,0.0,0.0,0.0,0.0,0.0,0.0,0.0,0.0,0.0,0.0,0.0,0.0,0.0,0.0,0.0,0.0,0.0,0.0,0.0,0.0,0.0,0.0,0.0,0.0,0.0,0.0,0.0,0.0,0.0,0.0,0.0,0.0,0.0,0.0,0.0,0.0,0.0,0.0,0.0,0.0,0.0,0.0,0.0,0.0,0.0,0.0,0.0,0.0,0.0,0.0,0.0,0.0,0.0,0.0,0.0,0.0,0.0,0.0,0.0,0.0,0.0,0.0,0.0,0.0,0.0,0.0,0.0,0.0,0.0,0.0,0.0,0.0,0.0,0.0,0.0,0.0,0.0,0.0,0.0,0.0,0.0,0.0,0.0,0.0,0.0,0.0,0.0,0.0,0.0,0.0,0.0,0.0,0.0,0.0,0.0,0.0,0.0,0.0,0.0,-1.4835,-1.5716,-1.7155,-1.6974,-1.7044,-1.7495,-1.7796,-1.7938,-1.7676,0.0,0.0,0.0,0.0,0.0,0.0,0.0,0.0,0.0,0.0,0.0,0.0,0.0,0.0,0.0,0.0,0.0,0.0,0.0,0.0,0.0,0.0,0.0,0.0,0.0,0.0,0.0,0.0,0.0,0.0,0.0,0.0,0.0,0.0,0.0,0.0,0.0,0.0,-1.98,-2.0957,0.0,0.0,0.0,0.0,0.0,0.0,0.0,0.0,-2.7378,0.0,0.0,0.0,0.0,0.0,0.0,0.0,0.0,0.0,0.0,0.0,0.0,0.0,0.0,0.0,0.0,0.0,0.0,0.0,0.0,0.0,0.0,0.0,0.0,0.0,0.0,0.0,0.0,0.0,0.0,0.0,0.0,0.0,0.0,0.0,0.0,0.0,0.0,0.0,0.0,0.0,0.0,0.0,0.0,0.0,0.0,0.0,0.0,0.0,0.0,0.0,0.0,0.0,0.0,0.0,0.0,-1.5466,-1.4965,-1.585,-1.8115,-1.7296,-1.7128,-1.785,-1.7679,-1.7514,-1.7319,0.0,0.0,0.0,0.0,0.0,0.0,0.0,0.0,0.0,0.0,0.0,0.0,0.0,0.0,0.0,0.0,0.0,0.0,0.0,0.0,0.0,0.0,0.0,0.0,0.0,0.0,0.0,0.0,0.0,0.0,0.0,0.0,0.0,0.0,0.0,0.0,0.0,0.0,0.0,-2.1044,-2.1836,0.0,0.0,0.0,0.0,0.0,0.0,0.0,0.0,-2.9203,0.0,0.0,0.0,0.0,0.0,0.0,0.0,0.0,0.0,0.0,0.0,0.0,0.0,0.0,0.0,0.0,0.0,0.0,0.0,0.0,0.0,0.0,0.0,0.0,0.0,0.0,0.0,0.0,0.0,0.0,0.0,0.0,0.0,0.0,0.0,0.0,0.0,0.0,0.0,0.0,0.0,0.0,0.0,0.0,0.0,0.0,0.0,0.0,0.0,0.0,0.0,0.0,0.0,0.0,0.0,-1.5172,-1.5466,-1.6285,-1.7913,-1.724,-1.7098,-1.7633,-1.7563,-1.7407,0.0,0.0,0.0,0.0,0.0,0.0,0.0,0.0,0.0,0.0,0.0,0.0,0.0,0.0,0.0,0.0,0.0,0.0,0.0,0.0,0.0,0.0,0.0,0.0,0.0,0.0,0.0,0.0,0.0,0.0,0.0,0.0,0.0,0.0,0.0,0.0,0.0,0.0,0.0,0.0,-2.0903,-2.1689,-2.3084,0.0,0.0,0.0,0.0,0.0,0.0,-2.8785,-2.9248,0.0,0.0,0.0,0.0,0.0,0.0,0.0,0.0,0.0,0.0,0.0,0.0,0.0,0.0,0.0,0.0,0.0,0.0,0.0,0.0,0.0,0.0,0.0,0.0,0.0,0.0,0.0,0.0,0.0,0.0,0.0,0.0,0.0,0.0,0.0,0.0,0.0,0.0,0.0,0.0,0.0,0.0,0.0,0.0,0.0,0.0,0.0,0.0,0.0,0.0,0.0,0.0,0.0,0.0,0.0,-1.4961,-1.5713,-1.6651,-1.7658,-1.7141,-1.7116,-1.7596,-1.7486,-1.7338,0.0,0.0,0.0,0.0,0.0,0.0,0.0,0.0,0.0,0.0,0.0,0.0,0.0,0.0,0.0,0.0,0.0,0.0,0.0,0.0,0.0,0.0,0.0,0.0,0.0,0.0,0.0,0.0,0.0,0.0,0.0,0.0,0.0,0.0,0.0,0.0,0.0,0.0,0.0,0.0,0.0,-2.1831,-2.3491,-2.3537,0.0,0.0,0.0,0.0,-2.7746,-2.8798,0.0,0.0,0.0,0.0,0.0,0.0,0.0,0.0,0.0,0.0,0.0,0.0,0.0,0.0,0.0,0.0,0.0,0.0,0.0,0.0,0.0,0.0,0.0,0.0,0.0,0.0,0.0,0.0,0.0,0.0,0.0,0.0,0.0,0.0,0.0,0.0,0.0,0.0,0.0,0.0,0.0,0.0,0.0,0.0,0.0,0.0,0.0,0.0,0.0,0.0,0.0,0.0,0.0,0.0,0.0,0.0,-1.493,-1.5386,-1.6453,-1.8098,-1.7348,-1.7415,-1.8505,-1.7427,-1.7066,0.0,0.0,0.0,0.0,0.0,0.0,0.0,0.0,0.0,0.0,0.0,0.0,0.0,0.0,0.0,0.0,0.0,0.0,0.0,0.0,0.0,0.0,0.0,0.0,0.0,0.0,0.0,0.0,0.0,0.0,0.0,0.0,0.0,0.0,0.0,0.0,0.0,0.0,0.0,0.0,0.0,-2.2182,-2.3397,-2.3468,-2.3899,0.0,0.0,-2.8045,-2.8886,-3.0691,0.0,0.0,0.0,0.0,0.0,0.0,0.0,0.0,0.0,0.0,0.0,0.0,0.0,0.0,0.0,0.0,0.0,0.0,0.0,0.0,0.0,0.0,0.0,0.0,0.0,0.0,0.0,0.0,0.0,0.0,0.0,0.0,0.0,0.0,0.0,0.0,0.0,0.0,0.0,0.0,0.0,0.0,0.0,0.0,0.0,0.0,0.0,0.0,0.0,0.0,0.0,0.0,0.0,0.0,0.0,-1.3696,-1.4904,-1.6038,-1.6954,-1.7777,-1.7596,-1.7734,-1.8341,-1.7523,-1.7179,0.0,0.0,0.0,0.0,0.0,0.0,0.0,0.0,0.0,0.0,0.0,0.0,0.0,0.0,0.0,0.0,0.0,0.0,0.0,0.0,0.0,0.0,0.0,0.0,0.0,0.0,0.0,0.0,0.0,0.0,0.0,0.0,0.0,0.0,0.0,0.0,0.0,0.0,0.0,0.0,0.0,0.0,-2.3379,-2.4137,0.0,0.0,0.0,-2.8332,-2.8504,0.0,0.0,0.0,0.0,0.0,0.0,0.0,0.0,0.0,0.0,0.0,0.0,0.0,0.0,0.0,0.0,0.0,0.0,0.0,0.0,0.0,0.0,0.0,0.0,0.0,0.0,0.0,0.0,0.0,0.0,0.0,0.0,0.0,0.0,0.0,0.0,0.0,0.0,0.0,0.0,0.0,0.0,0.0,0.0,0.0,0.0,0.0,0.0,0.0,0.0,0.0,0.0,0.0,0.0,0.0,0.0,0.0,-1.479,-1.6615,-1.7561,-1.7672,-1.7857,-1.8036,-1.8228,-1.7833,0.0,0.0,0.0,0.0,0.0,0.0,0.0,0.0,0.0,0.0,0.0,0.0,0.0,0.0,0.0,0.0,0.0,0.0,0.0,0.0,0.0,0.0,0.0,0.0,0.0,0.0,0.0,-1.2668,0.0,0.0,0.0,0.0,0.0,0.0,0.0,0.0,0.0,0.0,0.0,0.0,0.0,0.0,-2.3156,-2.3891,-2.5104,-2.6505,0.0,0.0,-2.8772,-2.8691,-3.075,-3.1501,0.0,0.0,0.0,0.0,0.0,0.0,0.0,0.0,0.0,0.0,0.0,0.0,0.0,0.0,0.0,0.0,0.0,0.0,0.0,0.0,0.0,0.0,0.0,0.0,0.0,0.0,0.0,0.0,0.0,0.0,0.0,0.0,0.0,0.0,0.0,0.0,0.0,0.0,0.0,0.0,0.0,0.0,0.0,0.0,0.0,0.0,0.0,0.0,0.0,0.0,0.0,0.0,0.0,0.0,0.0,-1.4786,-1.6721,-1.7847,-1.8035,-1.8227,-1.8461,-1.8635,-1.8478,-1.8031,0.0,0.0,0.0,0.0,0.0,0.0,0.0,0.0,0.0,0.0,0.0,0.0,0.0,0.0,0.0,0.0,0.0,0.0,0.0,0.0,0.0,0.0,0.0,0.0,0.0,0.0,0.0,0.0,0.0,0.0,0.0,0.0,0.0,0.0,0.0,0.0,0.0,0.0,0.0,0.0,0.0,-2.4362,-2.524,-2.6491,-2.8221,0.0,0.0,-2.9797,-3.0467,-3.1852,-3.1911,-2.9088,0.0,0.0,0.0,0.0,0.0,0.0,0.0,0.0,0.0,0.0,0.0,0.0,0.0,0.0,0.0,0.0,0.0,0.0,0.0,0.0,0.0,0.0,0.0,0.0,0.0,0.0,0.0,0.0,0.0,0.0,0.0,0.0,0.0,0.0,0.0,0.0,0.0,0.0,0.0,0.0,0.0,0.0,0.0,0.0,0.0,0.0,0.0,0.0,0.0,0.0,0.0,0.0,0.0,-1.4065,-1.472,-1.6242,-1.7459,-1.8217,-1.8461,-1.8815,-1.9305,-1.8804,-1.838,0.0,0.0,0.0,0.0,0.0,0.0,0.0,0.0,0.0,0.0,0.0,0.0,0.0,0.0,0.0,0.0,0.0,0.0,0.0,0.0,0.0,0.0,0.0,0.0,0.0,0.0,0.0,0.0,-1.5764,-1.6325,-1.7249,0.0,0.0,0.0,0.0,0.0,0.0,0.0,0.0,0.0,0.0,-2.4991,-2.66,-2.7773,0.0,0.0,-3.078,-3.0814,-3.1176,-3.1829,-3.1511,-2.9258,-2.932,0.0,0.0,0.0,0.0,0.0,0.0,0.0,0.0,0.0,0.0,0.0,0.0,0.0,0.0,0.0,0.0,0.0,0.0,0.0,0.0,0.0,0.0,0.0,0.0,0.0,0.0,0.0,0.0,0.0,0.0,0.0,0.0,0.0,0.0,0.0,0.0,0.0,0.0,0.0,0.0,0.0,0.0,0.0,0.0,0.0,0.0,0.0,0.0,0.0,0.0,0.0,0.0,-1.3955,-1.4605,-1.6165,-1.7308,-1.8122,-1.849,-1.8989,-1.9649,-1.9093,-1.8723,0.0,0.0,0.0,0.0,0.0,0.0,0.0,0.0,0.0,0.0,0.0,0.0,0.0,0.0,0.0,0.0,0.0,0.0,0.0,0.0,0.0,0.0,0.0,0.0,0.0,0.0,0.0,0.0,-1.6413,-1.7155,-1.8452,0.0,0.0,0.0,0.0,0.0,0.0,0.0,0.0,0.0,0.0,-2.6214,-2.7738,-2.8864,-2.9915,-3.0936,-3.1034,-3.1088,-3.118,-3.1438,-3.1119,-2.9608,0.0,0.0,0.0,0.0,0.0,0.0,0.0,0.0,0.0,0.0,0.0,0.0,0.0,0.0,0.0,0.0,0.0,0.0,0.0,0.0,0.0,0.0,0.0,0.0,0.0,0.0,0.0,0.0,0.0,0.0,-0.8427,0.0,0.0,0.0,0.0,0.0,0.0,0.0,0.0,0.0,0.0,0.0,0.0,0.0,0.0,0.0,0.0,0.0,0.0,0.0,0.0,0.0,0.0,-1.4362,-1.4334,-1.6554,-1.766,-1.755,-1.8255,-1.8961,-1.9551,-1.9427,-1.9114,-1.8714,0.0,0.0,0.0,0.0,0.0,0.0,0.0,0.0,0.0,0.0,0.0,0.0,0.0,0.0,0.0,0.0,0.0,0.0,0.0,0.0,0.0,0.0,0.0,0.0,0.0,0.0,-1.5126,-1.6238,-1.7544,0.0,0.0,0.0,0.0,0.0,0.0,0.0,0.0,0.0,0.0,-2.6186,-2.8092,-2.8703,-2.9631,-3.0542,-3.1406,-3.0946,-3.0521,-3.0586,-3.0814,-3.0777,0.0,0.0,0.0,0.0,0.0,0.0,0.0,0.0,0.0,0.0,0.0,0.0,0.0,0.0,0.0,0.0,0.0,0.0,0.0,0.0,0.0,0.0,0.0,0.0,0.0,0.0,0.0,-0.9798,-0.948,0.0,0.0,0.0,0.0,0.0,0.0,0.0,0.0,0.0,0.0,0.0,-1.2814,-1.3268,0.0,0.0,0.0,0.0,0.0,0.0,0.0,0.0,0.0,0.0,0.0,0.0,-1.3968,-1.4316,-1.5671,-1.6675,-1.7241,-1.7408,-1.8066,-1.923,-1.8784,-1.8506,-1.8419,0.0,0.0,0.0,0.0,0.0,0.0,0.0,0.0,0.0,0.0,0.0,0.0,0.0,0.0,0.0,0.0,0.0,0.0,0.0,0.0,0.0,0.0,0.0,0.0,0.0,-1.579,0.0,0.0,0.0,0.0,0.0,0.0,0.0,0.0,0.0,0.0,0.0,-2.4066,-2.5277,-2.6671,-2.7975,-2.9094,-3.0079,-3.1033,0.0,0.0,0.0,0.0,0.0,0.0,0.0,0.0,0.0,0.0,0.0,0.0,0.0,0.0,-3.1764,-3.0432,-3.0567,-3.0735,-3.0398,0.0,0.0,0.0,0.0,0.0,0.0,0.0,0.0,0.0,0.0,0.0,0.0,0.0,0.0,-1.1308,0.0,-1.1126,0.0,0.0,0.0,0.0,0.0,0.0,0.0,0.0,-1.2778,-1.3307,-1.4394,-1.4807,-1.5018,0.0,-1.5065,-1.4693,0.0,0.0,0.0,0.0,0.0,0.0,0.0,0.0,-1.438,-1.4374,-1.5669,-1.6533,-1.6854,-1.7002,-1.7829,-1.9349,-1.9159,-1.8939,-1.8892,-1.9095,-1.8971,0.0,0.0,0.0,0.0,0.0,0.0,0.0,0.0,0.0,0.0,0.0,0.0,0.0,0.0,0.0,0.0,0.0,0.0,0.0,0.0,0.0,0.0,0.0,-1.7119,0.0,0.0,0.0,0.0,0.0,0.0,0.0,0.0,0.0,-2.394,-2.489,-2.5921,-2.7028,-2.7919,-2.8741,-2.9522,0.0,0.0,0.0,0.0,0.0,0.0,0.0,-3.06,-3.0413,-3.0754,-3.1212,-3.1789,-3.2667,-3.3283,-3.3283,0.0,0.0,-3.1824,-3.1913,-3.2154,-3.2035,-3.199,-3.1901,-3.1632,-3.1586,-3.1601,0.0,0.0,0.0,0.0,0.0,0.0,0.0,0.0,-1.3421,-1.333,0.0,-1.2604,0.0,0.0,0.0,0.0,0.0,-1.2259,0.0,0.0,-1.4886,-1.5675,-1.6515,-1.6585,-1.6682,-1.6899,-1.6872,-1.667,-1.6191,-1.4908,0.0,0.0,0.0,0.0,0.0,0.0,-1.5489,-1.4469,-1.649,-1.7223,-1.6558,-1.7032,-1.8155,-1.9843,-2.0398,-2.0429,-1.999,-1.9534,-1.9377,-1.9558,-1.8546,0.0,0.0,0.0,0.0,0.0,0.0,0.0,0.0,0.0,0.0,0.0,0.0,0.0,0.0,0.0,0.0,0.0,0.0,0.0,0.0,-1.8035,0.0,0.0,0.0,0.0,0.0,0.0,0.0,0.0,0.0,0.0,-2.5384,-2.6362,-2.7545,-2.8716,0.0,0.0,0.0,0.0,-3.0599,-2.982,-2.9797,-2.9907,-2.995,-3.0759,-3.1536,-3.219,0.0,0.0,-3.3932,-3.3665,-3.3386,-3.3357,-3.4065,-3.4307,-3.3664,-3.3544,-3.3498,-3.3404,-3.3404,-3.3327,-3.3096,-3.3081,-3.3081,-1.2634,0.0,0.0,0.0,0.0,-1.3402,-1.3647,-1.395,-1.4501,-1.4556,-1.4318,-1.4559,0.0,0.0,0.0,0.0,0.0,0.0,-1.4609,-1.5739,-1.5343,-1.5713,-1.683,-1.683,-1.6839,-1.6908,-1.6908,-1.6913,-1.6921,-1.652,-1.557,-1.4105,0.0,0.0,0.0,0.0,-1.6387,-1.5667,-1.7124,-1.7591,-1.6884,-1.699,-1.7674,-1.8905,-1.9638,-2.0078,-2.0144,-1.9978,-1.986,-1.9729,-1.9439,0.0,0.0,0.0,0.0,0.0,0.0,0.0,0.0,0.0,0.0,0.0,0.0,0.0,0.0,0.0,0.0,0.0,0.0,0.0,-1.8083,-1.9006,-1.9684,0.0,0.0,0.0,0.0,0.0,0.0,0.0,0.0,0.0,-2.8265,-2.8303,-2.8339,0.0,0.0,-2.9323,-2.8768,-2.9761,-3.0695,-3.0951,-3.1183,0.0,0.0,-3.2091,-3.2246,-3.242,-3.3293,-3.3962,-3.414,-3.4535,-3.4872,-3.4857,-3.5021,-3.5145,-3.4996,-3.4921,-3.4921,-3.4872,-3.4872,-3.4807,-3.4584,-3.4569,-3.4569,-1.3759,-1.3763,-1.326,-1.35,-1.4171,-1.4497,-1.4915,-1.5405,-1.5865,-1.5987,-1.5817,-1.6004,-1.5889,-1.5476,-1.5324,0.0,0.0,0.0,-1.5957,-1.6763,-1.6251,-1.6455,-1.7107,-1.7116,-1.7116,-1.7116,-1.7116,-1.7176,-1.7304,-1.7154,-1.6524,-1.5383,0.0,0.0,-1.5453,-1.7295,-1.7698,-1.6717,-1.7892,-1.8222,-1.7468,-1.782,-1.8309,-1.891,-1.9552,-1.9978,-2.0169,-2.0296,-2.0293,-2.0152,-1.9917,-1.9603,0.0,0.0,0.0,0.0,0.0,0.0,0.0,0.0,0.0,0.0,0.0,-1.7725,-1.6834,0.0,0.0,0.0,-1.7634,-1.864,-1.9954,-2.0491,0.0,0.0,0.0,0.0,0.0,0.0,0.0,-2.6414,-2.8346,-2.9668,-2.9681,-2.9659,-2.9619,-2.9592,-2.9912,-3.0021,-2.9603,0.0,-3.1462,-3.1575,-3.1852,-3.2241,-3.2614,-3.2782,-3.3042,-3.3419,-3.378,-3.414,-3.4282,-3.4558,-3.4711,-3.4741,-3.4921,-3.5085,-3.5085,-3.5295,-3.5489,-3.5489,-3.5489,-3.5439,-3.5359,-3.5279,-3.5294,-1.4448,-1.4983,-1.4238,-1.4408,-1.5054,-1.5583,-1.6464,-1.7461,-1.7354,-1.7354,-1.752,-1.7154,-1.6741,-1.6332,-1.5961,0.0,-1.6379,-1.6778,-1.711,-1.7461,-1.7461,-1.7461,-1.7461,-1.7461,-1.7461,-1.7461,-1.7461,-1.747,-1.752,-1.7159,-1.6959,-1.7053,-1.767,-1.7752,-1.7399,-1.908,-1.9237,-1.7696,-1.8843,-1.9,-1.8236,-1.9121,-1.9617,-1.9617,-1.9875,-2.0029,-2.0195,-2.0398,-2.0562,-2.0686,-2.0152,-2.0087,-2.0505,0.0,0.0,0.0,0.0,0.0,0.0,0.0,0.0,0.0,0.0,0.0,0.0,0.0,0.0,0.0,-1.9767,0.0,-2.2246,-2.2321,0.0,0.0,0.0,-2.5039,-2.5811,-2.7464,-2.8563,-2.8573,0.0,0.0,-3.0214,-3.0699,-3.1266,-3.1875,-3.1903,-3.1777,-3.1503,-3.2097,-3.2458,-3.1905,-3.2176,-3.245,-3.2472,-3.2956,-3.3558,-3.4353,-3.4401,-3.4178,-3.4259,-3.3948,-3.3559,-3.3589,-3.4008,-3.4397,-3.4397,-3.4876,-3.534,-3.5265,-3.54,-3.5504,-3.5489,-3.5504,-3.5474,-1.4489,-1.4581,-1.574,-1.6238,-1.6364,-1.6968,-1.7338,-1.7647,-1.7794,-1.7862,-1.7872,-1.7755,-1.7649,-1.7561,-1.7312,-1.7255,-1.735,-1.7339,-1.7375,-1.7461,-1.7461,-1.7461,-1.7461,-1.7461,-1.7461,-1.7461,-1.7461,-1.7529,-1.7638,-1.7552,-1.7676,-1.795,-1.8638,-1.8375,-1.7254,-1.9246,-1.9807,-1.8896,-1.939,-1.9471,-1.8982,-1.9356,-1.9617,-1.9617,-1.9875,-2.0093,-2.0182,-2.0398,-2.0562,-2.0699,-2.0481,-2.0174,-1.9876,-1.887,0.0,0.0,0.0,0.0,0.0,0.0,0.0,0.0,0.0,-1.8729,-1.7666,0.0,-1.9459,0.0,-2.0879,-2.2291,-2.3683,-2.3914,0.0,0.0,-2.5985,-2.654,-2.8135,-2.9222,-2.9847,-3.0012,-3.1062,-3.1828,-3.1828,-3.2089,-3.2481,-3.3058,-3.2286,-3.1587,-3.1513,-3.2154,-3.2628,-3.2567,-3.3121,-3.3494,-3.3056,-3.2919,-3.3045,-3.3543,-3.3502,-3.3523,-3.3724,-3.3604,-3.3499,-3.3499,-3.3604,-3.3724,-3.3739,-3.3873,-3.3978,-3.4053,-3.4786,-3.5489,-3.5489,-3.5474,-3.534,-1.4809,-1.4803,-1.6476,-1.6919,-1.6593,-1.761,-1.7861,-1.76,-1.7804,-1.7784,-1.7754,-1.793,-1.8008,-1.7998,-1.7862,-1.7852,-1.7852,-1.7803,-1.7745,-1.7745,-1.7745,-1.7735,-1.7735,-1.7735,-1.7745,-1.7735,-1.7745,-1.7735,-1.7852,-1.7852,-1.8063,-1.8616,-1.9319,-1.9326,-1.8714,-1.9853,-2.0191,-1.9632,-1.9684,-1.9719,-1.9789,-1.9741,-1.9595,-1.9409,-1.9611,-1.9683,-1.9551,-1.9684,-1.983,-1.9878,-2.0028,-2.0109,-2.008,-1.9294,-1.8865,0.0,0.0,0.0,0.0,0.0,0.0,0.0,0.0,0.0,0.0,0.0,-2.1052,-2.1621,-2.2982,-2.4167,-2.4925,-2.5369,-2.6018,-2.718,-2.7843,-2.8733,-3.0118,-3.1045,-3.164,-3.1741,-3.2384,-3.282,-3.2958,-3.2786,-3.2783,-3.3206,-3.2344,-3.1881,-3.2429,-3.2577,-3.2544,-3.2897,-3.3197,-3.331,-3.2985,-3.2922,-3.2926,-3.3146,-3.3047,-3.2914,-3.3051,-3.2811,-3.2632,-3.2647,-3.2856,-3.3051,-3.3066,-3.3381,-3.3592,-3.3697,-3.4254,-3.4673,-3.467,-3.4607,-3.4472,-1.5068,-1.5245,-1.6685,-1.686,-1.6323,-1.7731,-1.7918,-1.7324,-1.7523,-1.7523,-1.7405,-1.7793,-1.7959,-1.8008,-1.8008,-1.8008,-1.8008,-1.8008,-1.8008,-1.8008,-1.8008,-1.8008,-1.8008,-1.8008,-1.8008,-1.8008,-1.8076,-1.8134,-1.8212,-1.8269,-1.8633,-1.9215,-1.9868,-2.0329,-2.0661,-2.0652,-2.0459,-2.0037,-1.9805,-1.9927,-2.0391,-1.9885,-1.9472,-1.9128,-1.9236,-1.9102,-1.8706,-1.8897,-1.9028,-1.9041,-1.946,-2.0031,-2.0714,-1.9959,-1.9808,0.0,-1.9872,0.0,0.0,0.0,0.0,0.0,0.0,0.0,0.0,-2.1975,-2.3306,-2.4316,-2.5439,-2.6153,-2.6281,-2.6775,-2.7359,-2.8112,-2.9589,-3.0847,-3.1495,-3.2509,-3.3087,-3.3087,-3.3087,-3.3226,-3.321,-3.2854,-3.2649,-3.2739,-3.2225,-3.2211,-3.3293,-3.2801,-3.2421,-3.3005,-3.2674,-3.2504,-3.2606,-3.272,-3.2741,-3.2882,-3.2616,-3.2392,-3.2377,-3.1958,-3.1554,-3.1614,-3.2107,-3.2436,-3.2451,-3.3021,-3.3412,-3.3367,-3.3532,-3.3653,-3.3698,-3.3727,-3.3577,-1.5194,-1.505,-1.628,-1.6752,-1.6706,-1.7667,-1.7637,-1.6855,-1.6879,-1.7089,-1.7408,-1.7512,-1.7695,-1.7998,-1.8008,-1.8008,-1.8008,-1.8008,-1.8008,-1.8008,-1.8008,-1.8008,-1.8008,-1.8008,-1.8008,-1.8008,-1.8529,-1.8911,-1.9054,-1.9628,-2.007,-2.0442,-2.0626,-2.0746,-2.101,0.0,0.0,0.0,-2.0217,-2.0113,-1.9753,-1.9044,-1.8646,-1.8545,-1.8708,0.0,-1.8706,-1.9287,-1.9643,-1.9656,-2.0093,0.0,0.0,0.0,0.0,0.0,0.0,0.0,0.0,0.0,0.0,0.0,-2.3353,-2.327,-2.3146,-2.4662,-2.5902,-2.6532,-2.6831,-2.7337,-2.8302,-2.8532,-2.9059,-3.0207,-3.0693,-3.1105,-3.165,-3.1948,-3.2075,-3.1903,-3.2037,-3.2141,-3.2118,-3.2145,-3.2299,-3.2321,-3.1931,-3.1922,-3.263,-3.2436,-3.227,-3.2371,-3.2106,-3.2038,-3.2254,-3.196,-3.1783,-3.1752,-3.178,-3.1676,-3.1734,-3.1674,-3.1539,-3.1727,-3.1832,-3.1995,-3.2095,-3.2228,-3.2394,-3.2319,-3.2391,-3.2664,-3.3577,-3.3804,-3.3653,-1.5094,0.0,-1.6261,-1.6646,0.0,-1.7559,-1.7561,-1.6865,-1.7226,-1.754,-1.7815,-1.7873,-1.8004,-1.8202,-1.7917,-1.7819,-1.7809,-1.7603,-1.7622,-1.7819,-1.7895,-1.8071,-1.8212,-1.8212,-1.8405,-1.8777,-1.8806,-1.9198,-1.9922,-2.0026,-2.0421,-2.1167,-2.1167,-2.1475,-2.1984,-2.2089,-2.1758,-2.1144,-2.0777,-2.0598,-2.0589,-1.9674,-1.9113,-1.9015,0.0,0.0,0.0,0.0,0.0,0.0,0.0,0.0,0.0,0.0,0.0,-2.2115,-2.2402,-2.2886,-2.3636,-2.4147,-2.4676,-2.5081,-2.5903,-2.6022,-2.5199,-2.647,-2.753,-2.8053,-2.8387,-2.8914,-2.9456,-2.9546,-2.9826,-3.0492,-3.0805,-3.1133,-3.1354,-3.1667,-3.1852,-3.1735,-3.1801,-3.1917,-3.1982,-3.1811,-3.1858,-3.1927,-3.1529,-3.1329,-3.1711,-3.1569,-3.1416,-3.1492,-3.1506,-3.1559,-3.1694,-3.153,-3.1336,-3.1467,-3.1467,-3.1524,-3.1612,-3.1655,-3.1727,-3.1841,-3.1898,-3.194,-3.1996,-3.2053,-3.2094,-3.2094,-3.2135,-3.2344,-3.3062,-3.3069,-3.2877,-1.4853,-1.4991,-1.6179,-1.6504,-1.634,-1.7469,-1.7676,-1.7282,0.0,0.0,0.0,-1.8187,-1.8335,-1.8452,-1.7959,-1.7724,-1.7704,-1.7422,-1.7451,-1.779,-1.7941,-1.8207,-1.8482,-1.8482,-1.8824,-1.9424,-1.9094,-1.9443,-2.0488,-2.0166,-2.0546,-2.1495,-2.1592,-2.191,-2.267,-2.2849,-2.2623,-2.2043,-2.1192,-2.104,-2.1555,-2.0423,-1.9683,-1.9477,-1.9966,-2.0028,-1.9682,-2.0345,-2.0699,-2.0725,-2.1199,-2.1602,-2.1825,-2.2256,-2.2802,-2.3485,-2.4041,-2.4799,-2.5689,-2.6208,-2.663,-2.6989,-2.8017,-2.8126,-2.6955,-2.7977,-2.8786,-2.9289,-2.9822,-3.0172,-3.0172,-3.0172,-3.0172,-3.0187,-3.063,-3.0931,-3.0897,-3.1311,-3.1582,-3.1589,-3.1582,-3.1704,-3.1838,-3.1498,-3.1333,-3.1492,-3.1262,-3.091,-3.1028,-3.0982,-3.0833,-3.1013,-3.1117,-3.122,-3.1307,-3.1424,-3.1409,-3.1524,-3.1582,-3.1655,-3.1784,-3.1841,-3.1898,-3.1981,-3.2038,-3.2038,-3.2038,-3.2135,-3.2247,-3.2247,-3.2342,-3.2398,-3.2398,-3.2262,-3.214,-1.4538,-1.4602,-1.5459,-1.5912,-1.631,-1.727,-1.7925,-1.8205,-1.7466,-1.7377,-1.7695,-1.7905,-1.8177,-1.8472,-1.8422,-1.8382,-1.8382,-1.8322,-1.8332,0.0,-1.8382,-1.8422,-1.8482,-1.8482,-1.8583,-1.8828,-1.9375,-1.9855,-2.0288,-2.074,-2.1223,-2.148,-2.1537,-2.1606,-2.1875,-2.2013,-2.2031,-2.1886,-2.1234,-2.0983,-2.1155,-1.9729,-1.8939,-1.8908,-1.9066,-1.9133,-1.9054,-2.01,-2.0699,-2.0725,-2.1681,-2.2465,-2.2936,-2.3498,-2.4136,-2.4749,-2.5737,-2.6328,-2.6366,-2.6901,-2.7233,-2.7225,-2.7806,-2.8236,-2.8411,-2.9564,-3.0286,-3.0372,-3.0447,-3.0522,-3.0522,-3.0507,-3.0522,-3.0507,-3.058,-3.0592,-3.0499,-3.0646,-3.0762,-3.053,-3.0614,-3.0826,-3.0945,-3.0904,-3.1026,-3.1161,-3.1176,-3.1087,-3.1102,-3.1073,-3.1073,-3.119,-3.1219,-3.1351,-3.1482,-3.1597,-3.1712,-3.1727,-3.1826,-3.1868,-3.194,-3.194,-3.1981,-3.2135,-3.2135,-3.2191,-3.2287,-3.2327,-3.2398,-3.2382,-3.2453,-3.2453,-3.2453,-3.2398,-3.2342,-1.4209,-1.4325,-1.5255,-1.5993,-1.6584,-1.7731,-1.8321,-1.8462,-1.7869,-1.7869,-1.8245,-1.8344,-1.8548,-1.8777,-1.8497,-1.8329,-1.8319,-1.8076,-1.8096,-1.8319,-1.8375,-1.8771,-1.9278,-1.9068,-1.9329,-2.0064,-1.984,-2.0145,-2.0868,-2.0946,-2.1124,-2.1468,-2.1605,-2.1703,-2.1827,-2.1839,-2.195,-2.1992,-2.1345,-2.1051,-2.1171,-2.0241,-1.9746,-1.983,-2.0103,-2.0358,-2.0518,-2.1387,-2.1902,-2.1978,-2.2406,-2.2722,-2.2973,-2.3689,-2.4354,-2.4969,-2.6044,-2.6826,-2.7086,-2.7284,-2.7401,-2.7299,-2.7786,-2.8204,-2.8334,-2.9549,-3.0456,-3.0851,-3.0895,-3.0821,-3.0702,-3.0702,-3.0702,-3.0642,-3.0642,-3.0582,-3.0568,-3.0642,-3.0702,-3.0657,-3.0776,-3.0895,-3.0895,-3.0895,-3.1014,-3.1176,-3.1249,-3.1322,-3.1307,-3.1322,-3.1322,-3.1351,-3.1482,-3.1612,-3.167,-3.1784,-3.1898,-3.1898,-3.194,-3.2053,-3.2094,-3.2094,-3.2191,-3.2302,-3.2287,-3.2342,-3.2398,-3.2398,-3.2453,-3.2648,-3.2648,-3.2703,-3.285,-3.2904,-3.2796,-1.4014,-1.4134,-1.5232,-1.6272,-1.7169,-1.834,-1.8741,-1.8607,-1.8392,-1.8455,-1.867,-1.8706,-1.8844,-1.9034,-1.8572,-1.8438,-1.8376,-1.8004,-1.8035,-1.8407,-1.8482,-1.905,-1.9813,-1.9487,-1.9884,-2.0747,-2.0097,-2.0269,-2.1029,-2.0797,-2.0797,-2.1188,-2.1323,-2.1498,-2.1565,-2.1619,-2.1673,-2.1755,-2.1248,-2.1133,-2.1342,-2.081,-2.0612,-2.0775,-2.1118,-2.147,-2.1789,-2.2298,-2.271,-2.2906,-2.2989,-2.303,-2.303,-2.3834,-2.4612,-2.5265,-2.6176,-2.6953,-2.7509,-2.7488,-2.7437,-2.7452,-2.7795,-2.8104,-2.8459,-2.94,-3.0216,-3.0748,-3.0984,-3.1014,-3.0895,-3.0895,-3.0836,-3.0702,-3.0687,-3.0762,-3.0821,-3.0881,-3.0955,-3.1087,-3.1087,-3.1073,-3.1132,-3.1132,-3.1249,-3.1409,-3.1524,-3.1582,-3.1582,-3.1582,-3.1567,-3.1524,-3.167,-3.1784,-3.1856,-3.194,-3.2038,-3.2038,-3.2094,-3.215,-3.2191,-3.2247,-3.2373,-3.2468,-3.2523,-3.2578,-3.2578,-3.2617,-3.2742,-3.2935,-3.2989,-3.3043,-3.3187,-3.324,-3.3187,-1.4111,-1.4248,-1.5284,-1.6621,-1.7871,-1.8559,-1.8875,-1.9008,-1.8988,-1.875,-1.8462,-1.8426,-1.8675,-1.9054,-1.8992,-1.8961,-1.8971,-1.8961,-1.8951,-1.8982,-1.9003,-1.9133,-1.9421,-1.9334,-1.9463,-1.9889,-1.9915,-1.9974,-2.0243,-2.0233,-2.031,-2.0335,-2.0514,-2.0668,-2.0655,-2.0757,-2.0832,-2.0806,-2.0767,-2.0989,-2.1446,-2.0963,-2.0749,-2.0997,-2.0851,-2.0977,-2.1529,-2.1787,-2.2108,-2.2427,-2.321,-2.3589,-2.3705,-2.4504,-2.5287,-2.5941,-2.65,-2.7045,-2.7565,-2.756,-2.7604,-2.7575,-2.7709,-2.8248,-2.931,-2.9555,-2.9788,-3.0273,-3.0807,-3.1058,-3.1087,-3.1073,-3.1073,-3.1014,-3.1014,-3.1087,-3.1073,-3.1087,-3.1073,-3.1087,-3.1146,-3.1132,-3.1307,-3.1292,-3.1409,-3.167,-3.1769,-3.1811,-3.1868,-3.1894,-3.1879,-3.1868,-3.1898,-3.1841,-3.1955,-3.2094,-3.2206,-3.2191,-3.2287,-3.2398,-3.2453,-3.2453,-3.2453,-3.2773,-3.2843,-3.2935,-3.3081,-3.3187,-3.3187,-3.3256,-3.324,-3.3293,-3.3293,-3.3346,-3.3293,-1.4238,-1.4482,-1.5409,-1.6673,-1.794,-1.8347,-1.8741,-1.9065,-1.8783,-1.8746,-1.8744,-1.8529,-1.8373,-1.8299,-1.8547,-1.8736,-1.8898,-1.9225,-1.9473,-1.9605,-1.9649,-1.9909,-2.0243,-1.9984,-2.0063,-2.0449,-2.022,-2.0089,-2.0131,-2.0182,-2.0246,-2.0398,-2.0461,-2.0524,-2.0612,-2.0662,-2.0749,-2.0885,-2.0898,-2.1067,-2.1339,-2.098,-2.0983,-2.1488,-2.1542,-2.1918,-2.267,-2.2879,-2.3206,-2.3631,-2.3597,-2.3561,-2.3792,-2.432,-2.4867,-2.5579,-2.6801,-2.7784,-2.8399,-2.8429,-2.8595,-2.8994,-2.904,-2.9312,-2.9758,-3.0196,-3.0503,-3.0679,-3.1036,-3.1307,-3.1249,-3.1249,-3.1176,-3.1132,-3.1087,-3.1132,-3.1249,-3.1249,-3.1307,-3.1497,-3.1497,-3.1554,-3.1712,-3.1697,-3.1754,-3.1898,-3.194,-3.194,-3.1996,-3.2023,-3.2007,-3.2079,-3.2038,-3.2038,-3.215,-3.2247,-3.2358,-3.2539,-3.2664,-3.2703,-3.285,-3.2904,-3.3027,-3.3134,-3.315,-3.315,-3.324,-3.3293,-3.3293,-3.345,-3.371,-3.3745,-3.3745,-3.3745,-3.3797,-1.4465,-1.4832,-1.5692,-1.6682,-1.7735,-1.8269,-1.8674,-1.8998,-1.8793,-1.8874,-1.8958,-1.8701,-1.826,-1.7947,-1.8437,-1.8837,-1.9094,-1.9521,-1.9802,-1.9977,-1.9922,-2.0142,-2.0557,-2.0065,-2.0113,-2.0557,-2.0283,-2.0182,-2.0334,-2.0334,-2.0448,-2.0599,-2.0649,-2.0712,-2.0848,-2.0885,-2.0934,-2.1082,-2.1131,-2.1215,-2.134,-2.1082,-2.1259,-2.1861,-2.1851,-2.2423,-2.3644,-2.3468,-2.3787,-2.4791,-2.4115,-2.3934,-2.4376,-2.4654,-2.509,-2.5777,-2.7161,-2.8267,-2.8703,-2.8733,-2.9021,-2.9598,-2.9742,-2.9909,-3.0251,-3.0706,-3.1071,-3.1313,-3.1483,-3.1597,-3.1524,-3.1467,-3.1424,-3.1322,-3.1264,-3.1249,-3.1336,-3.1409,-3.1539,-3.1727,-3.1784,-3.1898,-3.1996,-3.1996,-3.1996,-3.2053,-3.2068,-3.2124,-3.2221,-3.2262,-3.2302,-3.2468,-3.2523,-3.2468,-3.2413,-3.2484,-3.2703,-3.2881,-3.302,-3.3105,-3.3256,-3.3293,-3.314,-3.2982,-3.324,-3.3308,-3.3288,-3.332,-3.3539,-3.3813,-3.4016,-3.4167,-3.4183,-3.4217,-3.4201,-1.4832,-1.5338,-1.6333,-1.6899,-1.7038,-1.8202,-1.8808,-1.8952,-1.9281,-1.9314,-1.9009,-1.8908,-1.8595,-1.8328,-1.9169,-1.9628,-1.9814,-1.9944,-2.0107,-2.0063,-1.967,-1.951,-1.9606,-1.9149,-1.9187,-1.9858,-1.9964,-2.0169,-2.0649,-2.0662,-2.0812,-2.0947,-2.0997,-2.1082,-2.1277,-2.1326,-2.1361,-2.1375,-2.1375,-2.1423,-2.1423,-2.1423,-2.1533,-2.1842,-2.1588,-2.2208,-2.3426,-2.2861,-2.3292,-2.5224,-2.4909,-2.5033,-2.5635,-2.6077,-2.6474,-2.7086,-2.7789,-2.8152,-2.816,-2.8221,-2.8495,-2.9057,-2.9367,-2.9681,-3.083,-3.1119,-3.1439,-3.1931,-3.1992,-3.1981,-3.1925,-3.1826,-3.1727,-3.1727,-3.1612,-3.1539,-3.1524,-3.1655,-3.1784,-3.1841,-3.1955,-3.2053,-3.2068,-3.2012,-3.2165,-3.2206,-3.2221,-3.2318,-3.261,-3.2772,-3.2817,-3.2924,-3.3024,-3.3134,-3.292,-3.2827,-3.2989,-3.3024,-3.3045,-3.3187,-3.3293,-3.3271,-3.2978,-3.2924,-3.315,-3.3267,-3.3273,-3.3484,-3.3889,-3.4134,-3.4316,-3.4431,-3.4366,-3.4464,-3.4448,-1.5278,-1.578,-1.607,-1.6682,-1.7638,-1.7978,-1.8539,-1.9341,-1.9505,-1.9486,-1.9381,-1.9359,-1.9318,-1.9308,-1.9846,-1.99,-1.965,-2.0051,-2.0377,-2.0579,-2.0308,-2.0185,-2.0158,-2.0077,-2.0113,-2.022,-2.0472,-2.0686,-2.0848,-2.0898,-2.1046,-2.1229,-2.1277,-2.1313,-2.1361,-2.141,-2.1471,-2.1664,-2.165,-2.1759,-2.1983,-2.203,-2.2263,-2.2663,-2.2407,-2.2895,-2.4249,-2.3951,-2.4515,-2.612,-2.5663,-2.5803,-2.6719,-2.7103,-2.7363,-2.7795,-2.842,-2.8935,-2.9261,-2.9323,-2.9619,-3.0289,-3.0818,-3.1109,-3.1753,-3.2198,-3.2548,-3.2578,-3.257,-3.2499,-3.2262,-3.2053,-3.1955,-3.1955,-3.1883,-3.1826,-3.1826,-3.1883,-3.194,-3.2053,-3.2206,-3.2318,-3.2468,-3.2554,-3.2664,-3.2866,-3.2874,-3.2725,-3.2463,-3.2451,-3.2364,-3.2108,-3.2262,-3.2471,-3.2098,-3.2783,-3.3108,-3.2918,-3.2831,-3.2713,-3.2702,-3.2705,-3.2498,-3.2433,-3.2773,-3.2918,-3.277,-3.3144,-3.3681,-3.4137,-3.4317,-3.4382,-3.4464,-3.448,-3.4496,-1.561,-1.5896,-1.5956,-1.6542,-1.756,-1.7833,-1.8452,-1.9264,-1.9605,-1.9747,-1.9726,-1.9748,-1.9814,-1.9998,-2.027,-2.0245,-1.9957,-2.0448,-2.0696,-2.0694,-2.045,-2.0181,-2.007,-2.0207,-2.0292,-2.041,-2.0921,-2.1131,-2.1144,-2.1131,-2.1277,-2.152,-2.152,-2.1568,-2.1664,-2.1664,-2.1746,-2.1902,-2.1935,-2.2077,-2.2356,-2.2555,-2.2814,-2.3142,-2.3112,-2.3616,-2.4823,-2.4661,-2.5252,-2.6473,-2.6168,-2.6366,-2.7472,-2.7937,-2.8229,-2.8428,-2.8869,-2.9264,-2.9706,-2.9785,-3.0037,-3.07,-3.1218,-3.1561,-3.1817,-3.2505,-3.2814,-3.2707,-3.2911,-3.2935,-3.2757,-3.2539,-3.2318,-3.215,-3.2053,-3.2012,-3.2012,-3.2053,-3.2165,-3.2373,-3.2578,-3.2718,-3.2654,-3.266,-3.261,-3.2609,-3.2588,-3.2368,-3.2095,-3.1996,-3.2015,-3.171,-3.216,-3.2337,-3.2286,-3.2805,-3.2818,-3.2594,-3.2482,-3.2321,-3.2174,-3.2169,-3.2099,-3.2043,-3.2105,-3.2236,-3.2466,-3.2823,-3.3268,-3.381,-3.4037,-3.4114,-3.4296,-3.4526,-3.4543,-1.5679,-1.5565,-1.6035,-1.6392,-1.683,-1.7881,-1.8469,-1.8726,-1.9649,-2.0085,-2.002,-2.0074,-2.0074,-2.014,-2.0335,-2.0571,-2.0782,-2.0962,-2.0859,-2.0458,-1.9978,-1.9529,-1.9214,-1.9407,-1.9783,-2.0105,-2.097,-2.1375,-2.1423,-2.1423,-2.1568,-2.1759,-2.1807,-2.1935,-2.217,-2.2123,-2.2184,-2.2184,-2.217,-2.2278,-2.2449,-2.2859,-2.3157,-2.3319,-2.3668,-2.4356,-2.528,-2.474,-2.5164,-2.6596,-2.6335,-2.6646,-2.786,-2.8539,-2.9042,-2.9073,-2.9106,-2.9137,-2.9153,-2.9247,-2.9594,-3.007,-3.0226,-3.0669,-3.1241,-3.1887,-3.2309,-3.242,-3.285,-3.3177,-3.3224,-3.3203,-3.292,-3.2373,-3.2206,-3.2165,-3.2124,-3.2165,-3.2373,-3.2773,-3.298,-3.2924,-3.242,-3.2215,-3.2045,-3.1652,-3.1544,-3.1561,-3.1662,-3.1704,-3.1929,-3.2265,-3.2302,-3.2225,-3.2558,-3.2834,-3.2512,-3.2285,-3.2177,-3.2076,-3.1863,-3.1729,-3.1544,-3.1501,-3.1588,-3.172,-3.2065,-3.2406,-3.2603,-3.3034,-3.34,-3.3773,-3.3872,-3.4071,-3.4551,-1.5274,-1.545,-1.5482,-1.5915,-1.6608,-1.7514,-1.8177,-1.8749,-1.9652,-2.0085,-2.0085,-2.0085,-2.0085,-2.0216,-2.0475,-2.0711,-2.0869,-2.0802,-2.0784,-2.0614,-1.9924,-1.9669,-1.9825,-2.0037,-2.051,-2.1104,-2.1492,-2.1712,-2.1664,-2.1712,-2.1807,-2.2044,-2.217,-2.2217,-2.2324,-2.2402,-2.2463,-2.2463,-2.2477,-2.2523,-2.2675,-2.3083,-2.3508,-2.3937,-2.4379,-2.4909,-2.5433,-2.4813,-2.5061,-2.6235,-2.6135,-2.6667,-2.7953,-2.8475,-2.893,-2.9572,-2.9637,-2.9621,-2.9637,-2.9637,-2.9717,-3.0019,-3.0387,-3.0741,-3.1003,-3.1645,-3.216,-3.2378,-3.2711,-3.293,-3.3235,-3.3293,-3.3124,-3.2958,-3.292,-3.2843,-3.2851,-3.2936,-3.3013,-3.3049,-3.2793,-3.2554,-3.2406,-3.2153,-3.1773,-3.1742,-3.1691,-3.1702,-3.1482,-3.1539,-3.1432,-3.1179,-3.1556,-3.1967,-3.1926,-3.1959,-3.1888,-3.1704,-3.166,-3.1627,-3.1429,-3.1325,-3.112,-3.1054,-3.1143,-3.1341,-3.1671,-3.1885,-3.2078,-3.2486,-3.2956,-3.3195,-3.3317,-3.3712,-3.4213,-1.5092,-1.5177,-1.5248,-1.556,-1.6294,-1.7139,-1.7965,-1.869,-1.9663,-2.0281,-2.0464,-2.0529,-2.0529,-2.0549,-2.0658,-2.0757,-2.0853,-2.0472,-2.0382,-2.0416,-1.9814,-1.9562,-1.978,-2.0271,-2.1055,-2.1793,-2.1935,-2.1996,-2.2044,-2.203,-2.2123,-2.231,-2.2417,-2.2463,-2.2463,-2.2569,-2.2615,-2.2615,-2.2615,-2.2752,-2.3068,-2.3436,-2.3921,-2.4492,-2.4934,-2.5317,-2.5524,-2.5091,-2.5163,-2.5799,-2.6094,-2.6798,-2.7766,-2.8281,-2.8941,-2.9459,-2.9886,-2.9989,-2.9989,-2.9989,-2.9989,-3.0038,-3.0326,-3.0538,-3.0693,-3.1225,-3.1783,-3.203,-3.2321,-3.2707,-3.3203,-3.3056,-3.3038,-3.3259,-3.3255,-3.3309,-3.335,-3.3504,-3.3403,-3.324,-3.291,-3.2545,-3.2096,-3.1869,-3.1431,-3.1511,-3.1466,-3.138,-3.1057,-3.1065,-3.0784,-3.0692,-3.1206,-3.1273,-3.0957,-3.1041,-3.1224,-3.1108,-3.1056,-3.1023,-3.0924,-3.0958,-3.085,-3.0883,-3.0983,-3.1033,-3.1316,-3.1332,-3.1465,-3.1991,-3.24,-3.257,-3.2765,-3.3448,-3.3946,-1.4951,-1.4952,-1.5214,-1.5414,-1.579,-1.6838,-1.7704,-1.8425,-1.9523,-2.0342,-2.0819,-2.082,-2.0951,-2.0905,-2.0577,-2.0598,-2.0676,-2.0108,-1.9917,-1.9869,-1.9543,-1.925,-1.9189,-2.0118,-2.1091,-2.1996,-2.2123,-2.2217,-2.237,-2.237,-2.2477,-2.2555,-2.2569,-2.2615,-2.2629,-2.2601,-2.2646,-2.2661,-2.2661,-2.2904,-2.3363,-2.3879,-2.4338,-2.4863,-2.5339,-2.56,-2.56,-2.5562,-2.5562,-2.5675,-2.6209,-2.6604,-2.7023,-2.816,-2.873,-2.8943,-2.9639,-2.9901,-3.0015,-2.9923,-2.9978,-2.9973,-3.0011,-2.9995,-3.0185,-3.064,-3.114,-3.1442,-3.1867,-3.2471,-3.2929,-3.2782,-3.2669,-3.2999,-3.3102,-3.3144,-3.3411,-3.3668,-3.3433,-3.308,-3.3046,-3.2826,-3.1524,-3.1324,-3.0942,-3.0609,-3.0514,-3.0582,-3.0675,-3.0857,-3.0757,-3.0975,-3.1353,-3.128,-3.1157,-3.0945,-3.113,-3.1031,-3.0957,-3.0955,-3.0766,-3.0773,-3.0797,-3.0814,-3.0778,-3.0845,-3.0878,-3.0945,-3.0929,-3.1227,-3.1554,-3.183,-3.2286,-3.2884,-3.3317,-1.4581,-1.462,-1.472,-1.493,-1.5364,-1.6471,-1.7256,-1.778,-1.8903,-1.9577,-1.9882,-1.9874,-2.0037,-2.0021,-2.0037,-2.0134,-2.0193,-1.98,-1.967,-1.9775,-1.9426,-1.9487,-1.9836,-2.0497,-2.1237,-2.1855,-2.1983,-2.2137,-2.2509,-2.2569,-2.2569,-2.2615,-2.2721,-2.2735,-2.2735,-2.2812,-2.2857,-2.2857,-2.2933,-2.3187,-2.3666,-2.4158,-2.4664,-2.5114,-2.5567,-2.577,-2.5824,-2.5824,-2.5749,-2.5616,-2.5821,-2.6211,-2.6698,-2.7208,-2.7704,-2.8127,-2.8314,-2.8672,-2.9079,-2.9193,-2.9377,-2.9881,-2.9881,-2.9962,-2.9973,-3.0136,-3.0614,-3.1078,-3.1499,-3.1843,-3.24,-3.24,-3.2387,-3.2474,-3.2449,-3.2508,-3.2611,-3.2669,-3.2662,-3.2518,-3.2171,-3.1818,-3.1435,-3.1001,-3.0681,-3.0534,-3.0683,-3.0851,-3.0908,-3.1321,-3.1511,-3.1585,-3.1802,-3.162,-3.1432,-3.1157,-3.1049,-3.1026,-3.1072,-3.1235,-3.1044,-3.0925,-3.0918,-3.0912,-3.069,-3.07,-3.0661,-3.0639,-3.061,-3.0806,-3.1011,-3.1399,-3.155,-3.1969,-3.2404,-1.4455,-1.4515,-1.4515,-1.4643,-1.4985,-1.5856,-1.6608,-1.7287,-1.8394,-1.916,-1.9502,-1.98,-1.9927,-2.0006,-1.9957,-1.9954,-2.0008,-1.9684,-1.9594,-1.9665,-1.9556,-1.9888,-2.0459,-2.0908,-2.1382,-2.2091,-2.2123,-2.2324,-2.2615,-2.2706,-2.2737,-2.2843,-2.2947,-2.2992,-2.3037,-2.3037,-2.3068,-2.3068,-2.3157,-2.3436,-2.4074,-2.4405,-2.4902,-2.54,-2.577,-2.5934,-2.5897,-2.5897,-2.586,-2.5749,-2.5787,-2.5966,-2.639,-2.6755,-2.712,-2.7545,-2.7807,-2.8216,-2.851,-2.8641,-2.8943,-2.9499,-2.9636,-2.9858,-3.0064,-3.0162,-3.051,-3.0843,-3.0942,-3.1303,-3.183,-3.1966,-3.1818,-3.1544,-3.1502,-3.1765,-3.2315,-3.2586,-3.251,-3.2333,-3.205,-3.1633,-3.14,-3.1015,-3.0807,-3.0781,-3.0988,-3.1106,-3.1162,-3.1787,-3.2057,-3.1847,-3.165,-3.1394,-3.1376,-3.1206,-3.1158,-3.11,-3.1013,-3.1265,-3.1276,-3.1052,-3.087,-3.0823,-3.0622,-3.0452,-3.0347,-3.0404,-3.0853,-3.0977,-3.0973,-3.0878,-3.0985,-3.1173,-3.1544,-1.4506,-1.4515,-1.4515,-1.4533,-1.4763,-1.5378,-1.6117,-1.6848,-1.8048,-1.897,-1.9541,-2.0207,-2.0244,-2.0427,-1.992,-1.9885,-1.9916,-1.965,-1.9624,-1.9626,-1.9708,-2.0156,-2.0795,-2.0908,-2.1527,-2.237,-2.2555,-2.2706,-2.2857,-2.2918,-2.3008,-2.3068,-2.3246,-2.3275,-2.3231,-2.3275,-2.3275,-2.3319,-2.3407,-2.3809,-2.4405,-2.4744,-2.5192,-2.5754,-2.5897,-2.597,-2.597,-2.597,-2.5917,-2.5934,-2.5934,-2.595,-2.6122,-2.6665,-2.6949,-2.7139,-2.7514,-2.7932,-2.8202,-2.8157,-2.8454,-2.8984,-2.9108,-2.9436,-2.9774,-2.9856,-3.0038,-3.0336,-3.041,-3.0775,-3.1338,-3.1477,-3.1262,-3.0882,-3.0692,-3.1307,-3.2164,-3.2664,-3.2678,-3.2491,-3.2405,-3.2047,-3.1709,-3.1452,-3.1376,-3.1283,-3.1497,-3.156,-3.1529,-3.1707,-3.1671,-3.1289,-3.1145,-3.1039,-3.1133,-3.1227,-3.1234,-3.1237,-3.1024,-3.1087,-3.1348,-3.1199,-3.089,-3.0699,-3.0679,-3.0331,-2.9865,-3.0214,-3.0881,-3.0709,-3.0388,-3.0295,-3.0315,-3.0532,-3.0854,-1.4556,-1.4666,-1.4656,-1.4911,-1.5387,-1.5733,-1.6333,-1.7231,-1.7774,-1.851,-1.9076,-1.9409,-1.9576,-1.9695,-1.9609,-1.9552,-1.9589,-1.9534,-1.9525,-1.9617,-1.9759,-2.0194,-2.0746,-2.0908,-2.1465,-2.2282,-2.2526,-2.2768,-2.3098,-2.3201,-2.3231,-2.3275,-2.329,-2.3304,-2.3319,-2.3304,-2.326,-2.3348,-2.3696,-2.4147,-2.4648,-2.5082,-2.5497,-2.6079,-2.6132,-2.6132,-2.6132,-2.6132,-2.6132,-2.6132,-2.6026,-2.599,-2.6003,-2.6171,-2.6323,-2.6389,-2.6418,-2.6747,-2.7104,-2.7339,-2.7547,-2.8204,-2.8352,-2.8362,-2.8613,-2.8761,-2.9128,-2.9563,-2.9786,-3.0142,-3.0807,-3.099,-3.084,-3.0664,-3.0937,-3.1263,-3.1402,-3.1419,-3.1747,-3.1967,-3.1915,-3.1682,-3.186,-3.1846,-3.1827,-3.188,-3.1882,-3.2049,-3.185,-3.1618,-3.1293,-3.0851,-3.0715,-3.0682,-3.0716,-3.0869,-3.1036,-3.1059,-3.0919,-3.0981,-3.1261,-3.08,-3.0307,-3.0431,-3.082,-3.0334,-2.9602,-3.0374,-3.116,-3.0493,-2.9922,-2.9968,-3.0044,-3.0142,-3.0321,-1.4556,-1.4715,-1.4715,-1.4965,-1.5355,-1.582,-1.6304,-1.6896,-1.7687,-1.8256,-1.8667,-1.9036,-1.9258,-1.942,-1.946,-1.9525,-1.9512,-1.9629,-1.9733,-1.9823,-1.9914,-2.0359,-2.0894,-2.1091,-2.1513,-2.2406,-2.2799,-2.3038,-2.3231,-2.3378,-2.3422,-2.3407,-2.3407,-2.3436,-2.3436,-2.348,-2.3538,-2.3566,-2.3867,-2.4313,-2.4902,-2.5198,-2.5668,-2.6134,-2.6258,-2.6258,-2.6258,-2.631,-2.6345,-2.631,-2.6258,-2.6187,-2.6079,-2.6099,-2.6118,-2.6082,-2.6151,-2.6319,-2.6667,-2.6746,-2.7065,-2.7706,-2.7772,-2.8004,-2.8224,-2.8395,-2.8583,-2.8998,-2.9187,-2.9393,-2.9861,-2.995,-2.9967,-3.0095,-3.0578,-3.0939,-3.1121,-3.1367,-3.1683,-3.2057,-3.2144,-3.1969,-3.1964,-3.1925,-3.1405,-3.111,-3.1152,-3.1249,-3.0985,-3.08,-3.0836,-3.0583,-3.0429,-3.0331,-3.0327,-3.0485,-3.0743,-3.0758,-3.0685,-3.0903,-3.1202,-3.0402,-2.9438,-2.9897,-3.0349,-2.9946,-2.9503,-3.0463,-3.0944,-3.0422,-2.9998,-2.9911,-2.9751,-2.9594,-2.9874,-1.4616,-1.4775,-1.4715,-1.4834,-1.5137,-1.571,-1.6056,-1.6363,-1.7355,-1.7999,-1.8429,-1.8952,-1.93,-1.9488,-1.9565,-1.9604,-1.972,-1.9875,-1.999,-2.0029,-2.0195,-2.0523,-2.0957,-2.1237,-2.1623,-2.242,-2.2889,-2.3172,-2.3216,-2.3407,-2.3494,-2.3538,-2.3581,-2.361,-2.3653,-2.3754,-2.3797,-2.3839,-2.4162,-2.4517,-2.5137,-2.5384,-2.5848,-2.6189,-2.6347,-2.6347,-2.6364,-2.6434,-2.6485,-2.6485,-2.6485,-2.6415,-2.6345,-2.6293,-2.633,-2.633,-2.6399,-2.6465,-2.6516,-2.6551,-2.6803,-2.7356,-2.7372,-2.7623,-2.8059,-2.8126,-2.83,-2.8612,-2.8837,-2.9062,-2.8958,-2.9309,-2.9274,-2.9309,-2.9824,-3.0456,-3.1052,-3.17,-3.203,-3.2497,-3.2367,-3.2062,-3.1849,-3.1709,-3.096,-3.0411,-3.0487,-3.0451,-3.0226,-3.0101,-3.0205,-3.0022,-2.9779,-2.9763,-2.9773,-2.9863,-3.0125,-3.0249,-3.0252,-3.046,-3.0748,-3.0024,-2.9276,-2.9431,-2.9584,-2.9296,-2.9359,-2.9962,-3.0243,-3.0072,-2.9885,-2.9562,-2.9272,-2.9007,-2.9489,-1.4684,-1.497,-1.497,-1.5079,-1.5362,-1.5468,-1.5864,-1.6301,-1.6901,-1.7622,-1.8501,-1.8863,-1.9366,-1.967,-1.9759,-1.9823,-1.999,-2.0182,-2.0233,-2.0283,-2.0398,-2.0699,-2.0835,-2.1361,-2.1746,-2.2077,-2.2618,-2.2979,-2.3113,-2.3334,-2.361,-2.361,-2.3711,-2.3782,-2.3797,-2.3882,-2.3982,-2.4094,-2.4533,-2.4958,-2.5346,-2.5885,-2.6241,-2.6485,-2.6503,-2.6468,-2.6485,-2.6485,-2.6485,-2.6485,-2.6485,-2.652,-2.652,-2.652,-2.6485,-2.6468,-2.6503,-2.6554,-2.6554,-2.6589,-2.6622,-2.6723,-2.6876,-2.6877,-2.7097,-2.7164,-2.7606,-2.8305,-2.9039,-2.9619,-2.9557,-2.9398,-2.9654,-2.9741,-2.9969,-3.0424,-3.0521,-3.1058,-3.1916,-3.2683,-3.2415,-3.1948,-3.1596,-3.1237,-3.0738,-3.0284,-3.026,-3.0152,-2.9891,-2.9773,-2.9751,-2.9414,-2.8996,-2.9077,-2.915,-2.9271,-2.9452,-2.958,-2.96,-2.96,-2.9738,-2.9484,-2.9265,-2.9381,-2.937,-2.9274,-2.9437,-2.9725,-2.9613,-2.9545,-2.9338,-2.9162,-2.9088,-2.9058,-2.9333,-1.4784,-1.5098,-1.5098,-1.5205,-1.5468,-1.5874,-1.6322,-1.6944,-1.7479,-1.8294,-1.898,-1.9379,-1.9609,-1.994,-2.0016,-2.0118,-2.0321,-2.0623,-2.0686,-2.0736,-2.0885,-2.0947,-2.0947,-2.1423,-2.1712,-2.203,-2.248,-2.2994,-2.3216,-2.361,-2.3782,-2.3839,-2.3882,-2.3882,-2.3925,-2.4024,-2.4166,-2.4359,-2.471,-2.5153,-2.561,-2.6347,-2.6657,-2.6691,-2.6691,-2.6725,-2.6725,-2.6759,-2.6742,-2.6742,-2.6742,-2.6775,-2.6792,-2.6792,-2.6759,-2.6725,-2.6725,-2.6759,-2.6759,-2.6792,-2.6826,-2.6826,-2.6842,-2.6859,-2.6859,-2.6977,-2.7161,-2.7665,-2.8001,-2.8508,-2.828,-2.878,-2.8807,-2.8908,-2.9449,-2.994,-3.0178,-3.0704,-3.1527,-3.2352,-3.1909,-3.1347,-3.0911,-3.06,-3.0378,-3.0195,-3.0068,-2.9862,-2.9619,-2.9509,-2.9417,-2.9282,-2.8989,-2.9012,-2.9062,-2.9108,-2.9175,-2.9218,-2.924,-2.924,-2.9218,-2.9218,-2.9248,-2.9333,-2.9265,-2.9223,-2.9424,-2.9685,-2.935,-2.9161,-2.9428,-2.9549,-2.9246,-2.92,-2.9416,-1.4961,-1.5264,-1.5264,-1.5371,-1.5594,-1.6275,-1.6899,-1.7423,-1.8136,-1.8856,-1.9592,-1.9711,-1.9915,-2.0245,-2.0385,-2.0536,-2.0772,-2.1068,-2.118,-2.118,-2.1264,-2.1375,-2.1423,-2.152,-2.1712,-2.2109,-2.2618,-2.3024,-2.3348,-2.3754,-2.394,-2.4024,-2.4024,-2.4109,-2.4151,-2.4333,-2.4457,-2.458,-2.4766,-2.5269,-2.603,-2.6623,-2.6926,-2.6926,-2.6926,-2.6926,-2.6893,-2.6909,-2.6959,-2.6959,-2.6992,-2.6975,-2.699,-2.699,-2.7007,-2.6975,-2.7007,-2.6992,-2.6992,-2.7007,-2.7007,-2.699,-2.7057,-2.704,-2.712,-2.7198,-2.7324,-2.7261,-2.7617,-2.7789,-2.7936,-2.7922,-2.8126,-2.8261,-2.8901,-2.9481,-2.9824,-3.0167,-3.0479,-3.0913,-3.0925,-3.0827,-3.0491,-3.0033,-2.98,-2.9709,-2.958,-2.9567,-2.9333,-2.9283,-2.9232,-2.9241,-2.9175,-2.9156,-2.9178,-2.9197,-2.924,-2.9283,-2.9283,-2.9283,-2.9283,-2.9262,-2.9311,-2.9344,-2.9281,-2.9246,-2.947,-2.9544,-2.9329,-2.9361,-2.9839,-2.9824,-2.9341,-2.923,-2.9414,-1.5254,-1.542,-1.5556,-1.573,-1.5904,-1.6503,-1.6877,-1.7157,-1.79,-1.8522,-1.9347,-1.9446,-1.9938,-2.0508,-2.0921,-2.1068,-2.1166,-2.1326,-2.1471,-2.1471,-2.1506,-2.1554,-2.1506,-2.165,-2.2095,-2.2543,-2.3009,-2.3157,-2.3508,-2.3925,-2.4067,-2.4109,-2.4333,-2.4457,-2.4498,-2.4661,-2.4886,-2.5005,-2.5262,-2.5775,-2.6417,-2.6809,-2.6942,-2.6992,-2.7024,-2.7007,-2.7007,-2.7007,-2.7024,-2.7024,-2.7024,-2.704,-2.707,-2.7103,-2.7152,-2.7169,-2.7122,-2.6992,-2.704,-2.7055,-2.7103,-2.712,-2.7201,-2.725,-2.7359,-2.7672,-2.7897,-2.8093,-2.8446,-2.8522,-2.8306,-2.8713,-2.8785,-2.8779,-2.8949,-2.9237,-2.9466,-2.9715,-2.9986,-2.995,-3.0116,-3.03,-3.0203,-2.971,-2.9267,-2.9193,-2.9156,-2.9156,-2.9156,-2.9175,-2.9197,-2.924,-2.9262,-2.9262,-2.9265,-2.9283,-2.9304,-2.9326,-2.9326,-2.9326,-2.9326,-2.9326,-2.9347,-2.9363,-2.9302,-2.9262,-2.9376,-2.9391,-2.9311,-2.9403,-2.9628,-2.9536,-2.9252,-2.9311,-2.9425,-1.5556,-1.5604,-1.574,-1.5904,-1.6134,-1.657,-1.7,-1.7567,-1.8162,-1.8851,-1.949,-2.0001,-2.0522,-2.1028,-2.1423,-2.1506,-2.1568,-2.1759,-2.1855,-2.1902,-2.1935,-2.2077,-2.236,-2.2543,-2.286,-2.3318,-2.3764,-2.4074,-2.4173,-2.4245,-2.44,-2.4564,-2.4686,-2.4766,-2.4766,-2.4926,-2.506,-2.5256,-2.5621,-2.6046,-2.6435,-2.6742,-2.699,-2.7154,-2.7154,-2.7186,-2.7154,-2.7154,-2.7154,-2.7154,-2.7154,-2.7186,-2.7201,-2.7233,-2.7233,-2.7282,-2.7218,-2.7186,-2.7186,-2.7201,-2.7215,-2.7247,-2.7359,-2.7434,-2.7569,-2.7789,-2.7954,-2.7915,-2.8255,-2.8446,-2.8522,-2.8718,-2.8832,-2.8902,-2.9119,-2.9203,-2.9304,-2.9323,-2.9471,-2.9381,-2.9363,-2.9675,-2.9894,-2.9617,-2.9299,-2.9218,-2.9222,-2.9222,-2.9262,-2.9283,-2.9304,-2.9326,-2.9344,-2.9326,-2.9347,-2.9347,-2.9365,-2.9386,-2.9386,-2.9386,-2.9368,-2.9388,-2.9409,-2.9427,-2.9365,-2.9347,-2.9349,-2.9347,-2.932,-2.9342,-2.9323,-2.9326,-2.9326,-2.9379,-2.9622,-1.5904,-1.5788,-1.5972,-1.6202,-1.6467,-1.674,-1.729,-1.8018,-1.8774,-1.9389,-2.0029,-2.0664,-2.1239,-2.1527,-2.1807,-2.1996,-2.2044,-2.2231,-2.2278,-2.2324,-2.2417,-2.2586,-2.274,-2.3039,-2.3507,-2.4282,-2.4225,-2.4542,-2.4815,-2.4886,-2.4846,-2.5005,-2.5005,-2.5084,-2.5123,-2.5201,-2.5317,-2.5432,-2.5901,-2.6243,-2.6453,-2.6758,-2.7023,-2.7218,-2.7313,-2.7313,-2.7299,-2.7345,-2.7345,-2.7299,-2.7299,-2.7299,-2.7299,-2.7345,-2.7359,-2.7359,-2.7359,-2.7421,-2.739,-2.739,-2.7376,-2.7452,-2.7557,-2.7701,-2.7771,-2.7858,-2.7982,-2.8102,-2.8368,-2.8464,-2.8438,-2.8808,-2.8943,-2.9119,-2.9246,-2.9349,-2.9429,-2.9429,-2.9409,-2.9409,-2.9409,-2.9409,-2.9537,-2.946,-2.9365,-2.9283,-2.9283,-2.9307,-2.9368,-2.9409,-2.945,-2.947,-2.9429,-2.9429,-2.9429,-2.9429,-2.9448,-2.9448,-2.9448,-2.9468,-2.9488,-2.949,-2.951,-2.949,-2.9468,-2.949,-2.9511,-2.9431,-2.9368,-2.945,-2.949,-2.947,-2.9488,-2.9543,-2.9948,-1.6056,-1.6114,-1.6306,-1.6545,-1.6807,-1.7401,-1.7831,-1.8356,-1.9502,-2.0114,-2.0547,-2.1237,-2.1766,-2.1983,-2.217,-2.237,-2.2523,-2.2555,-2.2555,-2.2569,-2.2615,-2.2692,-2.2934,-2.3231,-2.3565,-2.4063,-2.442,-2.4879,-2.5146,-2.524,-2.5123,-2.5045,-2.524,-2.5317,-2.5378,-2.5492,-2.5567,-2.5754,-2.6137,-2.6383,-2.6572,-2.6875,-2.7233,-2.7296,-2.7404,-2.7434,-2.733,-2.7421,-2.7421,-2.7345,-2.7345,-2.7362,-2.7376,-2.7452,-2.7448,-2.7496,-2.7569,-2.76,-2.763,-2.7557,-2.7587,-2.7672,-2.7829,-2.7971,-2.8065,-2.8453,-2.8652,-2.8628,-2.8785,-2.9052,-2.916,-2.9347,-2.9307,-2.9349,-2.9431,-2.9471,-2.953,-2.953,-2.953,-2.9491,-2.9471,-2.951,-2.9491,-2.949,-2.947,-2.9429,-2.9431,-2.9471,-2.9549,-2.9588,-2.9607,-2.9607,-2.9531,-2.9511,-2.9491,-2.9491,-2.951,-2.951,-2.953,-2.9587,-2.9645,-2.9645,-2.9607,-2.9607,-2.9607,-2.9645,-2.9664,-2.9589,-2.955,-2.9626,-2.9664,-2.9607,-2.9681,-2.9773,-3.0404,-1.6009,-1.6124,-1.6477,-1.6818,-1.7155,-1.7523,-1.7975,-1.8468,-1.9492,-2.0553,-2.1377,-2.1771,-2.2077,-2.2324,-2.2431,-2.2555,-2.2601,-2.2615,-2.2615,-2.2615,-2.2675,-2.3023,-2.3348,-2.3767,-2.423,-2.4735,-2.5052,-2.5246,-2.5492,-2.5546,-2.5584,-2.5546,-2.547,-2.5508,-2.5605,-2.5754,-2.5828,-2.5901,-2.6189,-2.6365,-2.664,-2.6908,-2.7247,-2.7404,-2.7539,-2.7582,-2.7569,-2.76,-2.7539,-2.7465,-2.7496,-2.7465,-2.7452,-2.7539,-2.763,-2.763,-2.7701,-2.776,-2.7836,-2.7748,-2.7777,-2.8035,-2.8174,-2.8264,-2.8386,-2.8688,-2.8779,-2.8892,-2.9119,-2.9349,-2.9289,-2.9451,-2.9569,-2.9588,-2.9589,-2.9626,-2.9608,-2.9608,-2.9608,-2.9589,-2.9607,-2.9607,-2.9626,-2.9608,-2.9607,-2.9588,-2.9607,-2.9645,-2.9701,-2.9719,-2.9719,-2.9719,-2.9645,-2.9626,-2.9608,-2.9589,-2.9588,-2.9607,-2.9626,-2.9683,-2.9719,-2.9701,-2.9664,-2.9683,-2.9719,-2.9738,-2.9737,-2.97,-2.9719,-2.9738,-2.9719,-2.9683,-2.9795,-2.9983,-3.0583,-1.5894,-1.6285,-1.6751,-1.7032,-1.7323,-1.7601,-1.7986,-1.8546,-1.9486,-2.0746,-2.2098,-2.2146,-2.2324,-2.2583,-2.2675,-2.2675,-2.2706,-2.2706,-2.2706,-2.2721,-2.2857,-2.3334,-2.3824,-2.4271,-2.4599,-2.5339,-2.5675,-2.5712,-2.5754,-2.5754,-2.5754,-2.577,-2.5749,-2.5733,-2.5791,-2.5917,-2.599,-2.6118,-2.6189,-2.6487,-2.6791,-2.7021,-2.7276,-2.7539,-2.7719,-2.773,-2.773,-2.773,-2.7719,-2.763,-2.7612,-2.763,-2.7659,-2.7672,-2.776,-2.7789,-2.7847,-2.7933,-2.7996,-2.7996,-2.7979,-2.8164,-2.8353,-2.8525,-2.8731,-2.8897,-2.9012,-2.9141,-2.9291,-2.9353,-2.9372,-2.9569,-2.9664,-2.9645,-2.9701,-2.9738,-2.9701,-2.9701,-2.9701,-2.9719,-2.9719,-2.9683,-2.9719,-2.9737,-2.9719,-2.9701,-2.9701,-2.9737,-2.9771,-2.979,-2.979,-2.9773,-2.9756,-2.9719,-2.9719,-2.9683,-2.9664,-2.9682,-2.9719,-2.9737,-2.9755,-2.9755,-2.9755,-2.979,-2.9808,-2.9808,-2.9823,-2.9822,-2.9806,-2.9773,-2.9773,-2.9808,-2.9861,-3.0048,-3.0407,-1.5758,-1.6581,-1.7022,-1.719,-1.7312,-1.7601,-1.7986,-1.8565,-1.9629,-2.0961,-2.2197,-2.2406,-2.2583,-2.2735,-2.2781,-2.2812,-2.2902,-2.2902,-2.2902,-2.2933,-2.2978,-2.326,-2.3752,-2.4256,-2.4704,-2.5192,-2.5621,-2.586,-2.5881,-2.5881,-2.5881,-2.5917,-2.5917,-2.5901,-2.5974,-2.6115,-2.626,-2.6419,-2.6418,-2.6741,-2.7068,-2.7195,-2.7474,-2.7672,-2.7911,-2.7922,-2.7893,-2.7922,-2.7893,-2.7777,-2.776,-2.776,-2.773,-2.7864,-2.7968,-2.7996,-2.8164,-2.8219,-2.8209,-2.8182,-2.8209,-2.8273,-2.8466,-2.8707,-2.8906,-2.9126,-2.9332,-2.9433,-2.9589,-2.9645,-2.9683,-2.972,-2.9719,-2.9738,-2.979,-2.9808,-2.9808,-2.9771,-2.9808,-2.9808,-2.9756,-2.9738,-2.979,-2.9823,-2.9823,-2.9806,-2.9789,-2.9806,-2.9857,-2.9857,-2.9841,-2.9823,-2.9825,-2.9859,-2.9825,-2.9774,-2.9756,-2.9773,-2.9842,-2.9891,-2.9924,-2.9921,-2.994,-2.9924,-2.994,-2.9988,-3.0003,-2.9984,-2.9972,-2.9956,-2.9972,-3.0003,-3.0019,-3.0076,-3.0367,-1.5565,-1.6026,-1.7067,-1.7545,-1.759,-1.7822,-1.8193,-1.8637,-1.9664,-2.0782,-2.1843,-2.2122,-2.2463,-2.2766,-2.2962,-2.2992,-2.3037,-2.3157,-2.3142,-2.3142,-2.3142,-2.3494,-2.3894,-2.4338,-2.4784,-2.5262,-2.5675,-2.597,-2.5954,-2.599,-2.6043,-2.6096,-2.6099,-2.6082,-2.6063,-2.6115,-2.6258,-2.6347,-2.6572,-2.6923,-2.7149,-2.7491,-2.7748,-2.7911,-2.8081,-2.8136,-2.8081,-2.8136,-2.8081,-2.795,-2.795,-2.795,-2.7922,-2.8053,-2.8154,-2.8164,-2.83,-2.83,-2.8318,-2.8345,-2.8398,-2.8484,-2.8633,-2.8879,-2.9148,-2.9414,-2.9607,-2.9683,-2.9756,-2.9774,-2.9755,-2.9806,-2.9823,-2.9841,-2.9874,-2.9874,-2.9874,-2.9874,-2.9874,-2.9874,-2.9841,-2.9842,-2.9874,-2.9891,-2.9891,-2.9907,-2.9874,-2.9857,-2.9872,-2.9891,-2.9891,-2.9891,-2.9891,-2.994,-2.994,-2.9891,-2.9943,-3.0022,-3.0079,-3.0171,-3.0166,-3.009,-3.0118,-3.0104,-3.0152,-3.0166,-3.0161,-3.0161,-3.018,-3.0166,-3.0133,-3.0118,-3.0104,-3.0104,-3.0185,-1.5555,-1.6083,-1.7234,-1.781,-1.7986,-1.815,-1.8499,-1.903,-1.9772,-2.0699,-2.1652,-2.1974,-2.237,-2.2797,-2.3037,-2.3097,-2.3127,-2.3231,-2.326,-2.326,-2.326,-2.3681,-2.4188,-2.4542,-2.5036,-2.547,-2.5824,-2.6043,-2.6134,-2.6134,-2.6187,-2.631,-2.6364,-2.6312,-2.6293,-2.631,-2.6468,-2.6623,-2.6858,-2.6989,-2.7369,-2.7659,-2.7806,-2.8025,-2.8182,-2.8246,-2.8246,-2.8246,-2.8219,-2.8182,-2.8154,-2.8154,-2.8126,-2.8154,-2.8209,-2.8246,-2.83,-2.8327,-2.8406,-2.8398,-2.845,-2.8562,-2.8761,-2.8975,-2.9251,-2.9474,-2.9645,-2.9755,-2.9808,-2.9842,-2.9841,-2.9888,-2.9888,-2.9924,-2.9924,-2.9924,-2.9907,-2.9888,-2.9888,-2.9907,-2.9924,-2.9905,-2.994,-2.994,-2.994,-2.9956,-2.9972,-2.9956,-2.9921,-2.9921,-2.9937,-2.9937,-2.9953,-2.9984,-3.0015,-3.0049,-3.0094,-3.0226,-3.0279,-3.033,-3.024,-3.0152,-3.0234,-3.0311,-3.0279,-3.026,-3.0316,-3.0328,-3.034,-3.0285,-3.0235,-3.0209,-3.0182,-3.0215,-3.0241,-1.568,-1.6616,-1.7567,-1.8127,-1.8367,-1.8422,-1.8863,-1.9568,-1.9938,-2.0723,-2.1746,-2.1969,-2.237,-2.2843,-2.3037,-2.3127,-2.3171,-2.3275,-2.3363,-2.3363,-2.3407,-2.3979,-2.4405,-2.4728,-2.523,-2.5828,-2.6187,-2.6222,-2.6295,-2.6312,-2.6399,-2.6485,-2.652,-2.6537,-2.6554,-2.6623,-2.6759,-2.6842,-2.6873,-2.7147,-2.7624,-2.7672,-2.7864,-2.8081,-2.8264,-2.8264,-2.8264,-2.8237,-2.8237,-2.8209,-2.8209,-2.8182,-2.8182,-2.8182,-2.8182,-2.8237,-2.8291,-2.8406,-2.8466,-2.8458,-2.8562,-2.8694,-2.8808,-2.8971,-2.9212,-2.9494,-2.9681,-2.9823,-2.9874,-2.9891,-2.9905,-2.9924,-2.9924,-2.994,-2.994,-2.994,-2.9905,-2.9905,-2.9905,-2.9905,-2.9905,-2.9921,-2.9988,-2.9988,-2.9988,-3.0022,-3.0019,-3.0034,-3.0015,-2.9996,-2.9996,-3.0,-3.0015,-3.0045,-3.0104,-3.0182,-3.026,-3.0375,-3.0359,-3.0371,-3.0286,-3.0286,-3.0375,-3.043,-3.0359,-3.037,-3.0442,-3.0472,-3.0472,-3.0433,-3.0392,-3.0356,-3.0364,-3.0417,-3.0439,-1.5756,-1.6177,-1.7765,-1.8464,-1.8572,-1.8721,-1.8928,-1.9083,-1.9473,-2.0206,-2.1267,-2.1534,-2.217,-2.2902,-2.3157,-2.3231,-2.3319,-2.3436,-2.3566,-2.3625,-2.3625,-2.4105,-2.4542,-2.4926,-2.5406,-2.5848,-2.6206,-2.6399,-2.6434,-2.6468,-2.6521,-2.6572,-2.6708,-2.6775,-2.6809,-2.6859,-2.6892,-2.6923,-2.6922,-2.7286,-2.7725,-2.7829,-2.8035,-2.8246,-2.8371,-2.8353,-2.8345,-2.8345,-2.8318,-2.8291,-2.8237,-2.8209,-2.8182,-2.8209,-2.8209,-2.8327,-2.8406,-2.8484,-2.8562,-2.8612,-2.8694,-2.8874,-2.9064,-2.9212,-2.9395,-2.9551,-2.9751,-2.9855,-2.994,-2.994,-2.9956,-2.9972,-2.9991,-3.0007,-3.0007,-3.0007,-2.9972,-2.9972,-2.9956,-2.994,-2.9956,-2.9988,-3.0038,-3.0053,-3.0053,-3.0068,-3.0083,-3.0094,-3.009,-3.0071,-3.0095,-3.0095,-3.015,-3.019,-3.0283,-3.0381,-3.0452,-3.052,-3.0511,-3.0501,-3.0511,-3.0511,-3.0557,-3.0565,-3.0509,-3.0546,-3.0618,-3.0614,-3.0603,-3.0622,-3.0591,-3.0558,-3.0521,-3.0559,-3.0559,-1.5833,-1.6291,-1.771,-1.8506,-1.8839,-1.9052,-1.9117,-1.9129,-1.9559,-2.0321,-2.1097,-2.1582,-2.2231,-2.2933,-2.3246,-2.3378,-2.3407,-2.3523,-2.3653,-2.3754,-2.3824,-2.4297,-2.4704,-2.5098,-2.5572,-2.5957,-2.6312,-2.6485,-2.6554,-2.6674,-2.6742,-2.6842,-2.699,-2.7105,-2.7169,-2.7184,-2.7184,-2.7166,-2.7164,-2.7365,-2.7666,-2.7926,-2.8055,-2.838,-2.8458,-2.8432,-2.8406,-2.8424,-2.8371,-2.8327,-2.8246,-2.8237,-2.8209,-2.8182,-2.8264,-2.8353,-2.8406,-2.8484,-2.8587,-2.8662,-2.8821,-2.9016,-2.9214,-2.9378,-2.957,-2.9751,-2.9872,-2.9972,-3.0007,-3.0007,-3.0022,-3.0038,-3.0053,-3.0087,-3.0087,-3.0087,-3.0072,-3.0038,-3.0022,-3.0007,-3.0022,-3.0053,-3.0087,-3.0098,-3.0113,-3.0128,-3.0128,-3.0142,-3.0133,-3.0142,-3.0203,-3.0247,-3.0306,-3.0381,-3.0463,-3.0509,-3.0537,-3.0582,-3.061,-3.061,-3.0676,-3.0676,-3.0649,-3.0671,-3.0698,-3.0724,-3.0717,-3.073,-3.073,-3.073,-3.0724,-3.0678,-3.0622,-3.0618,-3.0629,-1.5864,-1.6595,-1.7611,-1.8518,-1.917,-1.9368,-1.942,-1.955,-2.0204,-2.0731,-2.1245,-2.1983,-2.2537,-2.3037,-2.3349,-2.3466,-2.3494,-2.3566,-2.3696,-2.3824,-2.3994,-2.442,-2.4981,-2.5307,-2.5832,-2.6277,-2.6554,-2.6606,-2.6691,-2.6842,-2.7023,-2.7213,-2.7244,-2.7338,-2.7478,-2.7478,-2.7478,-2.7478,-2.7307,-2.7303,-2.7765,-2.7851,-2.7765,-2.8335,-2.8458,-2.8476,-2.8432,-2.8406,-2.8398,-2.8327,-2.83,-2.8264,-2.8209,-2.8209,-2.8273,-2.8353,-2.8406,-2.8484,-2.8587,-2.8687,-2.885,-2.9016,-2.9191,-2.9437,-2.9697,-2.982,-2.9921,-3.0022,-3.0038,-3.0053,-3.0068,-3.0068,-3.0083,-3.0132,-3.0132,-3.0117,-3.0083,-3.0049,-3.0053,-3.0053,-3.0049,-3.0098,-3.018,-3.0174,-3.0209,-3.0221,-3.0226,-3.0226,-3.0241,-3.0241,-3.029,-3.0372,-3.0472,-3.0535,-3.0552,-3.0576,-3.056,-3.0595,-3.0656,-3.0671,-3.0685,-3.0691,-3.0698,-3.0736,-3.0753,-3.0764,-3.0769,-3.0789,-3.0764,-3.0764,-3.0764,-3.0755,-3.0739,-3.0698,-3.0664,-1.6083,-1.7,-1.8344,-1.9158,-1.946,-1.9512,-1.9656,-1.9939,-2.0914,-2.1268,-2.1326,-2.1996,-2.2598,-2.3127,-2.3378,-2.3509,-2.3538,-2.3625,-2.3739,-2.3994,-2.4162,-2.4623,-2.5351,-2.5631,-2.612,-2.6487,-2.6691,-2.6691,-2.6809,-2.699,-2.7198,-2.7355,-2.743,-2.7612,-2.7701,-2.7701,-2.7719,-2.7818,-2.7672,-2.7707,-2.821,-2.8533,-2.8676,-2.8785,-2.8761,-2.8662,-2.8612,-2.8536,-2.8432,-2.8353,-2.8282,-2.8246,-2.8209,-2.8246,-2.83,-2.8398,-2.8432,-2.851,-2.8587,-2.8712,-2.8874,-2.9126,-2.9336,-2.9589,-2.9786,-2.9836,-2.9937,-3.0038,-3.0083,-3.0098,-3.0113,-3.0113,-3.0128,-3.0161,-3.0176,-3.0142,-3.0094,-3.0094,-3.0098,-3.0098,-3.0094,-3.0147,-3.0209,-3.0273,-3.0314,-3.0364,-3.0402,-3.0433,-3.0441,-3.0462,-3.0402,-3.0491,-3.0632,-3.0691,-3.0691,-3.0659,-3.0665,-3.0665,-3.0724,-3.0716,-3.0697,-3.0722,-3.0748,-3.0764,-3.0794,-3.0799,-3.0799,-3.0799,-3.0799,-3.0799,-3.0799,-3.0779,-3.076,-3.0734,-3.0704,-1.5436,-1.6601,-1.8322,-1.9103,-1.9294,-1.9544,-1.9811,-2.0144,-2.1132,-2.1573,-2.1643,-2.2399,-2.3007,-2.329,-2.3451,-2.3538,-2.3566,-2.3668,-2.3797,-2.4051,-2.4369,-2.4823,-2.5351,-2.5762,-2.6175,-2.6539,-2.6742,-2.6825,-2.6942,-2.7055,-2.723,-2.7434,-2.763,-2.7789,-2.7876,-2.795,-2.7989,-2.8165,-2.8073,-2.8281,-2.8615,-2.8707,-2.8815,-2.8815,-2.8905,-2.8834,-2.8785,-2.8687,-2.8562,-2.8458,-2.838,-2.8327,-2.8318,-2.8327,-2.8398,-2.8432,-2.8484,-2.8536,-2.8612,-2.8743,-2.892,-2.9191,-2.9436,-2.9681,-2.9984,-3.0064,-3.0064,-3.0142,-3.0142,-3.0142,-3.0138,-3.0152,-3.0171,-3.0185,-3.0204,-3.019,-3.0157,-3.0157,-3.0142,-3.0157,-3.0157,-3.0171,-3.0234,-3.0253,-3.0314,-3.034,-3.0409,-3.0501,-3.0548,-3.0614,-3.0563,-3.0571,-3.0697,-3.0774,-3.0745,-3.0739,-3.0759,-3.0759,-3.0759,-3.0759,-3.0759,-3.0769,-3.0799,-3.0799,-3.0799,-3.0799,-3.0799,-3.0799,-3.0799,-3.0799,-3.0799,-3.0799,-3.0779,-3.076,-3.0759,-1.4672,-1.6069,-1.793,-1.8796,-1.8909,-1.9484,-1.9851,-2.0195,-2.1105,-2.1655,-2.1949,-2.2918,-2.3378,-2.3509,-2.3566,-2.3595,-2.3653,-2.3754,-2.3897,-2.4067,-2.4234,-2.4759,-2.5198,-2.5615,-2.6175,-2.6556,-2.6792,-2.6925,-2.704,-2.7152,-2.7293,-2.7478,-2.7672,-2.7876,-2.8136,-2.8291,-2.83,-2.8474,-2.8551,-2.8773,-2.8779,-2.8664,-2.8797,-2.891,-2.8975,-2.8952,-2.8905,-2.8834,-2.8712,-2.8612,-2.8484,-2.8432,-2.8406,-2.8406,-2.8432,-2.8466,-2.8492,-2.8562,-2.8637,-2.8785,-2.9034,-2.9277,-2.9494,-2.9769,-3.0064,-3.0171,-3.0171,-3.0185,-3.0185,-3.0199,-3.0194,-3.0194,-3.0194,-3.0213,-3.0218,-3.0204,-3.0204,-3.0185,-3.0185,-3.0199,-3.0199,-3.0218,-3.0247,-3.0285,-3.0337,-3.0362,-3.0404,-3.0481,-3.0568,-3.0639,-3.0659,-3.0659,-3.072,-3.0779,-3.0784,-3.0799,-3.0799,-3.0794,-3.0774,-3.0799,-3.0799,-3.0799,-3.0799,-3.0799,-3.0799,-3.0799,-3.0799,-3.0799,-3.0799,-3.0799,-3.0799,-3.0799,-3.0799,-3.0779,-3.0779,-1.5391,-1.6924,-1.7787,-1.852,-1.9068,-1.9269,-1.9723,-2.0423,-2.1013,-2.156,-2.2109,-2.2627,-2.317,-2.3509,-2.3566,-2.3638,-2.3739,-2.3797,-2.3982,-2.4166,-2.44,-2.4719,-2.516,-2.5652,-2.6262,-2.664,-2.6859,-2.6957,-2.7055,-2.7247,-2.7404,-2.7509,-2.7642,-2.7847,-2.8035,-2.8191,-2.8353,-2.8543,-2.8694,-2.8839,-2.8957,-2.8957,-2.9134,-2.9218,-2.9237,-2.9152,-2.9085,-2.8994,-2.8881,-2.8743,-2.8594,-2.8536,-2.851,-2.8492,-2.8536,-2.8518,-2.8543,-2.8587,-2.8687,-2.8839,-2.9082,-2.9256,-2.9494,-2.9803,-3.0034,-3.0157,-3.0171,-3.0194,-3.0194,-3.0207,-3.0202,-3.0207,-3.0221,-3.0226,-3.0199,-3.0218,-3.0204,-3.0199,-3.0194,-3.0194,-3.0213,-3.0247,-3.0297,-3.0359,-3.0462,-3.0509,-3.0593,-3.0671,-3.0678,-3.0725,-3.074,-3.0745,-3.0769,-3.0784,-3.0784,-3.0784,-3.0804,-3.0804,-3.0804,-3.0784,-3.0784,-3.0799,-3.0799,-3.0799,-3.0799,-3.0799,-3.0799,-3.0799,-3.0799,-3.0799,-3.0799,-3.0799,-3.0784,-3.0793,-3.0786]}]]